GFSNW_700_rhum_000.txt.gz
RH
70 38 34 54 82 97 98 100 69 95 97 98 97 97 96 77 66 59 94 98 84 86 95 90 98 79 64 69 68 85 98 100 100 85 70 74 70 68 74 85 81 84 73 59
68 16 21 51 87 98 97 98 93 96 98 97 98 93 79 79 74 71 67 69 74 84 100 98 89 84 68 80 85 82 89 96 96 94 93 94 98 85 91 79 87 74 76 50
80 8 16 27 87 98 92 98 98 98 98 98 80 82 82 79 80 81 82 84 80 94 99 98 86 89 85 79 75 92 95 97 94 87 91 96 97 94 94 100 97 82 77 67
79 6 15 30 89 97 97 98 99 97 98 96 86 75 82 83 91 90 97 89 95 99 99 93 98 85 76 94 95 96 98 96 93 94 97 98 97 97 96 98 86 91 67 72
27 4 17 34 89 98 100 93 98 89 90 96 90 79 78 88 93 99 98 93 92 98 99 90 88 90 96 100 90 97 98 98 98 98 97 97 98 91 97 97 86 91 81 70
12 4 23 92 95 100 98 98 99 96 92 97 91 75 79 80 93 99 99 98 100 98 96 98 96 97 100 89 100 99 99 98 98 91 97 100 98 95 93 89 94 96 92 41
11 6 31 94 97 97 94 97 99 100 89 92 82 69 82 83 96 94 99 98 99 97 98 98 100 92 77 80 77 83 95 99 98 94 98 98 98 98 87 57 62 68 67 46
14 6 18 96 98 97 95 97 99 100 95 86 96 92 83 97 99 100 90 88 98 100 96 99 96 85 69 64 69 70 85 99 98 98 99 88 73 99 68 66 57 61 49 52
18 8 34 78 75 78 95 95 98 98 96 77 73 82 86 92 100 99 94 98 89 90 99 98 100 81 91 80 82 70 94 100 99 96 99 73 78 94 98 98 86 79 62 65
34 11 21 84 76 77 90 97 98 99 99 88 85 90 85 94 98 100 98 91 91 99 99 99 95 92 86 81 80 94 98 99 96 93 95 77 68 69 87 82 61 61 58 59
50 14 18 83 84 80 91 98 98 98 97 95 98 88 98 100 97 99 98 100 96 100 99 99 91 83 85 86 76 77 82 84 88 97 92 73 68 70 71 57 49 64 67 64
50 34 13 60 100 89 88 84 97 96 98 94 91 95 95 90 95 97 99 98 100 99 98 97 95 99 97 85 75 75 80 76 80 75 69 74 70 69 65 57 54 56 66 66
64 40 22 28 97 100 97 98 100 100 98 96 90 88 90 92 98 98 100 94 98 98 99 99 95 98 93 91 79 73 76 81 82 72 65 70 70 66 52 56 53 59 64 67
50 43 31 18 83 98 100 100 99 99 97 98 92 81 99 97 94 97 91 93 100 98 99 99 100 100 87 87 86 80 76 84 79 78 79 71 66 67 58 59 58 54 60 65
39 47 28 17 56 97 100 100 99 100 90 94 90 86 89 94 100 100 83 92 99 98 99 99 99 98 99 95 84 70 65 67 80 78 81 72 67 67 62 66 65 62 59 57
13 20 39 14 29 90 87 99 98 97 100 94 90 95 82 84 93 90 82 98 98 98 98 98 100 92 93 88 90 70 65 66 76 77 79 72 70 67 66 66 67 66 62 66
13 20 27 14 23 82 88 100 97 100 99 92 88 79 76 82 89 80 89 100 99 99 98 99 96 90 97 93 80 71 69 71 73 75 76 74 72 69 68 69 72 72 72 64
13 31 24 18 20 75 95 100 100 96 98 98 90 86 71 74 92 90 92 100 100 99 98 98 100 99 99 97 69 66 72 80 78 76 74 76 74 71 71 72 73 75 75 70
29 52 33 27 24 71 99 100 99 100 100 97 88 82 70 63 99 92 97 99 98 99 99 95 99 99 95 72 66 64 70 68 72 75 72 75 69 70 71 71 69 81 93 86
45 52 47 38 28 86 98 99 96 99 99 100 94 79 76 65 87 99 93 99 94 100 100 99 99 83 63 71 64 66 62 60 66 70 70 74 69 70 76 66 74 81 82 84
54 80 91 94 74 97 98 98 98 98 99 96 87 68 69 71 75 96 87 96 88 99 95 99 92 63 56 61 63 54 51 50 54 71 75 70 67 61 62 68 76 81 88 94
58 75 96 71 92 98 98 98 98 99 80 78 65 69 78 74 78 98 97 85 88 87 90 90 70 39 48 55 50 46 38 40 42 43 48 50 62 78 83 84 85 89 91 95
69 92 96 94 96 97 97 97 100 99 90 75 61 61 77 78 86 93 88 92 90 88 82 68 49 47 40 53 46 46 49 50 48 48 50 52 66 80 88 88 92 94 98 96
72 88 90 96 97 97 98 98 98 99 82 62 68 68 79 87 86 93 84 84 77 78 73 44 38 40 46 48 45 42 43 47 57 62 63 63 62 76 85 92 96 98 96 92
65 81 93 94 95 95 93 93 96 93 76 62 72 81 94 100 97 85 81 79 72 63 40 33 27 27 31 38 47 46 44 45 51 69 77 76 72 82 88 90 95 94 91 86
48 71 89 90 86 91 88 91 97 98 100 99 100 100 100 91 88 91 74 74 52 36 29 31 32 31 28 26 32 42 49 52 65 83 93 90 84 87 92 95 88 90 89 48
53 48 63 78 85 90 93 90 91 97 99 100 100 99 93 90 91 86 73 59 34 37 39 37 36 38 39 35 27 25 35 46 60 86 98 95 93 96 98 94 80 84 70 26

GFSNW_700_rhum_003.txt.gz
RH
92 72 69 23 35 65 97 97 97 100 86 98 98 97 96 82 73 64 64 65 66 81 92 99 99 86 63 65 69 78 82 96 95 83 78 78 79 84 89 95 90 92 82 64
90 78 37 17 23 57 90 100 94 98 99 99 96 97 89 75 71 74 75 63 82 84 84 89 91 89 80 83 79 88 84 96 97 88 90 97 98 85 95 94 96 91 84 62
93 18 14 17 27 75 97 98 98 98 93 93 91 95 90 84 82 75 71 72 71 76 97 97 94 82 86 92 79 86 97 97 88 80 85 98 97 90 94 98 96 83 83 75
95 13 15 18 37 94 97 99 95 94 93 99 87 91 85 91 85 78 78 91 95 80 92 99 90 87 93 91 83 92 100 98 91 84 94 98 97 96 95 98 80 93 66 73
86 11 9 88 98 96 98 98 100 99 93 99 93 94 87 78 82 79 92 92 97 98 99 95 85 86 81 74 86 96 100 98 100 99 93 98 98 99 98 96 93 97 90 75
61 11 18 92 93 97 98 98 94 91 95 98 90 84 82 81 82 94 98 95 93 99 99 98 86 94 81 88 94 97 98 99 99 95 95 98 97 95 99 100 99 85 90 36
41 13 26 89 92 86 90 96 99 90 90 87 94 94 80 82 82 91 94 97 97 97 96 89 94 89 92 93 85 97 100 100 99 96 96 98 98 100 99 100 90 79 60 34
39 21 14 83 90 88 92 98 98 100 94 95 94 86 82 88 87 90 91 99 97 100 100 96 99 96 96 62 63 74 82 99 98 98 98 90 80 100 100 75 60 63 40 63
37 26 11 47 95 86 95 97 98 99 96 84 87 86 88 90 94 98 97 98 98 100 95 96 98 83 79 78 89 82 81 99 100 99 99 94 73 85 79 79 70 74 48 44
43 29 13 29 82 76 92 94 97 98 100 86 82 85 84 96 93 97 95 98 93 89 88 98 98 85 87 82 79 92 100 97 97 99 96 80 70 72 81 67 63 70 51 58
30 35 18 13 66 91 94 99 97 98 98 89 81 84 74 79 88 92 99 99 98 92 99 99 98 94 80 85 80 76 79 89 82 97 98 75 69 69 67 60 55 65 55 59
36 29 26 10 50 81 89 94 100 99 99 98 96 93 91 94 87 99 100 100 97 93 98 98 99 94 99 94 81 78 79 75 79 78 66 69 69 64 60 56 58 61 69 62
0 16 22 13 22 82 79 91 98 97 98 99 100 91 84 83 90 95 100 91 100 96 98 99 98 100 95 94 85 84 76 81 79 81 73 66 70 70 57 58 58 62 70 69
7 4 10 12 13 66 90 95 98 99 98 99 85 87 83 86 88 87 94 95 99 99 98 99 98 100 94 89 84 85 84 80 78 76 79 74 66 68 58 57 56 63 65 70
8 10 12 9 12 35 90 94 100 99 99 100 92 81 73 84 87 86 90 86 90 98 99 99 98 99 91 86 88 68 66 64 72 79 78 81 73 69 60 60 61 58 65 66
10 10 16 16 14 21 85 99 99 99 98 97 91 81 83 85 88 84 89 86 94 99 99 98 98 91 98 95 84 57 55 65 70 75 82 83 76 70 66 66 64 63 63 67
13 21 34 32 15 18 82 96 98 98 98 93 91 81 80 76 76 81 77 98 99 100 100 100 98 99 99 94 68 52 64 73 76 78 79 79 75 70 67 66 66 68 67 68
8 42 49 36 14 13 86 98 98 98 98 100 82 77 63 56 75 70 82 100 98 99 99 100 99 99 99 96 73 72 69 67 71 73 76 77 75 73 67 68 70 71 72 66
47 49 52 48 22 11 85 97 98 97 98 92 78 79 69 56 87 99 99 100 99 100 100 99 95 94 97 72 69 66 64 68 72 74 76 76 76 76 71 71 72 76 78 73
66 68 57 94 27 17 82 98 98 97 99 98 85 77 71 67 82 99 98 99 100 98 99 100 100 73 57 61 69 66 71 70 70 74 70 72 74 70 73 77 79 80 88 91
60 78 96 92 35 47 96 98 97 97 99 91 86 73 80 74 72 97 96 90 100 99 95 98 94 57 63 56 59 66 58 59 62 69 89 84 94 80 75 86 77 84 85 89
86 97 96 72 91 94 96 97 98 97 90 92 75 66 74 72 73 72 84 93 88 99 90 90 72 49 50 66 59 56 44 47 52 64 71 75 80 69 74 73 75 82 88 92
76 87 89 95 92 96 96 98 100 99 84 74 64 60 68 92 92 84 84 88 90 92 86 71 50 50 52 49 59 59 48 37 40 44 51 56 62 66 79 83 83 89 97 97
64 83 88 95 93 95 96 94 97 99 83 77 82 84 100 99 93 83 83 86 84 77 72 44 40 34 44 51 55 53 58 47 48 48 49 54 63 71 80 89 92 97 97 99
56 68 83 85 82 88 84 93 94 95 85 77 90 99 100 99 90 91 82 80 74 65 49 39 27 26 30 38 49 50 49 54 61 66 65 64 66 75 82 87 97 99 100 97
37 57 73 76 81 87 86 89 98 90 82 80 99 99 99 98 83 88 70 72 53 41 36 33 34 33 32 29 32 44 50 48 51 68 81 80 76 75 85 91 96 99 95 86
27 44 52 51 51 56 74 82 90 98 100 100 99 97 92 92 91 83 68 48 45 42 36 40 37 38 39 38 32 29 38 47 49 58 77 88 89 87 92 96 98 97 87 76

GFSNW_700_rhum_006.txt.gz
RH
89 60 16 29 26 24 42 94 97 85 98 96 97 98 96 92 85 76 64 65 62 69 76 94 99 94 70 62 67 83 92 100 97 95 85 86 88 94 97 97 91 97 72 57
93 24 18 22 24 25 28 96 98 97 100 98 97 97 97 94 77 74 69 66 61 62 64 76 85 84 76 71 71 80 92 98 94 75 85 81 100 73 97 98 98 93 82 53
63 22 22 25 27 25 61 94 97 97 99 74 88 88 96 86 78 76 71 67 68 67 72 75 91 84 81 76 80 92 97 100 86 70 65 84 98 96 98 97 97 75 81 67
38 19 26 69 77 88 95 99 99 94 100 93 94 93 88 80 76 75 73 72 66 65 75 92 90 88 91 90 84 83 100 100 93 74 90 99 99 100 99 98 86 94 62 66
24 24 43 72 84 93 97 100 100 87 88 83 85 91 92 90 79 76 70 71 83 90 85 96 97 94 95 91 92 98 99 94 90 96 100 100 99 96 100 100 100 100 95 88
19 26 43 61 73 92 94 95 87 91 97 96 95 81 85 80 74 86 82 85 90 87 93 96 99 100 99 99 98 94 94 92 96 93 98 98 98 99 100 92 99 100 99 45
15 18 38 53 65 72 94 99 91 78 86 89 84 85 90 78 81 92 91 89 97 97 98 99 100 97 100 100 100 98 82 95 99 97 92 94 98 98 99 95 87 100 93 52
8 11 22 46 66 77 88 97 90 84 98 92 94 96 96 91 87 82 87 93 96 98 97 97 98 99 97 81 76 79 89 99 98 98 98 84 91 97 96 95 85 84 72 93
2 7 11 37 65 75 81 92 90 84 82 79 87 83 91 87 86 87 90 90 95 100 99 98 99 89 77 77 82 92 99 100 99 99 97 79 82 83 93 98 88 77 74 67
1 2 5 20 48 72 80 85 98 98 94 83 79 80 87 87 92 97 97 97 99 99 99 98 100 98 82 82 89 86 98 100 98 99 98 81 75 73 73 73 78 71 60 74
1 1 2 6 30 64 74 76 81 94 97 78 78 86 90 84 85 90 95 96 99 99 98 99 98 100 89 82 77 76 84 96 96 97 94 81 69 65 69 62 62 71 78 86
2 2 2 5 7 28 75 91 89 96 100 97 75 76 80 85 85 100 100 92 93 98 98 98 100 96 93 90 86 79 87 77 87 79 74 61 62 65 56 60 61 72 79 90
1 3 7 4 7 8 50 86 93 91 100 94 85 86 82 84 91 98 98 98 100 98 100 99 99 96 99 98 88 87 80 80 82 82 77 78 62 63 56 58 64 65 71 74
1 6 16 16 7 6 27 75 99 99 99 99 94 96 89 89 91 97 91 99 100 99 100 100 100 99 94 98 97 90 90 88 78 70 80 77 64 62 58 58 64 71 70 69
2 17 18 22 23 6 11 59 84 100 99 96 99 96 93 86 82 82 92 99 99 96 99 99 100 96 92 97 86 77 68 71 68 81 76 84 75 65 61 62 58 61 67 68
14 18 14 40 36 14 12 59 85 97 100 100 97 93 88 82 79 86 94 100 100 93 100 100 99 97 99 98 88 61 58 61 70 76 72 84 78 72 67 65 63 61 63 68
12 11 34 44 42 20 23 78 87 97 99 100 96 94 83 82 84 91 87 98 98 100 98 98 99 97 99 99 90 70 61 58 68 77 76 83 78 73 70 67 65 64 65 70
27 53 57 47 33 18 35 87 91 98 98 96 98 89 81 77 77 77 90 95 100 99 99 99 99 99 93 90 55 68 71 72 68 71 77 82 79 74 70 69 70 70 70 68
49 45 64 86 60 19 31 91 96 97 98 99 80 79 75 64 83 97 99 99 99 95 99 100 99 98 87 68 62 66 69 66 66 69 71 79 81 77 72 73 70 74 75 70
67 58 80 88 26 32 81 96 96 97 98 93 91 64 68 70 77 94 94 99 98 99 100 99 98 85 59 62 69 71 68 72 69 72 73 77 76 75 76 73 74 78 78 79
64 68 74 32 38 95 96 97 97 97 98 87 81 65 72 75 74 82 89 91 95 99 99 100 96 57 65 63 56 60 64 62 70 72 77 78 88 77 74 77 78 87 91 95
60 49 52 83 96 96 96 96 97 92 86 84 72 74 84 76 77 74 80 88 87 97 94 93 74 48 48 62 58 56 50 54 58 69 74 82 86 83 85 82 87 87 90 89
51 74 87 90 94 95 94 95 98 99 86 77 72 76 89 85 88 88 78 92 92 82 86 70 47 47 45 50 64 61 47 47 46 57 74 75 79 84 78 83 86 85 87 89
48 59 76 83 86 84 90 94 100 92 90 89 82 92 100 100 98 95 90 84 78 85 74 42 40 36 32 46 54 59 59 52 41 46 50 60 70 77 69 76 83 85 89 98
44 50 63 70 85 92 92 100 99 100 97 99 100 99 99 99 99 90 79 83 79 62 45 43 30 30 29 36 51 54 56 57 47 47 48 49 55 67 71 79 88 93 98 96
33 49 60 67 68 73 79 86 91 98 100 100 100 99 98 94 87 92 80 70 53 49 44 33 34 35 36 34 34 46 56 60 56 67 68 66 64 69 78 84 89 96 97 98
7 35 47 54 58 56 60 72 86 92 93 98 98 98 96 98 95 92 75 74 56 54 48 42 41 42 40 39 40 32 40 53 57 60 61 78 79 75 81 88 91 96 99 98

GFSNW_700_rhum_009.txt.gz
RH
68 49 17 18 21 25 35 76 96 84 79 98 98 95 98 97 99 83 80 96 83 80 85 84 80 81 88 82 85 99 97 96 95 81 83 88 87 96 96 97 72 93 77 66
32 22 26 46 70 98 86 85 91 79 91 93 82 100 98 99 95 96 97 78 83 84 86 86 86 90 93 68 65 97 98 93 90 83 83 84 90 86 86 97 98 96 91 60
24 28 53 67 76 81 96 77 96 97 91 87 69 98 97 91 95 83 69 60 57 64 90 80 91 95 80 75 71 97 99 96 85 66 58 75 96 96 98 98 98 81 79 71
25 34 53 60 76 88 87 86 92 94 93 94 95 97 95 96 94 80 70 69 68 84 88 94 94 98 81 81 80 84 98 94 92 93 96 96 90 96 96 99 96 99 73 72
21 33 49 62 79 93 83 78 75 77 74 85 99 86 100 98 79 81 68 75 74 82 87 95 99 100 100 99 97 95 97 98 99 98 77 87 100 94 99 100 98 99 95 92
8 25 40 55 66 82 73 79 92 97 76 89 99 98 98 96 85 76 68 82 98 94 98 91 88 90 98 99 99 100 99 98 99 89 85 92 93 100 99 97 93 98 100 69
2 10 31 47 54 64 71 66 72 84 92 99 99 89 92 86 84 90 85 85 90 89 96 96 99 100 98 93 96 98 96 98 100 88 86 92 85 86 91 91 93 100 100 88
1 2 13 35 57 64 67 72 72 63 80 98 86 86 92 81 78 80 93 90 94 92 91 88 86 98 93 81 97 100 98 100 97 98 91 74 94 90 85 98 93 98 98 92
3 0 2 16 40 57 63 66 63 68 69 84 87 86 89 100 96 83 80 85 89 95 94 94 95 99 82 94 98 100 100 100 99 100 97 82 76 76 76 89 87 95 89 88
8 1 0 1 15 42 57 66 73 78 71 72 78 85 98 84 90 93 87 95 94 94 97 92 98 95 92 85 85 98 100 100 100 100 98 85 76 72 77 78 76 92 93 98
11 3 1 0 2 21 53 63 73 76 67 68 69 73 85 86 94 98 91 87 95 96 97 97 98 97 99 90 85 96 89 94 100 99 97 84 67 66 78 70 69 78 86 92
11 4 2 2 2 3 28 62 80 82 86 89 78 73 76 87 99 96 92 92 97 92 96 96 97 98 99 95 82 80 92 83 79 84 76 74 77 69 71 64 68 69 82 87
10 4 7 14 15 8 6 40 69 90 100 100 96 81 84 83 84 85 89 97 98 99 96 98 98 94 97 97 95 95 80 76 78 83 82 74 77 63 62 63 67 74 72 74
10 4 15 22 22 30 8 12 65 93 100 100 100 92 87 85 85 81 99 99 99 95 99 98 99 99 99 99 99 94 99 88 83 72 71 77 80 64 61 60 75 78 78 80
9 3 17 22 11 38 17 7 50 95 99 100 100 98 89 86 84 84 88 94 95 100 100 99 98 99 98 91 91 72 81 73 80 80 81 74 78 71 64 60 67 69 67 66
8 7 7 11 28 51 28 8 46 94 99 100 99 98 99 98 84 79 78 88 94 99 99 99 99 99 98 99 98 77 68 58 56 75 74 74 78 78 67 64 62 67 66 71
6 48 43 54 69 52 27 44 82 88 97 98 97 100 92 86 75 72 78 89 97 100 99 99 100 94 99 98 88 93 70 64 63 70 71 76 81 77 70 66 64 64 64 67
32 51 29 66 61 45 21 95 99 96 97 98 98 98 88 76 78 88 88 87 99 99 98 100 98 99 99 97 65 66 71 74 66 72 75 77 84 79 71 67 66 66 68 72
69 72 76 92 84 31 27 98 98 97 98 98 100 96 99 79 91 97 98 98 95 100 100 100 95 99 93 72 80 79 74 68 70 72 69 72 81 81 76 73 70 72 73 71
51 81 84 89 25 21 74 96 97 97 98 98 87 89 78 70 62 83 99 96 92 96 91 90 95 49 64 53 62 71 70 71 77 76 69 68 78 82 81 82 74 75 76 73
28 15 20 19 45 84 96 96 96 96 96 88 84 79 86 73 76 89 82 89 83 99 90 91 84 42 50 59 64 61 65 68 72 77 75 84 88 89 91 82 75 77 82 80
56 88 89 95 96 96 97 96 97 96 100 97 87 75 78 81 77 78 79 80 81 93 85 84 60 40 50 50 53 66 61 64 60 69 82 88 84 85 78 81 90 88 92 93
74 77 83 93 92 97 91 93 100 100 98 89 82 85 77 88 92 90 76 84 90 79 82 61 31 48 43 37 54 80 62 56 67 62 70 88 98 96 85 92 96 98 93 91
60 61 71 75 79 79 88 86 92 92 90 85 97 100 100 100 96 93 94 89 77 78 76 45 51 42 32 33 52 67 88 71 60 56 67 82 88 96 97 87 88 90 87 88
44 54 60 67 76 80 84 84 90 83 97 99 98 100 100 92 94 92 83 81 75 68 58 66 47 38 40 38 41 61 80 93 72 52 57 65 67 73 82 82 81 87 89 90
19 51 56 64 66 68 79 86 87 80 82 100 100 99 95 97 89 91 82 83 65 65 60 56 39 42 43 42 40 40 62 81 92 68 53 52 54 58 69 76 79 85 91 96
7 26 46 63 65 62 63 70 83 92 100 99 99 95 100 99 95 90 77 74 58 61 61 52 46 51 53 52 48 42 37 50 67 75 80 75 67 69 68 78 83 87 93 94

GFSNW_700_rhum_012.txt.gz
RH
14 37 62 84 97 99 82 77 100 82 78 96 98 96 98 98 99 97 93 84 86 87 88 85 86 88 85 89 98 94 96 91 97 77 70 73 90 89 84 95 75 82 74 73
35 52 68 91 92 100 96 78 87 78 83 94 74 87 98 98 88 84 87 79 78 73 85 83 82 93 85 92 88 94 93 95 98 90 86 85 86 77 82 94 91 94 95 68
28 47 62 71 87 74 74 80 80 79 79 72 100 92 98 96 97 91 70 54 74 82 82 85 86 90 86 73 81 96 93 93 78 77 74 77 92 83 85 97 98 89 88 80
9 38 58 63 84 91 54 70 62 93 90 85 81 96 98 96 94 83 66 67 83 86 86 88 90 96 85 81 79 97 99 95 84 79 70 74 75 75 81 99 92 100 88 99
1 26 50 58 72 81 48 56 65 72 62 93 98 94 96 89 86 86 76 87 94 86 86 87 87 94 99 89 90 93 91 96 90 88 76 80 90 78 88 98 99 99 87 84
2 4 37 48 66 58 48 54 63 60 71 90 98 94 98 96 80 77 74 94 93 94 88 86 94 96 95 97 92 95 89 93 87 90 71 80 90 85 93 95 98 96 99 98
12 2 9 41 53 67 61 67 62 63 64 76 95 92 85 86 80 78 75 74 97 91 88 91 86 95 95 97 99 93 94 87 92 94 79 92 78 76 91 90 90 98 100 100
16 12 1 15 46 60 64 68 72 65 82 83 84 91 78 81 79 79 95 92 86 94 90 85 85 95 93 89 97 97 99 97 95 96 95 70 86 85 77 84 87 91 100 96
19 15 8 1 11 44 54 65 72 79 97 99 100 100 98 96 99 83 85 84 89 92 88 82 81 99 90 97 94 100 99 97 99 99 95 83 77 72 70 79 90 81 99 99
22 18 12 3 2 6 37 54 76 88 89 84 75 94 98 94 99 95 99 89 90 92 91 85 92 96 92 90 96 96 100 99 98 99 96 81 64 78 74 79 73 76 99 93
24 19 14 5 3 3 4 45 65 85 88 85 85 78 89 93 92 95 90 85 92 94 95 89 99 97 100 92 90 84 83 97 98 99 96 92 79 78 82 72 75 72 92 87
26 21 13 6 4 11 6 9 56 81 84 85 79 79 74 75 90 100 85 93 93 85 88 97 93 100 91 94 94 93 90 81 89 83 76 79 82 77 72 68 69 69 86 88
26 21 15 6 4 17 22 12 12 66 84 99 98 82 87 87 83 96 87 86 86 92 95 96 98 94 93 94 92 89 95 88 86 82 84 82 73 83 64 63 71 67 86 82
26 21 14 6 8 16 22 24 15 30 92 100 100 94 88 82 90 87 84 84 94 96 96 99 100 94 97 99 96 98 93 99 90 75 76 85 82 76 67 62 72 77 77 85
25 20 8 15 49 43 14 15 33 20 97 99 95 100 89 91 87 85 84 88 99 100 99 99 98 94 97 81 91 81 72 78 85 80 87 75 69 69 72 64 65 72 76 69
24 13 19 57 39 43 60 46 31 29 97 97 98 99 97 85 84 85 86 89 84 94 100 100 99 89 98 99 100 74 80 71 72 76 64 64 70 70 75 66 64 69 65 74
20 17 66 59 60 69 70 45 100 51 96 97 98 99 99 99 98 93 84 77 79 90 100 99 100 96 100 97 96 67 92 94 76 82 65 64 69 74 77 70 66 67 70 73
14 58 65 80 72 54 48 68 100 92 96 98 98 99 100 98 98 92 82 78 85 91 94 94 88 98 100 90 72 71 69 78 75 73 72 69 67 77 78 72 67 65 67 70
38 30 59 79 60 55 21 97 98 96 97 98 100 98 100 94 99 88 91 87 99 94 89 94 94 95 94 69 80 95 100 88 78 79 77 77 69 73 80 75 69 68 70 73
29 13 25 14 25 44 89 96 96 96 97 100 100 100 98 99 91 99 94 95 96 98 89 85 74 49 78 95 89 71 72 81 84 79 78 73 70 77 90 93 87 77 85 77
38 41 36 58 82 94 96 96 96 96 97 96 98 100 93 98 88 97 90 87 82 97 90 78 82 65 81 78 72 94 67 68 84 76 80 79 76 79 97 98 98 96 93 78
75 84 88 93 98 99 97 96 98 99 100 95 97 97 95 87 94 83 83 75 73 80 77 76 64 85 73 59 48 71 89 79 82 75 78 84 94 96 97 93 99 92 97 95
68 72 74 82 86 99 100 100 100 100 99 98 91 81 82 89 84 82 76 74 90 72 82 72 76 65 46 40 42 63 75 82 78 76 75 81 94 99 98 99 98 99 98 96
32 63 62 70 72 76 84 87 100 100 100 100 95 99 92 93 94 88 83 83 76 77 86 67 67 43 44 44 45 66 78 94 84 79 80 80 88 98 99 98 96 97 98 100
19 52 56 61 71 77 82 86 96 99 100 100 100 100 100 96 88 87 80 76 76 68 67 70 66 44 46 47 45 56 82 73 90 94 85 83 86 87 93 99 95 91 96 98
24 41 54 58 71 77 83 85 87 96 100 98 100 99 92 89 86 85 75 73 59 64 68 65 53 47 55 58 56 48 49 73 82 90 85 83 75 70 74 85 93 89 90 94
12 17 33 53 64 68 70 82 86 92 100 99 97 98 97 98 97 86 77 64 56 62 62 61 61 56 51 54 54 56 56 46 53 81 76 87 85 84 87 78 77 82 87 92

GFSNW_700_rhum_015.txt.gz
RH
34 50 69 96 79 84 75 56 75 79 93 91 99 99 94 96 98 86 94 87 82 74 85 78 80 82 88 86 88 89 92 84 90 76 72 79 81 69 82 76 74 80 88 72
29 43 66 74 41 79 65 50 72 86 89 95 93 95 98 98 98 96 95 90 83 76 78 78 81 96 91 93 97 92 94 95 91 89 86 89 92 82 86 86 86 89 90 66
19 37 54 54 38 64 42 51 73 70 62 82 94 99 94 95 81 82 81 82 74 83 93 87 97 93 86 96 98 95 92 94 78 80 88 88 93 90 88 92 98 88 86 80
4 36 44 38 39 45 42 38 54 55 80 79 88 92 96 83 80 72 68 85 85 84 86 84 90 84 84 85 91 97 96 92 90 82 67 71 74 72 72 88 82 99 71 93
5 17 38 35 30 53 61 60 60 68 75 89 86 82 86 81 74 65 69 78 86 83 85 74 87 84 78 76 81 96 100 97 89 69 76 83 78 74 78 84 92 99 100 95
17 3 18 43 36 44 42 59 49 46 62 82 86 92 94 79 77 74 77 82 83 85 83 88 85 93 86 84 85 85 88 88 98 80 76 81 81 75 78 83 83 96 96 92
20 16 2 14 48 48 55 58 53 56 61 69 92 86 86 77 76 71 69 68 78 81 83 87 89 90 96 96 97 97 89 84 90 81 79 89 75 72 75 79 81 84 93 100
23 21 15 2 6 47 58 54 67 74 91 95 96 83 83 80 76 72 83 80 88 89 89 90 90 95 94 97 96 95 89 97 87 94 91 70 77 72 77 80 75 84 85 99
27 23 21 14 4 2 20 47 60 62 93 99 95 94 98 82 77 76 81 82 85 87 89 82 84 93 96 99 100 100 100 98 98 100 96 89 80 68 78 79 74 80 79 100
29 28 24 20 16 6 2 2 28 69 67 99 99 100 95 93 93 94 99 85 82 87 85 83 82 94 99 96 97 98 98 99 98 92 97 71 62 74 83 78 70 76 76 91
27 30 29 26 21 16 5 6 4 17 65 76 99 100 100 94 90 93 94 92 91 94 94 88 99 94 98 96 96 92 88 87 94 100 98 84 80 86 89 79 73 71 70 82
25 30 30 28 24 16 8 6 14 9 12 65 78 100 98 99 97 98 94 91 87 84 88 93 100 98 97 97 96 95 96 81 83 80 67 78 84 89 85 82 67 71 70 78
25 29 30 28 22 9 10 11 17 22 18 28 87 77 100 100 99 98 93 92 90 87 84 94 98 97 92 90 90 96 99 93 98 94 80 86 87 86 88 76 64 72 72 80
26 29 30 26 14 28 54 50 14 17 27 16 89 92 97 94 98 98 99 97 97 91 91 93 98 99 87 82 84 90 88 99 99 94 80 80 85 81 74 73 63 75 76 80
27 30 28 15 42 59 54 40 54 7 32 75 90 95 84 88 93 100 100 98 93 95 97 98 98 96 94 81 81 65 70 75 90 87 99 96 84 68 72 72 64 69 74 79
30 30 18 48 54 64 62 86 74 29 37 59 97 98 82 94 92 100 99 95 93 100 100 100 100 100 100 98 94 56 70 98 97 83 93 89 86 69 73 77 66 65 68 68
33 22 41 44 68 62 67 61 98 62 34 87 97 99 100 100 99 97 94 93 100 100 100 100 100 100 100 99 93 86 86 90 100 100 93 82 72 70 73 82 71 66 68 69
26 31 18 52 79 57 50 94 100 88 96 96 97 99 99 99 96 95 94 99 99 100 100 100 100 100 100 96 99 100 100 87 93 100 94 88 78 74 74 83 75 69 68 69
30 10 13 32 32 25 31 96 97 94 95 96 98 99 98 100 99 100 97 92 99 96 91 85 94 100 90 99 98 85 87 98 98 89 85 78 79 74 76 84 89 87 72 72
23 42 59 68 70 88 95 95 95 95 96 98 98 98 98 99 99 98 97 98 98 99 97 89 100 88 100 100 92 78 94 83 82 96 99 92 86 82 80 93 98 96 80 90
63 80 91 92 95 91 95 95 96 97 97 97 97 98 98 99 99 98 100 90 75 71 78 90 93 99 87 82 68 53 64 89 78 85 83 87 87 85 80 93 100 99 96 98
65 69 71 81 94 92 96 100 100 99 98 100 98 100 99 93 100 92 75 69 76 78 92 86 81 84 73 48 44 43 59 81 92 86 85 84 82 93 92 99 100 99 99 97
27 60 66 75 87 96 100 100 100 100 99 100 98 94 90 88 82 73 73 72 92 79 81 78 82 72 49 48 47 64 80 89 86 95 93 92 92 95 99 99 98 100 98 94
27 33 60 61 70 76 75 83 100 100 100 100 100 100 87 84 80 78 73 83 79 77 90 78 77 56 50 50 48 73 84 89 99 98 96 98 92 98 99 100 99 98 97 98
36 33 53 56 58 73 79 80 91 100 98 100 100 100 99 97 88 84 78 80 78 65 67 71 70 47 58 63 56 52 76 93 86 86 98 95 95 96 96 99 99 99 98 98
45 32 41 51 52 76 85 92 99 100 100 98 97 97 94 91 93 90 78 77 58 61 68 71 62 54 55 60 59 57 56 51 72 89 94 97 94 86 90 90 100 99 97 98
42 25 17 18 46 69 84 91 99 100 100 94 94 97 87 96 99 100 80 68 59 63 68 68 66 66 64 61 56 53 52 53 54 48 81 85 82 81 85 95 92 95 98 97

GFSNW_700_rhum_018.txt.gz
RH
39 28 18 22 30 48 62 52 49 53 79 92 96 98 98 98 95 82 80 81 70 73 78 80 80 77 77 80 76 84 89 83 84 68 81 84 80 82 70 69 72 92 93 71
32 24 36 14 17 43 46 42 48 61 77 88 99 96 96 96 86 79 87 88 80 75 81 77 80 85 87 80 89 88 83 86 87 90 83 87 87 77 87 84 84 89 88 64
8 39 25 39 16 29 38 37 47 59 75 76 74 74 81 91 93 87 74 81 79 83 79 73 86 82 93 95 95 87 84 87 75 78 85 85 92 86 86 89 94 87 86 65
8 24 30 32 48 34 36 37 48 66 84 84 79 73 71 71 82 83 80 74 77 83 86 87 89 94 90 96 95 91 90 87 88 82 82 82 82 77 75 89 77 97 59 79
18 4 32 30 35 51 47 39 62 70 74 87 92 79 76 68 69 76 91 87 83 89 86 78 78 87 84 92 98 98 94 96 92 77 68 69 75 68 75 75 76 91 89 93
22 18 4 24 38 39 51 49 54 54 68 76 79 77 76 71 71 75 84 85 86 83 82 80 82 79 74 76 73 85 88 88 99 81 85 75 75 67 71 79 82 85 92 84
26 23 17 4 9 39 39 51 59 57 62 68 78 84 76 73 76 75 80 72 79 80 85 88 91 92 90 92 92 87 87 88 88 81 74 92 74 72 74 80 74 78 82 81
27 27 24 18 10 3 20 48 46 54 61 60 61 76 76 74 76 74 77 77 84 87 86 91 92 94 98 98 99 94 93 95 90 89 91 68 61 67 72 82 60 75 83 77
26 27 28 26 21 18 9 3 23 51 49 57 61 67 74 75 75 75 79 85 84 90 90 92 87 88 94 89 94 98 95 96 99 98 99 89 85 70 74 81 67 77 83 80
24 27 28 28 27 24 21 18 8 3 32 68 85 84 92 95 90 79 79 85 94 94 89 86 85 90 95 94 90 96 98 99 99 99 92 69 59 65 86 80 76 84 75 76
24 26 28 30 30 27 26 22 17 9 6 20 89 98 93 95 94 97 82 84 86 90 93 89 96 100 97 97 94 93 94 97 97 100 98 83 80 84 87 87 83 78 73 75
26 26 26 30 32 32 30 25 20 14 8 7 57 98 96 96 96 94 97 95 85 90 93 90 90 87 95 97 94 98 98 87 85 79 67 71 81 84 85 88 79 74 72 76
28 28 27 29 32 33 29 21 23 22 18 11 12 69 100 100 94 97 100 100 97 90 86 92 93 98 98 95 88 86 94 99 96 97 72 89 88 82 88 88 73 71 75 80
32 31 29 31 32 24 28 33 36 49 58 31 16 20 99 100 100 95 99 96 96 99 97 97 98 98 94 87 84 86 84 96 94 88 74 79 78 92 86 74 74 69 77 78
37 32 30 32 24 37 32 38 64 97 80 34 21 41 82 98 98 99 97 97 98 100 96 92 95 97 97 100 96 67 76 88 89 80 89 99 89 88 80 72 80 70 70 75
43 32 32 26 34 30 46 53 74 72 75 27 23 72 96 98 98 99 99 98 99 98 95 98 98 100 99 97 98 87 99 98 96 92 89 74 75 82 79 71 84 75 69 70
34 31 29 16 19 50 47 62 91 84 45 46 54 95 95 98 97 97 98 97 98 99 97 98 99 99 100 99 98 99 99 100 99 92 98 76 78 78 75 69 81 79 70 69
30 27 14 12 22 27 42 74 86 70 96 90 94 97 97 98 98 98 99 98 97 96 98 99 99 100 98 96 90 98 96 98 99 91 97 99 90 87 75 70 74 82 72 72
35 59 55 42 43 42 51 69 73 78 92 95 96 97 98 98 99 99 98 98 99 96 91 100 100 98 99 93 91 96 91 92 88 98 92 99 94 83 73 73 75 88 82 74
59 79 82 86 91 89 91 75 87 94 96 95 96 99 98 99 97 99 99 98 96 98 100 100 100 97 100 99 100 77 67 79 96 86 85 86 82 85 83 82 84 92 88 92
54 73 75 78 90 88 90 93 98 98 97 97 98 98 98 99 98 96 96 97 96 88 85 97 98 98 99 97 82 53 42 43 82 94 82 87 90 88 85 85 90 97 98 98
30 50 58 66 76 86 90 97 95 100 100 97 98 97 98 98 97 97 91 85 76 82 91 93 100 81 83 54 47 45 48 52 68 87 88 90 83 80 90 94 93 97 100 100
35 30 32 60 74 81 88 99 100 100 100 100 94 98 97 96 94 76 71 74 96 87 94 91 68 74 50 51 49 60 71 86 88 97 100 100 91 94 93 98 98 99 100 100
38 27 47 59 68 74 78 93 100 100 98 97 99 99 100 94 81 81 76 82 85 92 97 63 74 60 58 61 53 72 88 93 97 98 99 98 99 95 98 99 100 99 99 99
52 36 43 53 56 62 69 76 91 100 99 99 99 98 99 97 94 81 78 83 89 79 60 65 74 51 62 67 67 61 57 57 89 92 95 97 97 98 84 95 99 99 99 98
91 56 32 38 47 56 70 89 98 100 98 96 97 97 95 95 94 94 90 93 66 60 59 69 69 55 58 61 60 57 55 57 57 54 82 89 98 96 93 96 97 99 98 98
90 76 66 28 28 24 73 92 100 100 96 97 98 98 91 94 92 100 99 77 59 54 66 74 72 73 71 70 70 69 68 67 65 62 55 59 90 88 94 95 92 96 99 97

GFSNW_700_rhum_021.txt.gz
RH
21 36 9 28 37 51 49 62 73 82 85 83 96 98 100 91 96 83 74 73 67 70 73 79 84 78 81 77 83 87 86 82 84 83 90 84 86 72 68 60 80 92 96 65
10 32 29 17 36 44 50 54 77 78 76 84 85 88 90 89 83 78 78 74 73 66 67 66 74 71 67 85 73 80 85 78 83 87 85 86 88 75 78 85 77 84 85 62
20 15 30 25 28 36 40 41 60 68 70 85 81 76 74 83 84 79 83 79 77 73 75 74 78 83 88 83 86 84 80 76 77 76 77 79 86 75 79 88 86 79 72 58
23 17 30 32 36 31 34 46 65 68 69 70 71 76 86 84 85 75 79 86 76 80 81 74 81 86 88 95 96 90 88 85 86 82 81 84 87 82 80 81 74 92 65 69
25 23 10 32 32 33 34 47 60 65 73 73 78 78 73 80 84 79 70 80 92 83 79 80 78 78 85 93 93 90 88 92 93 74 69 69 69 64 68 74 74 77 73 82
24 26 22 7 21 32 37 35 47 50 61 70 74 76 76 76 78 89 86 86 86 90 82 71 86 89 87 85 77 89 96 92 89 80 88 81 72 60 61 60 67 78 83 79
22 25 27 22 9 9 34 37 43 46 47 56 66 72 73 71 77 78 90 89 91 87 84 82 86 84 87 83 85 90 85 86 89 87 74 92 73 74 74 74 76 83 82 87
22 22 26 28 23 18 6 17 40 41 45 47 48 52 64 77 77 76 72 78 81 84 91 92 93 90 94 86 88 92 92 96 90 90 99 68 56 71 74 75 67 76 85 83
21 24 24 27 29 27 24 20 10 10 34 39 39 46 49 60 73 81 78 82 82 94 94 96 90 77 79 82 90 91 96 98 98 99 97 92 89 78 68 75 78 85 86 78
34 22 24 26 28 30 30 29 26 22 18 5 24 48 63 65 63 76 80 83 87 91 95 96 90 91 90 90 85 96 96 97 98 99 95 70 60 71 70 82 82 88 83 77
64 24 24 25 27 29 31 31 31 28 25 20 10 36 74 75 82 84 82 89 90 90 96 93 86 87 95 99 86 82 88 93 94 99 97 84 79 82 86 85 85 91 79 75
95 37 26 26 27 28 30 32 33 32 28 24 20 9 41 77 98 96 100 95 87 92 92 86 88 88 91 97 89 92 97 84 83 75 68 70 83 80 82 86 92 82 72 75
95 54 31 31 29 29 30 34 33 29 25 19 15 16 23 85 97 100 100 100 100 96 96 97 94 85 84 90 97 96 99 100 97 94 75 76 76 84 89 94 84 78 72 77
96 92 43 34 31 30 31 30 36 38 34 24 11 13 18 56 100 99 98 98 96 99 99 98 96 95 88 88 89 88 91 99 100 98 74 76 82 87 84 82 73 73 74 74
96 94 73 39 32 32 32 32 32 48 72 59 28 28 30 24 94 98 97 99 99 98 98 97 98 97 94 91 92 80 79 85 96 93 87 83 78 94 78 80 78 71 78 71
96 92 34 30 29 14 23 36 32 60 61 69 56 34 34 26 75 93 99 98 99 95 92 95 89 95 98 95 90 78 86 99 100 98 84 87 69 70 80 87 84 70 82 72
94 33 32 24 13 20 34 29 43 73 75 64 53 88 74 45 86 99 99 100 98 98 96 90 92 98 99 95 92 76 86 96 97 99 98 80 89 87 77 76 75 68 83 74
50 42 58 35 16 11 21 41 77 82 91 98 97 96 100 87 97 98 98 98 98 97 97 86 94 96 95 92 72 84 98 99 98 97 99 97 96 92 90 86 78 69 77 77
31 66 80 82 82 65 61 73 87 93 93 95 94 96 98 98 97 98 97 98 93 97 98 97 95 95 90 88 87 93 98 87 87 99 91 94 93 100 91 75 69 70 72 82
32 72 86 88 92 92 97 84 91 100 96 95 98 98 98 98 85 98 97 97 98 97 90 96 97 91 90 97 97 100 85 65 49 51 98 93 88 88 80 80 74 72 74 85
34 36 57 72 64 68 81 87 94 99 98 97 99 98 100 95 88 97 98 97 96 99 96 99 93 86 83 95 89 83 50 48 47 55 94 99 86 95 93 90 82 82 88 93
52 32 32 32 35 75 85 86 93 100 100 99 99 98 94 99 95 97 97 97 90 93 99 98 100 62 58 76 72 51 55 72 76 73 82 94 92 92 87 91 92 92 94 98
78 38 36 34 59 76 84 97 100 100 100 99 99 97 98 98 97 96 93 72 88 90 98 99 67 61 72 56 55 61 93 84 81 78 97 100 99 98 92 93 86 99 97 98
93 45 31 55 66 67 68 84 95 96 100 98 97 97 97 97 96 93 82 90 92 98 99 67 61 68 56 63 63 63 62 61 73 85 98 99 99 97 97 96 96 92 99 100
95 71 34 37 55 58 61 64 71 95 100 97 96 97 98 97 93 83 80 91 96 91 64 54 68 61 61 70 70 68 64 60 58 70 79 98 98 98 97 94 97 98 98 99
96 88 58 33 40 43 48 61 74 95 100 99 94 97 94 91 91 88 96 95 70 62 58 67 75 60 60 67 66 63 65 66 64 65 62 66 96 98 95 95 94 97 98 98
86 81 79 84 77 34 23 29 88 98 95 98 99 95 89 96 92 89 91 72 53 56 59 70 73 69 68 73 72 71 71 71 71 69 68 68 64 64 94 97 86 89 98 97

GFSNW_700_rhum_024.txt.gz
RH
18 19 30 18 44 50 65 77 78 80 92 84 100 100 100 100 90 83 72 70 69 68 77 85 74 89 80 75 84 82 71 75 86 88 89 82 83 76 68 57 72 84 89 54
24 12 28 24 29 39 43 64 78 81 75 100 100 90 90 90 78 74 69 68 70 71 74 76 80 77 76 76 84 84 76 75 83 97 87 90 90 82 81 71 67 74 75 51
22 22 13 32 33 31 32 38 58 69 74 94 96 93 90 84 85 76 72 71 71 72 72 66 72 68 68 70 77 86 82 75 71 74 79 82 89 80 78 83 85 72 60 46
28 25 18 16 34 36 35 55 55 56 63 73 78 88 94 87 78 82 89 87 79 75 76 73 73 79 86 84 82 87 89 83 79 78 82 88 86 84 82 83 68 67 56 59
60 23 25 15 11 35 38 43 62 65 66 64 69 77 84 85 79 78 75 80 86 80 74 72 75 74 83 83 94 94 96 87 89 79 77 77 74 69 80 82 78 67 60 69
90 22 25 24 16 11 37 41 44 46 51 64 68 70 71 74 79 77 79 88 91 88 85 75 76 84 88 88 84 87 94 94 86 82 76 83 68 58 59 50 49 55 68 83
97 37 23 27 26 19 9 34 44 43 45 50 60 66 70 71 71 79 88 90 90 89 88 81 90 90 84 92 86 94 89 93 84 82 72 85 64 75 75 65 71 78 81 94
96 80 21 24 28 29 24 15 11 30 43 51 54 54 58 66 68 75 78 86 88 88 92 90 93 91 94 88 83 84 91 96 91 87 99 63 51 72 77 74 76 84 90 89
96 97 25 22 24 27 30 30 27 20 12 11 36 49 62 63 69 71 72 79 82 86 96 96 90 76 82 82 84 88 95 97 98 99 86 94 81 79 72 75 88 87 86 86
98 96 52 25 23 22 25 28 31 31 29 24 17 8 45 63 69 73 71 75 84 85 99 98 91 84 87 86 85 92 94 99 99 97 93 70 63 84 73 80 85 88 90 82
97 96 96 71 25 25 26 25 27 28 32 33 31 26 18 36 90 92 81 85 86 94 100 100 91 85 86 90 86 78 77 81 100 97 99 80 67 70 81 92 89 89 84 77
96 97 96 96 58 29 29 29 29 31 33 35 34 33 28 15 74 100 100 98 80 82 91 89 89 84 86 89 99 85 90 82 80 73 68 67 89 86 87 91 90 90 74 76
95 96 97 96 92 58 34 32 32 33 36 38 35 25 24 27 16 97 98 98 100 96 88 96 94 88 90 88 89 89 98 92 96 90 75 75 77 79 84 95 89 88 75 77
95 95 96 96 95 94 91 40 33 32 28 18 7 11 12 19 24 50 100 100 98 97 100 97 98 94 86 87 87 87 86 86 88 93 94 80 83 85 92 89 83 82 79 79
95 96 96 96 95 75 35 24 14 18 30 18 18 30 21 12 27 22 94 96 98 96 100 96 95 95 93 90 89 81 78 74 83 90 88 87 67 74 96 82 85 85 86 76
95 96 96 88 43 33 15 13 23 34 51 61 67 65 48 31 34 32 64 95 94 98 99 97 93 90 95 89 99 72 79 84 83 79 87 84 82 78 84 80 87 85 84 73
96 96 69 62 45 14 17 43 57 73 87 92 82 90 97 55 34 32 68 100 96 97 98 95 93 88 89 89 88 67 74 80 94 93 95 97 99 87 85 83 75 75 77 72
96 72 58 83 89 38 41 65 78 93 100 100 94 96 97 55 45 62 97 98 98 99 98 91 93 95 90 86 65 66 72 82 98 100 100 90 93 99 99 99 90 86 82 72
96 56 70 85 88 79 84 86 87 95 97 98 98 100 82 78 68 98 96 98 98 97 98 100 99 96 82 72 70 69 79 83 82 88 84 91 91 88 98 99 92 83 78 74
95 40 47 77 82 63 58 80 92 92 97 96 99 98 97 97 98 98 98 98 94 94 96 95 95 85 77 71 73 74 73 70 55 42 49 54 83 94 96 97 94 89 79 72
96 81 38 33 35 38 65 88 96 98 99 98 97 98 98 98 97 92 92 95 89 88 92 94 99 80 64 68 68 63 62 50 49 56 59 68 80 96 91 97 93 98 87 85
96 95 62 39 35 39 82 93 90 100 98 98 99 99 99 99 99 96 92 99 92 94 95 99 87 67 65 61 56 64 49 57 88 85 71 72 83 88 94 100 100 97 90 94
92 95 74 37 45 67 83 94 97 93 98 96 100 99 100 99 93 93 95 90 94 90 98 98 78 70 62 67 65 54 78 92 89 75 75 100 100 100 100 100 94 93 92 94
89 91 74 46 62 75 81 86 85 97 92 93 91 96 97 98 97 93 90 92 89 100 100 81 64 67 80 62 62 65 62 60 63 74 74 96 98 99 99 98 98 98 98 90
92 86 74 45 45 62 62 65 73 78 95 98 96 94 96 97 97 95 92 97 100 94 68 60 58 76 65 71 74 72 66 63 64 63 64 68 82 98 98 97 97 95 94 100
86 80 78 68 57 55 63 34 31 72 89 100 96 98 97 96 97 96 100 94 74 62 61 61 74 78 66 74 75 73 74 73 72 71 70 70 70 65 73 86 89 92 97 98
78 74 78 84 87 93 93 91 31 44 98 100 99 97 99 96 98 91 91 76 66 70 65 64 81 80 68 71 75 79 79 78 76 71 68 65 62 64 68 62 58 82 91 94

GFSNW_700_rhum_027.txt.gz
RH
73 24 14 29 26 34 40 62 71 79 85 96 87 93 90 98 89 79 67 66 71 70 82 75 84 80 73 81 80 78 74 73 98 100 92 87 81 80 70 55 68 75 78 43
67 33 23 17 28 24 30 34 64 70 78 97 100 99 99 93 84 76 67 67 71 66 69 74 80 82 86 78 80 81 70 70 90 100 91 88 86 78 76 65 57 61 63 45
66 73 24 16 24 28 26 42 53 70 68 72 81 86 86 82 81 77 74 73 70 66 71 66 70 76 75 76 78 90 79 67 61 59 67 72 80 72 77 77 76 68 50 43
73 74 30 24 12 30 30 51 60 58 74 75 74 78 86 84 75 80 84 86 76 72 68 68 67 71 72 72 75 89 86 77 74 71 75 76 78 78 73 72 67 64 52 50
76 79 61 25 23 10 30 35 54 64 68 70 73 74 77 78 78 70 81 88 80 83 75 69 75 71 75 72 79 90 93 87 82 75 72 74 73 72 74 76 73 70 64 60
75 76 89 23 26 19 16 36 35 51 48 64 71 72 69 71 75 78 76 90 91 89 83 80 81 86 84 84 80 86 89 87 83 79 76 76 72 60 59 54 53 54 61 73
74 82 98 40 25 28 21 11 31 41 40 48 62 68 73 72 69 77 82 85 85 87 89 83 89 94 95 92 86 90 86 91 85 85 78 86 67 77 79 73 55 59 76 89
76 86 97 60 25 24 28 27 19 14 21 42 54 60 61 67 70 72 79 84 88 84 90 87 90 91 92 94 91 94 90 90 90 91 96 62 48 70 78 76 76 82 88 86
92 93 96 42 47 22 24 28 30 28 25 17 15 40 58 63 66 73 76 81 84 83 93 93 88 78 83 90 84 84 89 97 94 95 87 86 80 79 78 79 96 90 88 87
99 98 96 95 35 47 24 24 26 29 30 30 27 21 14 42 69 68 68 79 87 87 94 97 92 82 78 84 90 99 100 100 100 94 81 76 72 81 80 81 93 92 86 86
99 97 96 96 95 88 58 27 26 26 27 29 31 32 32 29 22 96 85 87 90 97 100 97 96 89 84 87 86 94 84 83 99 99 97 86 57 63 79 93 95 88 90 77
97 96 96 96 95 95 95 63 30 31 32 33 34 36 35 34 24 23 96 96 82 89 96 95 96 85 86 87 96 87 88 75 81 77 69 68 82 92 88 89 90 87 89 76
97 96 96 97 96 96 95 96 96 91 81 62 45 34 32 32 36 35 34 82 92 93 97 100 97 92 84 82 81 85 87 82 86 80 68 70 82 83 86 89 83 88 87 80
97 96 96 96 96 95 95 96 93 70 35 28 12 9 20 18 14 16 31 66 98 99 93 96 96 94 87 85 81 79 84 87 86 81 77 80 85 85 88 90 85 85 83 82
97 97 96 96 96 94 90 50 22 13 19 16 32 47 47 50 41 19 22 39 98 99 98 99 97 93 93 89 86 82 76 72 78 79 84 84 80 80 83 81 80 83 77 80
96 96 96 96 93 76 20 17 30 40 56 63 66 72 81 84 69 50 31 34 86 96 98 100 99 93 92 91 84 69 69 70 68 78 82 79 88 94 78 74 72 82 83 84
96 96 95 93 92 78 42 50 68 82 87 90 73 78 87 42 48 47 41 36 57 97 97 98 99 93 93 93 80 67 70 72 69 72 85 84 90 96 98 89 85 79 77 80
95 96 95 84 83 86 82 80 86 94 96 84 82 88 96 98 64 46 60 45 44 97 95 98 98 98 98 88 66 62 60 62 64 70 69 78 77 93 97 99 97 96 91 87
95 95 95 66 81 76 54 52 78 95 94 85 91 95 87 96 96 98 78 51 92 97 95 98 100 93 90 71 61 69 67 70 70 71 78 74 54 48 80 90 99 99 97 93
94 95 95 48 39 39 41 46 84 92 90 92 96 97 97 91 96 98 95 96 94 92 98 99 100 88 76 70 65 68 67 65 68 69 65 50 50 62 79 87 94 99 99 92
92 92 95 87 49 41 35 77 93 96 96 95 97 98 98 99 98 99 97 99 97 98 98 98 98 66 58 61 63 68 69 59 59 50 68 68 62 68 76 92 98 94 97 92
88 88 85 94 85 34 65 97 100 100 97 96 96 98 98 98 99 97 92 100 92 95 100 99 98 60 62 60 62 55 60 57 50 80 82 70 70 79 84 89 99 99 100 93
77 74 85 66 49 56 84 100 100 100 100 96 96 97 94 97 96 96 98 95 99 99 100 97 82 63 67 72 69 63 53 74 86 86 74 79 96 99 100 100 100 100 100 95
76 80 81 80 68 86 78 78 88 96 94 96 96 97 98 97 97 97 96 94 86 98 100 72 59 60 73 72 66 66 68 62 63 65 68 72 93 99 99 99 99 98 98 96
78 76 82 67 85 83 73 59 58 41 43 70 89 94 97 96 98 97 97 92 100 92 68 69 65 60 77 69 74 76 71 70 68 68 68 69 80 89 90 95 97 96 90 83
70 76 80 82 82 89 94 90 86 79 53 65 92 96 98 97 96 95 100 93 78 73 64 60 62 74 75 76 82 76 75 75 73 71 70 65 64 67 71 69 62 69 86 90
73 71 75 79 79 81 85 90 90 95 86 58 98 97 98 97 99 97 98 82 81 84 77 70 69 81 73 76 81 82 82 81 78 74 70 66 64 63 60 54 50 56 60 66

GFSNW_700_rhum_030.txt.gz
RH
70 68 66 19 20 21 28 33 59 56 59 72 88 100 100 98 85 76 70 71 77 74 80 88 88 79 72 77 78 77 69 70 100 100 91 90 85 75 61 55 73 69 67 36
72 70 71 27 14 25 25 33 50 58 60 64 78 91 96 94 82 73 68 68 69 67 76 76 85 79 78 76 74 72 69 69 97 99 90 88 89 81 76 67 52 64 51 39
80 73 70 49 22 22 28 44 51 63 60 57 66 76 79 74 70 70 69 71 69 68 74 65 76 76 79 76 74 82 74 59 58 59 63 68 77 66 71 74 66 64 53 50
80 76 70 70 24 12 30 49 58 56 70 69 71 72 71 71 68 72 72 78 72 70 68 65 67 72 72 73 75 78 85 73 66 63 64 72 75 70 67 69 64 62 54 46
80 76 70 80 24 22 20 38 54 61 64 64 68 69 74 78 72 68 75 85 78 76 73 69 71 64 64 69 72 85 88 79 73 70 70 72 68 68 71 72 70 65 53 46
78 75 70 85 26 26 17 33 44 55 47 61 67 68 68 69 73 75 78 84 85 84 75 76 75 80 81 82 77 77 94 88 78 83 77 76 67 50 56 54 54 52 56 57
76 73 79 89 61 23 27 19 21 44 47 44 50 64 68 70 70 79 84 89 86 84 77 74 79 84 90 89 88 89 88 86 81 90 79 78 53 71 75 67 60 48 49 75
80 79 86 92 84 35 22 28 24 18 21 39 49 52 58 66 71 74 86 88 90 91 91 86 87 89 92 88 90 92 85 89 85 96 87 65 56 72 75 69 59 56 74 78
77 85 88 92 48 73 35 22 25 29 26 21 15 38 54 56 62 67 74 87 93 94 96 93 95 81 85 94 86 91 92 91 92 100 86 59 71 70 80 81 95 81 82 80
86 90 92 92 92 57 90 49 24 24 28 29 29 27 19 28 51 62 64 76 87 94 97 98 95 87 75 92 90 97 95 92 98 90 84 74 77 84 77 87 87 87 83 80
91 92 92 89 90 94 96 95 92 38 26 27 28 29 30 30 28 21 52 76 87 99 100 94 86 95 84 83 81 99 97 99 96 100 95 85 61 80 84 83 87 89 82 80
87 94 95 93 93 93 87 93 96 81 54 32 34 31 33 33 33 31 33 51 75 84 100 94 93 93 87 90 95 88 97 77 87 74 79 62 67 66 71 88 92 88 87 83
83 86 92 93 95 96 96 87 94 93 87 84 79 70 58 46 46 43 42 35 55 90 94 100 97 94 83 82 89 82 82 80 79 73 63 68 81 84 76 81 84 86 86 87
84 88 92 93 94 97 96 97 95 94 77 54 40 46 32 25 20 17 20 32 49 84 100 96 98 94 84 81 77 71 72 79 78 73 70 73 75 78 81 80 82 83 78 76
86 87 91 93 96 92 68 60 47 35 37 29 46 50 48 52 54 56 52 23 37 94 90 98 99 94 90 85 83 74 66 65 72 75 70 72 77 78 77 83 84 84 82 82
89 90 90 94 93 94 67 42 65 78 86 77 66 64 64 50 46 43 58 60 33 67 96 96 98 88 88 89 82 66 66 67 71 76 76 76 78 79 76 74 71 70 70 73
90 91 90 95 85 95 95 88 82 92 97 87 62 69 67 61 74 41 38 92 44 47 62 95 97 97 100 98 80 69 67 64 67 71 71 71 76 80 84 91 96 89 79 74
87 90 92 94 88 95 71 46 46 86 90 78 76 83 81 82 93 85 57 52 51 55 47 85 95 98 95 96 69 72 70 65 66 70 68 68 61 66 84 91 94 97 96 96
84 87 91 93 88 63 40 38 60 94 88 87 94 96 92 91 100 98 90 64 51 65 82 88 97 98 98 80 73 67 62 60 64 72 72 71 67 50 49 50 63 87 96 100
76 78 80 92 92 56 63 48 83 93 96 96 98 96 97 97 98 93 97 79 82 58 76 93 94 96 76 69 66 67 65 64 67 72 76 68 62 48 50 63 77 84 90 99
67 69 74 84 95 92 48 79 87 93 97 98 96 96 97 99 97 98 96 97 95 98 97 96 94 84 70 69 68 70 69 72 72 68 67 65 77 72 67 65 65 79 97 100
62 60 72 78 71 40 75 95 97 99 98 99 96 94 97 99 100 99 100 98 98 97 97 94 89 60 61 61 65 68 69 65 64 62 53 85 72 66 63 84 83 97 100 100
55 57 75 72 71 90 96 94 97 97 96 94 91 94 96 97 100 97 97 100 100 100 98 98 80 70 66 68 68 69 66 59 55 78 90 71 75 83 97 97 99 99 100 98
58 61 72 79 91 93 94 93 80 78 72 59 52 73 94 96 98 100 100 98 98 100 100 85 71 66 67 76 82 77 68 81 71 71 69 76 75 93 98 98 98 99 99 99
60 61 73 67 76 83 86 86 90 89 85 74 53 74 87 95 96 95 96 96 100 97 73 74 68 63 71 79 70 76 72 71 74 76 75 80 81 88 91 94 93 92 96 95
57 65 59 64 64 72 77 79 81 84 87 77 68 90 98 97 97 97 100 99 80 74 71 69 64 65 81 77 81 80 80 82 84 83 78 86 88 84 70 63 62 62 60 64
42 49 54 55 65 70 76 78 82 84 89 92 88 94 100 95 97 96 100 91 88 89 86 79 72 76 77 81 87 86 93 95 92 84 80 78 73 68 62 52 46 48 50 46

GFSNW_700_rhum_033.txt.gz
RH
68 65 63 62 52 14 22 28 57 62 55 63 60 92 97 97 81 71 74 79 95 87 90 86 82 78 90 75 75 82 68 98 99 98 92 86 89 78 71 57 67 55 56 41
66 64 64 63 61 17 25 30 52 58 63 92 70 71 85 84 77 72 69 69 68 68 89 85 92 75 67 78 78 83 68 81 98 98 93 84 85 77 72 70 58 76 48 42
56 64 66 67 65 26 19 32 53 62 60 55 86 63 67 69 63 60 62 63 67 78 85 74 86 75 68 66 63 66 70 70 77 64 72 80 82 80 78 74 76 56 45 49
54 64 65 64 70 31 15 35 61 60 70 72 72 66 61 65 71 68 70 78 70 80 79 78 84 79 71 71 67 68 79 70 56 57 60 66 69 86 84 77 65 58 47 46
57 63 64 65 75 34 18 28 56 67 66 68 72 76 74 71 69 67 83 90 85 73 77 72 78 78 83 71 65 64 72 77 69 62 58 59 56 63 88 77 63 70 63 56
54 64 68 67 78 38 25 16 48 67 69 73 77 88 69 71 72 71 74 86 96 93 86 70 67 80 84 83 73 78 95 88 74 86 72 72 70 37 44 52 50 59 72 45
55 54 68 72 80 51 24 25 21 49 67 62 74 69 70 69 72 75 80 85 92 88 83 76 75 79 79 82 85 92 99 92 84 96 85 82 61 49 57 52 60 48 46 53
63 63 72 78 82 80 35 24 26 22 26 46 53 55 68 75 72 76 80 86 87 87 90 100 98 97 95 92 86 87 93 93 94 92 74 63 53 57 66 70 69 40 37 48
73 75 75 76 81 76 82 70 23 26 26 26 23 28 54 68 75 73 76 81 87 91 90 97 84 75 71 90 97 88 86 93 90 87 74 58 71 58 74 76 86 46 50 73
74 82 82 77 79 87 84 92 95 38 26 26 28 27 22 32 66 74 69 70 88 92 95 99 85 73 76 76 88 99 100 95 92 85 76 68 66 68 81 85 88 76 77 79
74 79 82 79 77 74 77 82 91 90 79 31 27 28 28 26 22 23 69 70 72 83 95 99 94 81 82 77 84 91 92 93 90 85 82 78 58 80 79 81 81 84 83 79
75 76 85 88 86 84 76 72 76 82 84 87 57 30 30 31 31 32 31 39 73 99 81 89 95 83 88 86 76 88 86 82 77 79 77 70 58 79 79 80 78 80 84 80
81 78 82 86 87 89 87 80 85 80 74 85 88 75 50 46 56 63 50 36 37 80 94 99 99 96 92 86 85 96 84 80 77 81 62 65 68 62 62 74 76 87 86 83
80 84 90 90 89 93 92 79 52 76 83 88 94 88 91 91 93 90 82 53 57 54 56 100 99 92 93 88 81 90 88 82 68 68 67 69 70 72 77 74 75 78 82 84
79 86 86 90 95 92 92 47 50 60 83 67 51 50 45 53 50 52 52 50 46 31 38 86 98 92 99 90 84 84 72 66 65 75 79 74 86 82 74 76 76 76 74 75
76 85 89 93 92 91 96 95 94 87 95 86 72 71 65 41 44 56 61 45 38 62 37 44 79 99 98 97 90 79 80 62 70 85 70 72 70 74 78 78 74 70 67 66
66 76 86 94 90 92 94 84 60 47 91 84 69 69 74 78 81 77 79 58 41 64 78 60 62 74 98 98 94 90 62 58 59 69 70 73 69 64 68 70 76 80 88 86
61 64 74 90 90 92 93 90 54 77 91 85 88 95 94 95 96 84 80 52 48 73 89 67 41 62 94 97 78 76 68 71 71 69 68 66 66 64 58 63 70 71 78 87
57 58 61 75 93 92 82 70 58 93 91 96 96 96 98 98 100 97 91 78 73 52 68 44 86 100 94 95 86 72 75 71 68 66 67 67 65 64 66 60 48 54 55 72
46 49 50 63 80 96 92 63 82 94 97 96 96 96 98 97 99 97 95 99 98 73 64 92 92 61 74 94 87 81 72 69 68 64 73 78 75 67 60 53 47 53 67 77
34 41 50 65 80 83 44 85 95 95 96 96 96 98 96 98 96 97 96 96 94 96 91 82 70 64 72 96 93 84 72 72 72 74 74 71 65 68 73 69 64 57 61 70
17 34 50 62 59 67 92 95 95 96 96 85 76 70 83 93 98 98 98 98 97 97 97 97 97 83 80 78 82 79 76 74 76 78 78 69 75 81 65 54 61 71 76 90
12 32 59 66 70 77 74 83 93 93 87 82 70 59 63 95 97 97 98 99 99 98 100 94 97 87 78 75 74 72 70 72 70 67 64 86 82 78 77 98 97 96 99 98
9 27 60 67 65 63 66 74 75 79 82 82 77 68 63 82 95 98 97 97 97 95 95 94 75 73 72 72 77 77 74 69 64 84 93 82 80 85 90 94 98 98 99 99
13 21 58 61 60 66 66 67 68 70 73 73 75 73 62 80 94 97 96 98 99 100 82 84 78 72 68 78 84 84 74 79 78 75 80 82 87 83 81 86 89 93 90 88
17 19 27 31 43 64 74 74 71 68 69 75 81 85 76 93 98 98 97 97 98 94 88 93 89 79 77 87 80 84 83 81 83 84 82 84 91 80 75 74 70 57 53 54
24 23 25 33 34 56 73 73 74 70 67 74 85 92 93 88 97 95 97 92 91 92 92 88 93 90 83 83 90 90 91 92 93 96 96 91 89 81 74 73 63 50 34 25

GFSNW_700_rhum_036.txt.gz
RH
37 36 42 52 56 59 17 24 45 59 68 86 70 59 66 67 68 68 74 81 87 84 85 76 77 82 86 79 79 80 79 97 98 98 96 99 97 92 86 85 71 53 54 49
39 37 43 53 59 61 21 29 46 62 73 99 82 65 67 63 60 61 64 73 66 78 82 77 84 86 69 77 81 78 68 84 95 97 97 98 93 89 91 86 65 62 66 49
43 39 43 54 61 64 30 25 54 63 67 99 98 94 92 82 65 64 69 66 63 70 77 76 84 75 68 73 61 63 65 70 82 76 76 76 82 75 74 72 62 57 48 51
46 44 44 53 59 67 35 19 54 60 92 73 86 96 94 99 99 76 76 84 84 80 78 77 83 83 69 70 60 63 70 67 60 63 53 58 62 78 81 76 62 58 52 48
51 49 47 51 63 70 37 16 36 64 65 77 75 82 100 97 86 73 96 91 92 82 76 71 75 66 62 61 61 66 70 76 69 60 54 53 51 58 83 85 72 68 56 47
52 52 52 55 66 77 41 24 22 56 77 80 81 98 97 93 76 79 81 90 91 91 88 76 78 86 81 75 57 62 71 71 70 88 82 70 61 30 39 53 44 44 58 43
55 56 60 64 68 78 62 26 22 37 92 90 100 94 81 73 77 87 82 85 85 85 84 79 78 75 85 83 77 78 88 89 83 84 79 95 47 53 43 33 37 43 46 50
56 58 63 66 65 72 73 63 50 24 24 59 72 57 67 80 80 81 81 78 81 85 83 86 90 90 93 94 90 84 95 87 85 86 84 54 46 46 51 61 55 50 40 50
58 61 64 64 66 66 78 80 91 60 27 27 27 28 46 61 85 100 83 82 84 87 85 93 87 91 74 84 90 88 92 93 90 86 79 75 66 62 59 73 70 62 47 46
59 63 64 66 67 68 70 76 80 90 92 33 25 26 25 25 50 74 99 74 82 88 87 88 83 80 73 74 78 94 94 92 93 82 79 71 64 60 74 86 79 59 39 43
60 64 68 68 69 68 70 72 75 78 85 95 65 30 29 28 22 42 72 66 70 76 93 92 76 76 84 76 73 85 80 83 82 83 87 83 64 64 86 82 83 81 76 79
64 65 72 75 73 73 72 73 76 72 71 76 89 81 59 28 27 26 27 39 97 100 93 96 95 90 78 80 81 80 87 75 79 70 70 72 71 70 80 84 81 81 86 85
62 67 73 76 73 82 81 80 77 58 54 63 76 92 92 41 33 38 41 43 35 59 88 100 95 93 81 81 78 84 85 83 83 78 65 73 60 62 59 76 79 77 82 87
59 64 74 79 80 78 78 91 49 62 74 78 82 96 95 96 79 62 67 71 75 72 46 66 99 95 92 84 81 82 84 83 75 68 65 68 61 60 65 65 66 70 71 81
54 56 70 80 83 77 87 88 94 76 86 94 92 93 94 90 85 64 54 42 41 39 40 43 54 71 84 85 87 79 78 81 86 71 78 74 77 81 71 65 72 77 78 77
50 51 59 73 80 77 91 86 87 68 75 83 78 84 78 60 57 62 56 56 58 60 55 45 49 50 68 98 83 68 63 70 71 66 93 90 78 77 78 73 71 75 74 70
43 46 50 59 80 84 88 89 88 82 84 69 68 75 82 88 84 85 76 76 46 30 28 24 32 45 55 73 98 90 88 72 90 82 72 75 75 71 76 72 68 67 64 66
38 39 40 48 69 81 84 85 78 80 83 82 88 90 87 88 89 85 88 86 78 64 48 36 40 81 80 94 78 95 98 96 83 75 73 73 73 74 66 65 55 54 54 54
15 21 24 40 61 78 84 86 66 90 89 90 92 91 94 92 92 91 98 91 84 84 84 67 59 69 98 65 40 84 98 98 87 70 75 74 73 71 70 64 57 56 47 50
8 14 22 42 49 58 64 61 94 94 95 94 85 79 80 87 97 97 98 99 97 97 96 75 80 80 78 69 58 69 98 93 93 81 69 70 72 73 72 68 59 52 53 53
9 9 24 37 54 56 73 82 89 94 93 85 82 76 69 67 94 99 97 98 97 97 97 88 98 97 58 60 88 95 98 98 95 82 77 78 78 76 67 61 55 54 52 54
10 10 17 48 56 60 60 71 83 93 93 91 92 91 72 70 98 97 98 99 99 97 97 97 99 98 98 98 97 96 97 96 91 87 86 87 86 80 77 69 60 53 59 66
10 10 20 46 45 44 48 59 69 76 80 78 76 71 70 65 84 94 97 98 96 98 97 97 97 95 92 95 86 89 96 96 95 93 91 88 94 90 81 70 64 71 84 92
14 11 20 20 29 31 41 46 61 66 70 64 63 62 71 69 72 96 97 98 95 96 96 97 98 100 89 87 91 92 87 89 91 87 75 92 86 85 83 81 86 93 100 99
19 15 14 19 18 21 29 41 48 56 63 60 53 55 68 72 76 95 96 97 96 96 98 97 96 99 92 90 98 100 96 86 76 80 98 96 92 79 76 80 87 82 71 83
26 18 18 22 22 29 40 50 50 51 58 63 58 72 85 90 98 98 97 97 97 98 97 97 96 97 94 99 100 95 94 95 92 98 98 97 96 89 81 81 87 90 89 72
28 22 25 29 30 35 34 47 51 52 53 56 60 73 84 79 90 95 97 98 98 97 96 97 97 96 97 96 96 97 97 96 96 96 95 96 96 94 91 84 80 81 75 48

GFSNW_700_rhum_039.txt.gz
RH
41 40 38 36 47 55 52 22 41 60 64 72 57 64 64 58 59 64 71 81 86 84 76 79 77 85 84 88 97 97 98 93 99 98 99 98 98 95 83 76 74 61 60 49
41 40 42 42 49 58 50 25 52 66 84 87 72 65 68 64 64 63 60 64 71 80 82 79 79 79 78 80 84 85 80 89 96 98 96 99 96 89 83 78 70 64 62 48
42 42 43 42 50 60 57 21 53 73 76 98 90 86 80 76 72 66 64 62 63 77 76 81 84 73 70 75 70 70 68 76 77 73 73 76 96 85 86 94 96 74 67 53
34 39 41 41 48 60 62 21 54 77 96 100 96 94 90 91 95 78 69 68 73 79 80 75 77 82 68 68 64 63 66 63 78 72 69 76 75 79 88 88 86 80 57 51
35 42 43 42 52 59 54 30 37 76 76 91 90 91 87 94 96 93 90 96 85 82 84 80 77 72 64 65 67 66 66 68 62 60 56 54 55 60 75 81 78 75 58 53
44 46 46 45 51 58 69 36 21 66 99 99 99 94 94 98 83 85 98 95 87 82 88 82 82 83 82 74 66 64 62 64 70 74 77 74 61 35 39 40 53 60 70 55
42 48 48 50 54 54 62 64 29 35 89 100 92 96 99 88 86 94 85 89 91 84 86 78 77 80 85 82 78 74 70 77 72 84 84 94 37 47 49 43 33 38 44 56
41 48 52 54 58 57 58 67 75 62 28 80 92 97 87 87 82 84 84 86 86 89 86 77 76 76 86 87 87 90 92 88 82 82 86 53 44 45 48 48 44 36 35 51
42 48 56 61 62 62 64 60 64 77 81 37 35 35 50 62 84 99 92 83 88 88 88 91 76 70 71 81 91 94 99 94 86 82 87 86 68 63 57 59 57 59 56 44
43 52 56 63 65 64 65 65 65 67 78 86 40 27 28 32 54 82 87 76 86 82 84 88 84 72 82 78 79 87 95 98 97 79 86 74 67 67 62 80 72 73 52 58
43 50 57 62 63 62 70 70 70 69 67 72 87 70 34 29 26 33 82 84 88 95 96 91 78 74 70 77 73 76 73 82 86 88 84 81 59 69 76 81 80 73 42 50
36 36 46 62 70 72 68 71 72 62 56 58 62 78 82 51 34 26 36 70 98 98 100 100 95 85 85 81 81 78 78 68 68 65 62 65 66 68 64 77 87 87 86 83
26 32 39 60 73 75 73 82 80 77 77 62 68 73 85 94 59 32 36 32 31 52 86 92 91 89 94 90 79 77 77 82 80 77 67 71 70 70 68 63 83 83 89 92
12 28 42 54 70 72 80 85 82 78 79 84 86 84 95 95 93 41 44 47 53 56 63 55 60 76 68 80 83 81 84 87 83 83 74 67 65 61 63 68 65 71 78 81
21 30 35 43 64 74 80 86 86 95 84 89 94 96 96 94 95 96 82 77 87 74 43 39 45 60 63 56 62 83 78 87 95 92 81 69 65 70 67 66 71 75 75 74
9 16 26 40 59 76 77 80 86 88 81 91 88 87 96 96 96 90 69 54 55 59 36 29 22 20 41 52 40 30 44 65 77 88 93 82 84 76 76 78 80 82 80 76
6 7 13 34 55 73 82 82 79 82 76 73 90 96 95 89 88 83 78 73 71 73 72 60 54 49 40 35 29 30 80 76 76 86 98 74 66 92 88 84 79 76 74 73
6 6 12 32 48 67 81 78 76 83 80 86 93 94 94 84 84 76 77 76 75 74 76 70 72 51 43 36 32 29 68 99 100 84 91 95 89 90 84 80 77 66 59 56
6 5 12 34 48 53 65 78 86 88 80 84 81 82 80 71 72 78 76 75 78 80 78 81 74 66 67 83 52 73 51 90 98 98 98 98 88 83 79 79 72 66 58 58
6 6 7 34 44 47 46 53 74 82 80 76 84 82 75 66 79 92 88 85 91 93 85 93 86 80 96 44 80 98 60 91 96 97 95 98 88 89 86 76 68 61 59 55
7 7 9 24 34 32 44 49 59 64 72 60 62 67 67 69 78 94 97 90 96 100 98 97 99 97 96 84 51 50 60 90 96 98 97 93 90 92 88 80 72 63 56 51
10 9 8 15 21 21 26 28 40 57 50 50 46 52 55 63 64 80 98 97 97 93 100 97 96 98 95 96 96 97 94 98 98 97 97 97 97 94 85 77 68 62 56 52
13 12 10 13 18 14 11 21 33 43 48 51 46 41 41 60 73 71 99 99 96 98 98 98 93 96 98 87 98 97 95 97 97 97 97 97 99 99 88 83 78 74 70 76
21 17 13 12 14 14 15 19 26 38 37 39 46 35 40 59 75 95 99 98 100 97 97 98 96 96 97 87 79 92 97 97 98 98 98 98 100 97 86 86 80 78 76 90
29 28 15 16 22 20 24 26 28 37 39 36 33 28 31 62 85 92 96 97 96 97 97 98 96 96 98 97 97 100 99 98 100 99 93 95 99 96 86 85 92 86 74 73
38 39 24 20 23 29 33 34 38 44 41 43 36 39 44 67 56 87 91 96 97 94 92 95 93 83 88 97 98 94 95 98 99 99 100 99 98 97 95 89 87 83 88 88
39 44 33 27 29 34 38 39 44 53 62 66 60 54 50 39 49 57 62 68 57 54 57 64 69 79 74 94 97 97 96 95 95 97 97 96 96 97 95 92 92 90 88 76

GFSNW_700_rhum_042.txt.gz
RH
32 31 35 33 34 44 53 30 40 66 87 65 63 62 65 68 68 75 82 76 75 75 79 78 80 87 90 96 92 92 88 82 100 98 99 100 91 88 83 83 92 73 67 53
22 27 33 31 31 44 56 26 42 67 85 88 72 65 68 71 65 66 71 77 78 81 81 76 79 85 86 99 99 96 87 94 98 99 99 98 99 96 86 87 88 73 69 48
17 28 32 32 32 41 54 40 35 71 98 90 86 82 82 84 76 67 64 64 71 83 83 79 77 76 88 90 85 87 82 82 82 73 70 77 94 92 98 93 91 76 69 59
30 33 34 32 32 42 56 39 35 76 92 93 90 90 88 90 92 80 72 72 79 80 80 76 76 76 76 85 84 81 78 72 78 75 70 75 76 74 87 94 84 85 65 70
34 34 32 31 34 36 54 44 32 78 80 99 92 93 84 82 96 84 86 85 86 81 81 77 78 75 72 73 70 64 68 63 64 77 74 66 77 81 87 89 85 78 77 85
37 35 34 35 36 38 43 53 27 72 98 100 97 92 96 88 97 92 90 92 90 89 85 82 81 81 77 72 70 68 68 65 67 70 67 70 66 46 47 58 74 68 85 58
37 38 36 36 36 40 45 52 53 35 87 100 98 94 91 96 92 92 88 87 86 82 86 84 82 82 81 82 80 73 68 67 69 76 90 89 43 46 46 45 34 36 40 50
37 42 41 40 40 42 45 48 51 68 40 87 95 91 98 97 91 92 93 93 91 91 88 82 79 80 82 81 84 87 88 91 82 83 93 56 39 49 52 50 43 47 40 32
35 39 40 40 44 46 48 51 52 57 75 56 34 76 83 86 99 97 97 90 92 91 92 90 85 76 71 77 87 98 98 98 94 95 88 88 74 69 62 63 55 45 47 31
31 30 33 37 45 50 52 54 56 59 67 78 74 36 31 45 85 100 100 94 89 86 86 91 86 76 84 85 82 82 91 91 92 85 91 71 54 62 66 78 65 80 69 58
20 26 27 35 48 52 54 58 62 62 60 64 69 82 48 32 34 75 94 81 80 97 96 97 84 80 74 79 77 76 74 76 88 91 96 82 56 61 66 73 80 80 50 50
6 18 28 36 49 50 55 65 67 69 65 61 59 67 79 79 41 30 66 84 65 77 99 93 95 86 85 82 82 77 81 72 65 65 61 63 70 66 68 63 79 86 73 60
9 24 27 34 49 53 61 72 77 83 71 72 72 74 70 84 82 46 32 32 53 60 66 89 91 89 94 94 88 85 82 79 80 79 62 60 65 64 65 67 71 86 89 92
5 10 13 30 48 57 66 75 77 74 75 87 92 88 94 97 95 87 46 37 44 43 49 55 55 60 61 59 65 71 72 83 83 81 79 78 72 70 69 66 68 75 85 83
6 8 12 26 46 61 67 73 73 75 72 78 85 90 93 95 93 92 94 52 56 73 93 71 52 44 47 44 47 31 37 55 78 83 90 92 85 75 68 67 69 72 69 75
5 8 18 39 52 64 68 68 74 71 74 78 85 90 90 90 91 91 81 89 88 86 62 62 53 46 48 45 32 28 27 26 40 86 94 91 95 95 75 80 84 82 81 80
4 7 14 37 59 66 70 76 74 73 79 77 82 87 84 72 80 80 77 81 80 76 78 70 68 66 64 55 52 58 40 40 68 62 74 97 83 83 74 75 85 88 84 80
4 6 8 12 40 61 79 73 70 74 59 62 72 72 74 63 63 69 75 72 76 74 75 69 74 74 63 60 93 46 52 40 32 94 97 87 92 99 86 84 92 87 82 80
4 4 7 8 12 24 48 68 70 58 49 64 63 66 68 63 65 73 75 78 80 77 74 81 82 77 88 100 100 59 90 86 54 86 97 96 86 97 97 98 88 86 82 74
7 5 5 6 7 9 13 31 42 51 38 40 42 39 48 53 58 71 79 88 89 89 83 91 89 86 91 99 96 89 73 86 88 96 96 98 98 98 98 91 84 81 80 72
10 9 6 6 6 6 8 13 25 23 34 29 31 29 28 39 60 62 81 93 94 98 97 93 98 96 98 97 97 98 59 72 92 96 96 97 96 97 99 89 81 77 73 67
15 12 10 8 6 7 8 10 15 26 26 25 20 22 24 36 52 66 98 100 98 93 99 97 96 98 95 96 99 98 93 87 89 94 96 98 100 98 93 87 79 74 67 59
24 20 14 12 10 10 10 12 16 26 28 26 21 21 16 33 54 73 100 100 99 98 99 97 96 98 96 95 98 100 98 97 96 97 98 98 99 96 96 88 80 76 71 71
27 28 23 15 11 13 15 18 23 27 29 33 24 19 19 39 64 68 88 92 99 97 96 94 88 92 92 90 95 100 100 98 96 97 97 97 97 97 96 92 82 76 75 80
25 31 31 15 17 19 22 24 28 26 30 34 36 22 16 40 43 54 65 93 97 94 93 70 70 78 63 80 90 96 100 99 98 97 96 97 97 97 96 95 98 94 86 84
25 29 37 34 31 26 27 30 34 33 37 42 40 34 32 35 30 29 55 61 85 72 51 32 43 43 47 64 74 91 96 97 96 95 97 96 97 97 95 91 90 90 86 86
25 26 31 32 38 36 37 37 40 44 44 47 45 38 44 33 35 33 39 55 60 50 41 28 41 44 44 51 79 83 93 96 97 96 96 97 97 97 97 98 94 90 90 92

GFSNW_700_rhum_045.txt.gz
RH
7 16 29 28 30 41 50 44 40 57 80 63 74 70 71 78 78 81 86 79 80 81 86 87 89 95 99 99 95 94 81 69 97 100 96 92 95 85 83 76 90 81 74 60
9 17 29 26 29 38 56 37 40 68 83 77 85 78 77 79 76 77 82 82 79 82 81 78 86 89 95 99 97 94 83 95 99 100 100 100 99 98 93 88 83 79 79 62
15 26 29 27 28 32 48 45 40 74 88 79 76 80 87 87 77 68 68 70 82 85 83 81 86 85 97 100 99 98 93 87 81 73 73 81 93 94 92 93 96 87 82 72
21 30 30 31 31 32 40 48 33 56 96 85 86 88 90 91 92 81 74 78 86 81 80 71 83 87 91 97 97 96 96 91 80 90 93 80 77 76 73 93 82 95 75 75
23 32 33 35 34 31 32 45 36 59 77 90 84 80 94 90 88 89 90 87 88 80 81 74 73 76 72 90 93 90 89 76 68 82 81 76 83 86 79 80 84 90 91 76
25 32 33 35 35 36 37 40 47 43 76 96 93 86 91 86 82 92 94 95 95 90 86 82 81 80 75 77 74 75 73 72 66 69 69 69 67 48 57 54 64 63 97 38
24 31 32 34 35 37 39 40 48 43 63 89 94 93 97 83 91 94 94 92 99 92 88 91 86 83 82 80 75 73 67 72 69 72 76 91 39 48 42 41 40 49 46 40
20 26 27 30 33 36 41 44 45 54 47 78 91 89 97 89 86 96 95 95 94 92 93 86 86 85 87 86 84 86 82 78 79 80 95 57 35 38 47 53 44 44 39 36
10 18 22 24 31 38 40 46 48 50 58 60 62 91 91 92 94 95 99 95 93 96 96 88 84 77 74 80 82 98 99 94 91 94 90 91 62 72 67 63 54 60 52 40
5 6 16 30 36 44 49 49 53 54 55 60 69 39 49 74 94 96 95 100 96 91 92 95 96 83 88 86 84 86 90 88 91 84 90 72 58 59 64 71 64 74 79 77
4 9 23 33 40 47 56 59 61 61 60 60 63 74 53 32 45 94 99 84 87 95 89 94 92 86 82 84 81 79 74 79 85 85 88 82 65 65 70 71 62 77 82 54
3 5 12 22 38 49 60 64 60 60 62 63 56 63 72 69 39 35 51 77 69 75 84 87 87 89 85 85 83 79 84 78 73 69 60 61 63 66 70 72 72 83 90 58
3 4 5 15 40 52 60 61 64 61 71 69 66 60 56 63 79 60 36 33 67 72 72 89 86 85 91 86 73 72 80 84 88 83 65 62 71 72 70 73 71 72 93 96
2 4 9 21 39 56 63 59 58 63 61 77 83 79 82 79 77 86 72 36 32 36 49 47 57 56 56 63 64 63 62 66 83 82 82 82 73 73 84 76 72 70 82 94
2 3 9 30 44 58 62 58 63 68 63 78 82 81 91 88 82 82 85 79 40 43 47 52 83 70 55 44 32 31 34 33 35 37 69 90 85 76 89 78 77 68 71 74
3 3 5 20 44 56 62 58 62 67 74 75 81 81 68 74 80 81 72 88 86 46 59 69 79 66 65 54 49 49 62 55 41 32 28 41 70 94 98 90 89 87 72 76
4 4 4 5 25 49 61 65 64 61 65 73 79 85 73 65 70 78 83 89 92 93 93 88 73 82 80 69 59 76 80 67 49 47 34 27 33 64 99 89 85 89 90 92
5 5 4 4 9 22 50 57 51 52 51 62 52 64 68 58 60 73 79 75 74 77 82 78 78 82 80 71 94 99 91 67 65 57 51 42 26 54 90 100 89 88 93 93
5 6 5 5 5 7 14 24 20 14 19 35 32 33 44 44 56 60 68 79 80 78 79 76 84 85 97 100 96 94 100 92 79 67 65 66 87 77 68 98 89 100 100 93
9 8 8 7 6 5 6 7 9 12 11 16 18 19 29 26 45 61 65 87 90 88 85 89 92 97 97 96 98 97 99 100 81 85 96 99 100 87 84 94 98 99 98 83
12 11 11 11 10 6 6 8 9 10 11 11 10 10 14 29 37 59 76 93 98 96 98 95 96 97 96 96 96 98 93 94 96 92 96 96 98 97 99 98 91 98 94 86
17 16 15 13 10 7 7 9 10 11 12 12 12 11 10 19 43 71 100 96 97 96 96 96 94 88 92 90 89 94 95 93 97 98 97 97 97 97 97 98 96 95 92 84
25 24 21 16 12 9 10 12 13 14 15 16 16 15 13 16 40 56 99 100 100 98 97 93 55 39 49 51 66 74 95 93 93 97 100 96 97 97 98 97 97 96 84 76
23 26 28 22 13 11 15 18 19 19 21 21 19 18 19 16 32 38 70 95 95 97 87 74 35 22 24 30 33 46 60 91 93 95 97 97 97 97 97 97 96 95 90 79
26 27 31 25 22 21 19 20 23 25 26 25 26 22 20 19 25 31 21 74 100 68 62 40 28 23 22 23 29 32 37 60 90 95 97 96 96 97 97 97 96 96 96 93
21 26 26 29 31 32 34 33 29 31 34 34 33 32 26 25 29 28 22 64 39 47 46 31 30 29 27 22 20 25 38 43 70 94 95 97 97 97 97 97 96 96 95 95
21 24 29 33 34 34 35 39 42 45 45 46 46 40 33 32 30 30 33 40 45 38 35 32 32 33 34 30 24 24 42 50 59 90 95 95 97 96 96 97 96 95 95 96

GFSNW_700_rhum_048.txt.gz
RH
3 6 15 25 25 30 42 48 45 62 79 66 75 77 79 81 84 87 87 89 96 98 100 100 94 87 83 81 67 76 79 84 99 98 96 89 88 83 78 72 87 79 78 60
5 9 19 24 26 29 44 46 48 68 86 74 79 84 89 84 81 82 83 86 84 86 90 89 93 88 94 90 84 73 83 95 99 98 99 95 96 92 87 83 76 72 82 66
5 10 19 25 27 29 38 42 52 69 89 78 78 79 85 86 81 73 72 78 84 83 83 80 88 91 98 98 96 92 92 89 81 75 68 69 86 73 83 93 96 86 81 73
7 10 18 24 27 28 34 42 39 53 81 94 85 86 85 84 91 84 81 84 86 86 80 77 83 85 97 99 97 99 98 96 91 82 82 82 77 84 83 92 88 98 76 76
6 9 22 26 27 26 29 36 41 60 77 88 88 88 90 90 82 90 92 89 89 82 80 76 85 82 85 88 92 98 96 91 79 72 66 82 84 80 82 80 76 84 75 78
4 6 17 22 23 26 31 33 42 48 67 89 90 87 90 96 82 87 92 82 84 91 84 83 82 82 84 88 82 88 92 89 79 67 68 80 79 43 52 59 61 60 84 44
3 4 9 16 17 21 29 33 40 49 62 83 87 89 94 95 90 90 96 93 93 94 94 90 88 87 85 80 78 77 77 75 75 70 71 88 39 48 48 47 46 51 49 30
2 2 3 10 17 24 32 35 41 46 53 69 88 88 96 96 91 90 89 96 92 98 95 96 96 92 88 88 89 89 86 78 73 74 86 50 39 59 57 56 47 58 57 51
2 2 4 11 21 29 36 41 43 47 50 64 79 91 85 92 92 90 100 98 98 100 99 95 86 80 80 84 87 96 98 95 95 94 92 86 56 72 72 70 64 84 81 85
2 3 3 9 24 36 40 41 47 52 51 54 60 57 80 87 88 97 100 100 99 97 94 92 91 87 90 90 86 90 88 89 92 95 89 70 61 61 62 68 71 70 65 87
2 2 4 8 31 38 42 44 46 50 54 56 60 67 50 41 65 92 96 92 82 96 92 90 88 86 88 89 86 84 82 83 81 81 83 78 68 70 73 71 74 73 75 90
2 3 5 12 36 39 40 41 42 50 52 54 55 58 68 69 36 41 68 80 70 79 83 84 83 86 86 85 82 82 84 85 90 80 68 69 76 78 76 84 83 79 69 80
2 5 8 17 38 42 44 44 43 45 62 63 60 55 56 65 75 56 36 34 41 52 59 82 80 71 74 86 82 81 79 81 88 89 84 79 74 79 78 75 76 76 78 85
2 4 9 22 38 41 46 50 49 52 51 64 74 78 77 73 73 80 83 44 34 36 65 58 58 57 51 55 66 69 64 58 52 48 49 48 61 81 77 81 87 75 74 73
3 4 5 19 38 44 48 52 52 55 54 61 69 71 76 79 79 77 80 88 55 36 34 34 40 59 70 55 47 43 49 81 86 83 59 40 29 29 36 75 92 90 89 77
2 3 4 12 31 42 48 52 51 58 62 68 75 69 61 62 74 77 79 86 97 65 47 58 68 69 86 71 61 58 72 91 92 81 74 49 40 40 29 39 93 96 96 93
2 2 3 5 9 24 38 37 37 44 44 45 59 63 62 50 58 77 84 89 91 94 91 84 80 89 94 88 82 93 90 88 91 86 57 49 49 18 17 26 70 99 97 90
4 3 3 4 3 6 4 4 6 10 7 14 19 25 34 28 50 58 65 77 81 87 91 95 95 95 96 92 93 84 82 77 81 80 71 72 69 64 57 21 24 94 96 99
6 5 4 4 4 4 5 4 4 4 5 8 8 10 16 14 20 42 56 79 86 86 90 90 96 96 96 95 87 78 81 80 72 74 78 71 76 84 72 66 42 41 95 99
6 8 7 7 6 5 5 6 5 5 6 7 7 7 10 8 16 33 65 80 91 94 94 96 96 84 83 81 81 82 81 83 85 80 75 81 84 93 82 80 73 52 80 98
9 9 10 10 11 8 5 6 6 7 8 8 9 9 9 11 12 23 45 85 100 98 96 95 80 43 41 43 36 43 52 59 78 88 88 94 97 93 96 98 88 100 96 97
12 12 13 14 12 8 7 7 8 9 9 12 13 12 13 13 12 15 34 84 92 96 99 98 56 36 27 25 28 29 31 41 51 67 84 88 96 96 93 99 98 100 94 96
18 18 20 18 14 9 8 10 14 14 15 16 16 15 14 15 16 16 15 58 96 87 96 90 70 36 24 22 19 21 25 27 35 58 64 86 92 97 96 97 97 97 97 97
24 24 23 24 17 12 12 15 17 20 25 24 25 23 20 17 17 19 18 57 76 99 91 80 47 29 24 28 26 22 20 21 19 31 58 74 90 94 96 98 99 97 98 95
28 28 28 26 26 28 29 30 31 31 30 29 31 32 30 24 20 22 16 39 95 92 61 44 41 33 29 30 26 24 22 21 21 20 29 65 80 93 96 96 97 97 96 96
23 26 24 24 26 29 31 32 33 34 35 37 41 39 33 28 25 25 19 23 29 31 42 51 44 40 36 34 30 28 27 22 20 22 21 34 81 93 96 96 96 97 97 96
21 24 22 21 26 30 33 34 36 39 44 53 53 46 35 37 35 33 29 29 36 44 46 46 43 39 30 29 27 24 27 32 26 23 24 27 52 92 96 96 96 97 96 96

GFSNW_700_rhum_051.txt.gz
RH
4 5 10 14 18 23 29 41 43 52 76 76 79 85 88 89 92 96 98 97 97 84 87 97 100 86 93 83 91 86 81 85 100 100 90 92 88 77 79 72 82 76 76 56
4 5 10 14 21 26 28 40 42 47 78 87 92 91 92 87 83 87 96 96 95 97 96 96 100 94 93 84 77 87 84 88 97 98 99 100 98 87 79 80 72 73 74 61
3 4 11 14 20 25 27 36 41 48 76 83 89 91 92 89 78 78 74 90 89 90 88 86 95 95 98 97 97 88 90 85 79 71 73 74 80 77 84 84 88 82 76 66
2 4 9 15 20 24 27 30 35 44 75 96 89 89 86 88 86 82 75 83 83 85 82 86 89 91 94 99 100 98 92 85 86 82 77 75 73 70 71 77 73 88 64 64
2 3 5 11 15 18 24 29 31 44 67 94 93 94 93 89 84 84 86 85 84 78 75 72 85 86 89 93 91 91 89 90 91 88 86 75 68 66 83 82 76 88 75 76
2 2 4 6 10 14 20 25 31 40 60 90 95 89 91 98 89 84 83 82 84 88 82 81 83 82 83 88 87 86 95 93 86 72 66 64 55 37 47 56 58 67 77 48
2 2 2 5 10 18 24 25 31 38 56 85 94 89 85 98 94 85 84 84 90 92 93 92 90 86 85 82 88 80 93 88 82 71 68 74 43 46 46 45 46 54 50 46
2 2 2 5 12 20 26 27 32 37 47 67 88 88 88 98 98 89 89 95 91 95 97 98 95 94 90 89 90 89 86 81 74 76 77 50 53 72 68 68 71 86 86 88
2 2 2 5 14 22 30 32 35 37 44 58 79 94 97 100 98 96 100 100 98 96 96 95 91 88 87 89 92 96 94 92 92 93 92 83 64 65 65 65 81 83 76 81
2 2 2 9 20 24 28 33 37 40 43 54 64 79 94 92 89 89 98 98 98 97 98 97 93 90 86 89 86 90 90 91 92 97 94 72 66 76 77 77 89 82 83 79
2 2 4 20 26 26 27 30 35 40 43 47 56 58 54 66 82 89 96 93 87 96 97 94 89 92 93 92 92 92 90 90 86 91 90 78 78 85 93 87 85 81 73 79
2 3 9 26 31 31 29 29 35 39 41 46 52 53 66 60 40 60 85 88 76 88 92 87 82 84 88 85 81 90 91 90 93 89 78 78 89 90 92 96 92 80 67 78
4 4 15 30 34 35 34 34 33 44 44 52 54 52 57 65 71 46 38 49 64 69 66 80 83 77 67 81 82 84 86 88 95 87 81 78 87 90 90 85 79 73 78 78
4 8 23 30 33 35 34 42 44 44 41 60 70 69 74 73 70 70 73 56 37 34 57 74 75 69 52 51 60 68 66 60 56 49 52 48 45 44 41 34 47 75 95 90
3 10 18 26 34 34 36 44 45 50 48 52 58 59 60 66 72 75 72 74 77 41 34 39 38 39 60 68 64 52 53 60 66 69 77 80 61 40 45 36 29 30 79 87
3 4 8 16 28 31 31 32 39 41 50 56 53 46 37 50 53 69 74 75 81 85 40 43 46 50 72 85 72 72 78 83 92 90 85 81 63 58 65 51 34 22 30 94
2 3 3 6 10 8 7 4 8 16 14 31 30 25 12 16 32 54 61 67 74 86 87 75 67 66 74 83 97 96 96 96 87 86 88 75 74 64 66 66 62 52 21 74
2 2 3 3 3 3 3 3 4 4 4 5 6 8 10 11 12 21 45 64 70 83 92 95 93 94 97 95 94 95 90 72 76 81 85 84 75 75 74 66 70 66 65 40
2 2 3 4 4 4 4 4 4 4 4 5 6 7 8 8 8 18 44 68 82 84 86 87 87 82 81 60 56 57 55 54 55 61 76 81 78 82 84 82 78 70 69 48
4 4 4 5 5 5 5 5 5 5 6 6 6 7 10 9 8 11 36 59 74 93 94 90 53 55 56 57 63 62 47 31 26 27 39 50 66 72 78 86 83 76 66 68
6 6 7 6 7 6 6 5 6 6 6 7 9 10 11 12 12 13 16 65 76 85 85 88 67 36 24 21 20 21 22 26 23 20 23 33 44 66 77 87 98 87 78 82
8 8 10 11 11 11 8 6 8 9 7 11 14 14 15 15 14 14 22 65 78 87 91 94 66 46 19 18 17 18 16 15 14 14 14 15 22 40 63 85 91 97 93 99
10 12 13 15 15 11 8 8 13 16 20 24 24 24 24 19 19 17 21 48 93 87 98 89 71 63 37 30 26 25 24 19 16 15 15 15 15 16 33 63 84 95 95 98
14 17 20 20 18 14 10 12 16 19 27 29 29 30 29 30 25 21 25 65 86 100 100 91 81 75 54 46 34 36 34 28 23 20 18 17 17 17 16 23 62 88 97 96
22 25 26 25 22 23 24 26 28 30 32 33 32 32 32 34 29 25 30 40 81 100 98 92 92 83 65 46 39 41 35 30 29 29 26 24 22 19 16 18 23 67 92 96
27 27 26 21 19 19 23 25 28 30 33 35 36 37 38 34 29 31 24 34 34 57 63 65 60 54 50 49 48 41 36 33 29 26 28 24 21 19 17 17 27 44 82 95
22 22 20 18 19 19 19 22 26 29 32 36 37 42 40 39 39 37 34 35 44 45 53 54 53 54 55 51 44 38 33 29 31 39 54 53 51 49 33 30 46 66 81 95

GFSNW_700_rhum_054.txt.gz
RH
3 4 4 9 14 20 23 30 43 44 52 70 81 93 95 97 100 97 97 97 85 90 70 46 62 93 96 90 90 98 85 98 100 99 88 89 91 84 78 66 75 73 64 40
3 4 4 10 15 18 23 28 36 40 48 83 83 92 92 90 94 97 96 95 89 86 86 78 90 84 88 92 92 91 87 96 97 98 96 91 93 82 74 79 72 81 62 48
3 4 4 10 14 20 24 29 35 40 51 73 80 90 90 85 87 86 96 94 93 86 84 86 93 90 93 86 78 90 89 87 81 65 73 79 83 90 80 79 84 68 68 63
3 4 3 7 9 15 20 26 31 36 54 76 82 88 90 84 87 81 87 97 92 90 85 90 91 90 95 95 86 86 91 86 80 70 72 78 76 76 75 80 66 81 69 64
3 3 3 4 7 10 17 23 31 34 49 83 84 88 89 85 76 81 82 83 85 79 75 74 83 89 99 97 94 93 92 90 87 88 82 79 75 71 71 74 70 91 76 72
4 2 2 2 5 10 16 22 29 35 45 84 94 84 91 88 83 81 83 82 86 85 79 77 85 88 91 89 91 89 96 90 80 80 70 63 56 49 46 47 46 63 88 68
4 2 1 2 6 14 20 21 27 33 45 74 90 87 90 94 89 81 81 81 84 90 95 91 89 85 90 89 85 89 89 95 82 70 65 63 48 49 48 50 54 62 68 80
3 2 2 2 8 16 22 24 28 32 40 61 90 90 85 90 95 91 86 88 91 93 98 98 97 98 94 93 89 87 88 86 77 85 74 61 76 71 68 75 94 87 83 82
2 2 2 3 13 19 23 26 29 34 37 52 78 88 86 92 95 87 88 96 93 95 96 94 94 87 93 96 98 93 94 86 87 82 83 63 66 69 71 70 83 81 79 76
2 2 2 8 17 19 23 27 31 35 36 45 67 82 89 95 96 90 97 100 93 93 90 87 96 94 81 92 91 89 95 90 97 97 86 75 77 88 86 85 88 80 81 78
2 2 3 16 19 18 20 27 33 34 34 40 55 66 77 81 82 84 89 91 89 91 95 93 87 94 91 93 93 95 97 95 92 95 87 76 81 89 93 88 85 82 82 84
2 2 12 20 18 19 20 26 33 33 35 42 49 57 57 50 62 77 86 87 79 89 93 86 84 87 89 86 86 95 98 90 99 92 95 83 86 90 92 94 88 84 81 76
2 4 19 19 20 21 23 25 31 37 35 43 51 54 57 62 59 41 50 78 80 77 85 90 79 75 72 91 84 88 96 94 90 82 76 78 84 91 93 90 84 80 77 70
3 13 23 20 22 23 32 30 38 34 33 53 64 61 62 64 65 63 59 43 37 42 50 58 73 73 61 58 60 66 69 67 65 57 52 52 58 70 71 55 53 47 40 32
7 20 20 21 26 25 33 44 42 43 38 42 48 50 50 56 66 64 61 64 71 47 38 46 56 49 39 52 68 57 48 50 62 65 70 67 62 63 59 43 48 52 48 32
7 15 21 26 24 22 24 34 42 47 42 22 12 14 23 35 48 56 59 66 75 79 52 36 34 38 48 75 70 76 76 76 78 71 68 68 70 70 69 59 54 54 50 55
7 16 26 22 15 13 11 11 11 25 20 6 7 7 8 8 18 34 43 56 70 76 75 67 57 60 64 65 74 77 84 87 84 70 59 63 69 65 65 59 62 62 60 69
7 10 14 6 4 3 3 3 3 4 4 5 5 8 9 11 12 23 36 56 64 70 76 81 84 87 90 90 88 80 79 63 59 47 45 44 53 62 63 66 72 70 68 65
3 3 4 3 4 3 4 4 4 4 4 5 6 6 9 10 10 16 38 57 67 67 71 77 81 81 73 62 53 46 44 47 43 33 30 28 29 33 39 47 63 76 77 69
3 4 4 4 4 4 4 5 5 6 6 7 8 9 10 11 10 10 20 38 55 76 77 76 70 68 68 61 59 41 22 15 14 13 12 12 13 12 13 22 41 50 70 77
5 4 5 6 5 5 6 6 6 6 7 9 10 12 13 14 14 12 12 28 53 76 82 89 76 52 37 24 18 17 17 18 19 17 17 16 14 14 14 15 14 21 45 70
5 5 6 6 7 8 8 6 8 8 7 12 16 17 19 20 19 16 15 18 45 81 91 89 86 62 42 23 25 28 29 30 30 29 25 20 17 16 16 16 17 17 18 39
6 9 10 10 12 12 12 8 10 12 15 22 25 25 26 26 23 21 19 15 60 79 88 84 86 68 52 32 34 49 50 44 41 40 38 32 28 26 24 21 20 18 18 24
12 14 15 16 17 16 12 9 13 16 17 21 26 27 28 29 30 27 22 47 74 97 98 96 89 82 67 64 66 69 59 43 45 44 41 37 35 32 28 26 23 22 21 24
16 20 21 23 22 18 15 16 21 25 26 26 26 28 30 31 32 30 31 44 66 94 98 94 95 94 92 88 86 65 45 47 44 40 37 33 32 31 30 28 26 27 30 33
29 38 42 33 23 19 18 19 20 20 22 23 25 27 31 34 33 33 30 36 37 69 58 52 53 52 54 49 50 50 46 42 38 36 35 51 70 67 59 58 60 53 52 52
49 48 32 21 18 17 17 17 18 19 20 25 28 29 33 36 37 37 34 36 40 43 44 45 47 53 56 51 42 33 30 32 36 45 81 57 49 51 48 51 51 72 80 72

GFSNW_700_rhum_057.txt.gz
RH
92 74 13 5 6 14 22 27 39 43 58 69 83 93 93 88 93 96 100 100 100 77 71 75 84 96 98 94 98 100 93 97 94 97 92 91 88 73 70 60 68 55 54 41
100 79 8 5 5 14 23 27 32 38 54 97 96 89 92 87 91 92 100 87 72 83 92 84 99 100 92 93 99 98 95 95 98 96 93 84 92 85 81 68 67 73 55 40
100 48 6 5 4 13 20 26 31 37 53 59 84 95 95 91 89 93 82 92 87 86 100 92 93 96 87 96 91 86 89 90 84 70 70 74 84 83 88 80 82 64 59 52
91 28 5 4 4 10 17 25 32 34 53 64 76 87 85 98 92 86 90 88 88 95 94 100 100 83 83 78 80 88 87 92 79 80 66 76 89 81 82 91 79 73 59 59
80 19 4 4 3 7 12 20 28 33 50 64 77 81 87 98 81 90 80 92 86 84 90 87 100 87 96 88 86 81 82 84 84 81 76 75 75 81 89 91 90 88 80 77
77 22 4 3 2 5 10 19 26 33 47 72 99 94 81 82 76 85 82 85 93 78 72 67 78 89 98 96 99 95 91 90 85 88 77 73 65 66 78 86 87 87 78 72
96 36 4 2 2 5 13 21 26 32 46 86 99 79 85 83 81 75 82 79 95 86 84 82 82 84 84 88 91 94 94 98 89 87 64 67 60 51 52 56 75 86 87 96
97 23 4 2 2 7 16 22 25 31 48 74 82 78 86 83 87 79 79 80 83 94 90 96 93 99 97 92 87 89 96 96 89 84 64 57 69 74 76 84 100 82 82 82
83 9 3 2 3 12 19 24 26 31 42 63 75 78 82 86 87 86 84 84 83 86 89 97 94 90 89 95 86 84 83 86 81 78 66 52 82 68 64 69 78 85 78 76
15 8 2 2 9 16 21 26 27 30 37 49 69 77 78 82 83 90 79 83 85 87 97 97 86 87 83 90 96 97 95 96 94 88 76 67 73 71 80 86 80 89 78 69
20 9 2 4 14 17 21 26 28 30 37 50 63 68 76 82 86 94 76 83 90 86 90 94 96 91 88 81 89 91 92 89 86 80 85 72 75 82 90 89 81 74 70 69
24 5 2 11 15 16 22 26 28 32 36 40 56 57 70 74 73 73 71 82 80 81 84 77 75 80 84 84 78 84 91 78 84 91 92 79 75 79 77 74 68 62 57 63
25 2 8 17 16 18 22 25 28 32 36 39 46 46 51 53 52 59 73 79 75 77 81 84 81 86 72 84 83 95 84 84 95 77 78 72 72 70 64 50 43 42 46 40
4 4 18 20 18 21 20 26 30 36 31 40 48 52 53 54 55 52 46 55 73 71 68 64 76 79 65 70 74 75 83 70 68 68 70 56 48 55 62 59 56 55 47 38
3 13 23 22 22 21 28 32 41 37 30 38 56 57 57 55 54 52 53 54 49 39 36 40 57 63 62 49 44 42 40 48 46 61 68 70 71 69 70 69 65 61 52 46
5 19 23 23 22 23 35 41 37 38 31 24 28 35 38 42 46 49 50 53 60 68 58 43 36 33 36 52 74 58 66 68 68 68 66 58 57 64 70 68 66 64 62 62
14 26 25 22 24 27 33 34 27 15 4 5 7 6 7 9 20 34 40 46 56 65 67 60 49 45 52 58 70 58 65 74 78 76 64 49 41 39 41 43 45 52 68 75
24 28 25 24 25 22 24 34 18 6 5 5 6 10 10 9 13 15 28 39 51 63 68 70 74 74 74 75 73 78 78 82 65 42 35 38 28 22 20 19 20 27 42 56
30 32 24 23 15 7 9 12 9 6 5 6 5 6 9 10 9 17 30 41 53 53 63 71 74 73 69 67 70 66 51 50 51 28 17 16 16 15 15 15 16 16 18 24
34 32 17 15 9 7 5 6 5 6 6 7 7 8 8 11 11 12 19 30 47 62 66 76 75 65 64 63 64 62 51 22 14 15 16 17 18 19 18 17 17 16 15 16
33 17 8 6 5 5 5 6 6 6 8 9 11 12 13 14 14 15 14 22 39 69 71 74 79 63 60 62 49 33 19 20 23 27 30 30 31 33 34 31 26 24 22 20
8 5 4 5 6 6 7 6 7 7 8 11 14 16 17 18 20 19 19 19 34 68 80 87 82 71 55 45 29 25 23 27 38 47 48 45 42 40 36 34 32 31 29 27
5 7 6 7 10 10 8 8 9 10 10 13 20 21 23 24 25 23 22 20 36 49 69 79 74 63 64 53 41 31 28 38 53 64 62 47 40 38 36 35 34 30 28 27
11 7 10 14 14 13 14 12 11 12 15 16 18 24 26 27 28 28 27 36 39 69 90 85 57 63 74 73 66 59 52 58 76 72 46 36 30 30 33 35 38 39 34 31
11 15 18 18 20 20 23 16 13 14 21 22 21 22 23 27 29 30 32 36 56 70 72 60 73 72 69 64 64 69 61 49 42 30 22 24 31 39 59 56 57 57 53 55
21 25 23 25 29 32 26 21 20 18 17 17 18 19 24 27 29 32 30 32 28 29 33 42 41 45 50 53 52 46 38 24 21 28 34 33 46 67 70 67 82 88 82 79
35 32 35 40 52 53 24 18 17 18 19 20 20 22 24 25 30 31 31 29 29 34 38 39 43 46 44 42 28 19 21 27 37 48 49 51 77 85 95 84 77 82 40 46

GFSNW_700_rhum_060.txt.gz
RH
100 100 100 99 32 9 18 21 25 34 46 71 73 99 99 99 100 100 98 78 90 78 72 77 83 97 98 92 82 85 86 91 99 97 98 97 89 82 69 67 65 56 53 45
100 100 100 100 18 9 20 21 27 34 44 82 99 85 90 99 97 98 98 79 80 84 74 80 93 92 84 99 90 93 97 92 96 98 95 93 91 84 81 71 65 71 70 49
100 100 100 99 9 9 19 21 24 33 45 79 97 90 93 83 91 96 99 92 90 97 92 93 94 99 99 97 93 89 93 81 85 80 75 67 68 74 79 77 76 69 63 48
100 100 100 90 8 9 15 20 25 26 41 57 97 97 92 82 82 88 94 87 92 95 93 95 98 100 98 92 89 87 90 91 86 85 78 80 80 76 72 82 65 78 63 60
100 100 100 44 7 7 12 15 21 26 46 66 76 93 91 91 78 92 79 96 80 85 97 98 96 89 99 98 86 84 86 87 82 77 72 72 72 85 83 79 82 81 80 70
100 100 90 14 6 4 10 14 22 26 38 66 85 82 84 90 67 86 82 99 88 73 71 70 85 85 92 99 94 91 89 81 77 83 77 70 67 66 68 76 84 89 95 85
100 99 100 22 4 3 8 19 24 28 38 71 89 95 86 75 71 70 73 79 92 77 74 79 86 92 85 89 98 99 96 90 82 82 60 83 64 56 54 72 81 78 79 80
99 100 100 26 3 3 9 20 24 30 48 94 100 98 80 80 78 70 67 68 70 84 81 84 88 93 94 86 85 89 94 90 92 91 72 64 67 61 70 84 93 73 67 65
100 99 100 13 2 4 14 22 27 29 45 71 88 78 85 84 82 79 76 74 76 78 85 81 92 87 87 94 81 81 82 87 86 77 70 62 82 73 64 66 88 77 86 82
99 99 93 6 2 6 18 26 28 28 31 44 58 78 81 98 93 96 84 80 77 78 79 90 86 87 83 88 96 80 83 87 85 85 78 71 73 74 72 82 79 91 96 91
99 99 66 3 3 13 24 28 29 28 32 41 51 55 70 77 79 80 75 84 82 81 97 95 93 91 80 82 91 92 80 81 85 86 93 81 74 77 83 89 98 86 74 69
99 96 57 3 8 23 25 30 29 31 38 38 54 66 70 72 72 72 69 76 77 74 97 81 80 81 79 82 82 80 87 79 82 84 92 89 87 83 83 80 74 71 58 47
98 94 61 6 21 25 28 32 33 32 40 44 54 64 71 74 78 74 73 67 68 68 69 72 74 72 70 86 84 88 72 69 76 68 79 80 83 80 69 61 52 52 60 56
98 88 18 20 25 26 30 32 31 33 36 40 49 50 54 55 60 64 67 78 68 69 67 67 74 76 65 68 74 71 61 60 58 70 78 71 61 62 64 66 68 70 71 69
94 71 16 28 26 30 31 36 34 35 33 32 44 50 50 54 53 51 49 49 56 58 60 59 58 59 62 57 53 50 44 44 47 48 51 65 67 64 62 64 66 62 60 61
20 14 32 30 30 31 33 38 33 42 38 32 52 49 56 53 51 50 53 54 53 52 48 41 38 37 40 38 38 38 41 48 62 66 70 76 78 50 40 37 36 34 34 40
21 32 32 30 32 29 34 36 33 43 34 17 23 34 42 42 43 45 48 52 56 58 54 52 51 47 41 38 41 51 57 59 56 62 74 67 41 38 31 17 12 12 13 15
24 36 33 35 35 39 34 35 34 18 7 5 6 7 15 16 20 25 36 43 49 49 52 48 55 60 61 60 60 62 66 67 71 74 52 45 32 16 14 14 14 15 16 15
40 40 43 43 42 40 32 21 6 6 5 5 7 8 10 11 15 20 34 38 44 44 45 52 56 64 64 65 62 60 64 64 50 47 41 17 17 16 20 25 26 26 26 26
47 52 54 53 40 32 31 12 7 7 5 5 6 7 9 10 13 15 26 27 38 38 40 53 65 62 62 65 63 63 57 58 43 22 24 26 30 28 26 28 40 48 43 35
58 57 52 40 20 30 35 12 6 6 8 7 8 9 12 13 14 15 14 15 22 35 48 51 67 58 51 57 67 64 58 40 27 25 25 31 34 39 44 57 57 41 31 26
54 51 31 20 14 6 6 6 6 6 7 9 12 14 16 17 19 19 19 17 22 46 64 62 64 49 54 61 64 59 39 31 30 32 33 35 44 63 57 39 28 19 17 20
56 45 20 14 8 7 7 6 7 8 8 10 14 18 21 22 24 24 22 21 28 41 59 62 53 48 54 67 60 46 38 36 39 45 61 69 48 36 24 16 16 21 27 39
44 17 7 7 10 10 10 8 8 9 10 15 17 18 23 24 25 26 26 31 29 35 54 44 44 46 69 82 87 88 84 73 50 40 36 25 13 13 22 25 26 44 60 62
12 7 7 13 13 12 12 12 12 13 15 16 21 19 18 21 26 27 28 30 30 32 32 32 36 40 38 40 45 47 45 38 24 15 14 18 22 30 34 41 45 65 70 66
12 15 18 16 17 22 22 18 16 19 20 17 16 16 18 21 22 25 27 27 24 24 28 33 37 38 40 45 46 39 19 13 14 15 20 24 41 49 50 53 64 69 74 72
18 21 19 20 23 29 36 46 26 17 17 20 20 19 19 20 22 22 23 22 25 28 32 35 38 39 42 39 24 13 12 14 16 21 30 42 52 57 62 60 53 48 37 29

GFSNW_700_rhum_063.txt.gz
RH
100 84 100 95 100 99 34 16 22 34 43 60 91 100 100 99 92 88 74 82 81 73 78 83 89 98 95 70 75 76 71 86 92 97 82 73 75 73 70 62 61 57 54 48
99 88 100 88 100 91 16 16 25 31 48 68 97 99 100 97 91 88 76 77 72 72 71 82 85 92 98 96 74 84 81 83 98 91 92 80 77 76 71 67 65 66 58 49
99 97 100 91 100 74 12 18 25 30 43 66 94 90 94 100 100 95 77 73 80 81 80 85 95 91 98 100 90 87 82 84 78 78 83 73 83 76 80 77 73 65 63 53
100 100 99 98 100 61 12 17 22 24 35 60 78 88 86 91 95 97 95 94 91 93 83 84 92 98 98 95 89 88 76 86 86 84 84 72 66 68 70 77 64 68 46 58
100 100 100 97 100 58 11 18 24 24 33 64 87 97 94 86 87 92 99 90 96 91 76 83 85 98 99 91 86 85 84 82 81 78 76 69 72 77 72 72 77 76 70 63
99 99 100 100 100 31 10 14 22 27 39 62 67 88 96 93 82 95 90 95 79 81 83 74 87 90 84 83 84 79 80 76 84 84 84 77 72 69 81 79 82 81 82 84
98 100 95 99 59 10 10 19 26 27 43 52 60 89 94 82 72 78 97 95 79 72 68 79 84 90 90 93 93 91 90 82 76 84 71 75 65 64 64 71 83 91 89 86
99 99 98 97 19 10 10 23 31 32 41 55 78 93 94 83 68 72 78 79 78 75 77 84 87 92 84 90 98 98 92 90 85 81 74 71 64 56 52 55 72 82 79 72
98 99 99 97 19 10 12 22 35 37 44 74 84 99 98 76 74 74 74 70 80 84 75 86 91 88 84 88 80 85 90 88 84 77 73 71 69 76 68 74 77 84 87 88
98 99 99 88 15 12 15 27 35 41 56 61 75 93 88 86 79 70 72 70 77 87 80 88 88 85 87 85 84 79 84 84 87 86 85 83 83 82 76 85 79 87 98 98
99 99 99 40 14 13 23 30 34 36 42 54 60 75 76 75 68 68 70 75 74 79 83 86 87 89 78 89 87 82 75 75 82 90 90 93 80 83 86 84 87 93 94 88
98 99 98 24 12 21 30 34 34 36 53 49 61 76 81 81 76 71 63 63 68 77 86 79 76 79 80 83 84 87 86 81 85 78 87 88 87 86 82 79 79 71 63 52
97 99 98 32 16 28 35 38 36 39 46 51 66 79 80 81 83 81 72 68 70 69 69 69 69 67 68 76 80 77 74 72 78 75 85 77 66 75 71 59 59 65 66 63
98 98 98 18 27 42 42 41 39 44 45 61 66 68 74 72 79 81 79 74 65 71 71 70 67 62 59 62 62 61 62 60 58 66 68 68 62 55 66 60 59 66 62 51
98 99 77 19 40 45 45 44 40 42 43 42 61 60 71 72 71 68 67 71 67 64 66 65 63 63 62 58 56 51 49 50 50 51 44 49 61 68 67 47 40 36 30 19
99 76 21 39 49 48 49 46 44 45 51 46 50 47 52 54 54 52 55 57 61 59 56 54 53 49 47 41 40 37 38 39 37 43 54 66 67 76 73 45 34 19 13 13
98 49 36 41 46 46 44 40 36 43 46 41 41 51 53 52 52 50 49 50 46 47 49 49 46 46 45 41 39 40 47 54 58 67 62 69 77 53 38 29 17 14 16 22
22 38 41 47 46 47 44 37 43 47 43 23 20 37 47 46 44 45 46 47 48 50 52 52 52 51 49 50 46 49 53 60 66 73 75 77 47 34 21 18 20 25 28 31
41 37 42 46 48 53 45 43 48 34 6 5 5 13 22 26 31 36 39 43 46 42 45 52 52 54 55 54 54 58 64 68 74 72 59 47 38 24 19 23 30 29 28 29
50 46 45 56 56 48 50 52 18 6 5 5 4 6 7 12 16 21 25 26 35 34 40 46 59 52 50 56 65 67 66 71 59 54 53 41 27 22 25 30 30 38 45 35
80 50 58 56 49 47 31 10 8 5 5 5 6 7 9 12 14 14 18 17 21 27 42 43 46 49 42 56 66 77 74 63 61 55 44 31 27 30 40 53 43 24 16 15
48 61 55 46 47 38 19 10 6 5 7 5 7 10 13 14 16 18 19 19 23 36 39 42 39 32 39 55 63 65 69 66 56 44 37 47 63 59 37 22 12 13 22 28
64 63 52 45 16 9 6 4 5 6 6 7 9 13 16 20 22 23 22 21 23 31 37 33 31 31 35 40 54 67 69 69 71 71 59 43 32 14 11 13 20 27 37 44
66 51 24 8 6 6 5 4 4 6 7 9 14 18 20 23 23 24 25 27 26 26 25 24 23 22 29 38 46 50 51 43 42 36 16 9 9 13 19 30 42 47 51 51
36 14 11 7 11 10 7 13 8 9 10 14 15 21 20 19 22 23 24 26 26 25 22 23 25 30 32 37 41 43 43 35 16 10 10 13 16 18 24 38 46 57 56 51
17 9 5 12 14 14 11 12 12 13 14 18 18 17 17 18 19 20 20 21 21 22 23 27 30 33 37 40 41 37 21 12 10 11 14 16 19 20 19 19 22 22 26 28
12 14 9 13 20 32 32 22 24 22 18 16 19 18 18 19 19 19 20 21 23 25 28 31 33 36 37 36 23 13 11 11 13 14 16 17 13 10 11 13 17 23 27 26

GFSNW_700_rhum_066.txt.gz
RH
100 96 99 100 100 100 99 88 25 33 51 65 100 96 97 75 55 64 76 84 76 80 89 91 91 81 83 77 76 72 69 73 96 82 75 72 69 65 58 54 60 60 53 51
92 98 99 99 100 100 95 80 25 47 55 87 100 98 92 87 78 69 79 81 73 78 76 87 82 86 76 68 60 62 66 77 86 81 76 68 65 63 62 60 58 53 56 55
85 98 98 99 99 99 88 29 32 52 54 74 100 99 90 92 87 76 76 79 82 72 82 81 92 91 90 86 69 69 72 74 71 71 70 67 72 64 68 68 67 64 58 56
96 94 98 99 99 98 98 25 25 24 36 62 93 96 96 97 88 76 69 79 78 88 85 75 93 98 99 93 87 82 70 79 80 86 76 75 71 64 71 66 63 64 58 55
97 98 98 98 99 100 96 21 24 22 30 66 86 97 92 89 87 61 71 76 74 81 72 69 55 97 99 95 92 85 75 84 84 84 83 80 74 71 74 77 77 75 72 67
98 96 97 99 99 99 71 17 20 30 47 81 83 94 88 88 85 90 88 86 84 87 80 79 85 87 78 77 83 80 80 79 84 80 79 72 69 69 81 79 78 79 80 77
98 98 98 98 99 99 98 19 24 29 48 72 77 94 97 93 94 76 88 93 85 82 76 78 89 90 86 82 81 83 79 71 73 81 77 79 66 64 68 84 87 87 86 86
96 98 99 98 99 100 98 28 27 32 47 68 99 100 90 99 92 86 73 85 76 73 84 88 90 91 89 90 88 86 79 79 80 76 66 70 66 60 58 68 79 84 86 88
98 97 98 98 99 75 29 34 33 38 52 88 97 100 90 91 80 90 90 80 77 82 88 84 80 79 83 82 92 95 87 87 83 88 77 80 66 67 65 61 66 56 66 73
96 94 96 98 94 33 35 36 40 45 65 77 95 100 98 94 80 76 81 76 85 82 81 90 87 92 79 77 78 87 100 94 84 80 74 70 60 73 78 79 59 61 63 70
96 97 98 98 71 24 33 35 41 61 60 72 91 91 90 83 80 70 69 78 87 89 87 86 85 86 87 81 78 75 72 75 82 86 87 85 73 79 82 74 73 72 78 79
96 97 98 99 27 28 27 37 42 57 70 74 80 89 94 82 78 78 66 63 64 72 82 75 74 78 80 80 85 82 76 70 75 72 70 69 71 76 82 82 75 64 57 54
95 97 98 92 25 23 24 40 43 50 80 66 87 91 87 81 83 78 74 68 68 66 64 73 77 71 70 75 78 77 78 77 80 72 66 72 78 78 73 61 52 59 58 59
96 98 97 26 19 19 31 43 46 50 61 72 82 86 88 82 78 82 76 76 76 75 72 72 69 63 59 72 65 67 70 69 69 71 61 57 60 66 54 64 59 51 45 37
97 98 73 26 19 34 47 50 48 55 62 57 72 70 76 79 72 75 76 75 71 69 73 71 67 66 67 61 63 63 60 66 67 65 60 58 50 52 67 73 72 50 34 23
97 97 67 23 34 48 53 54 52 62 64 57 80 65 72 70 68 70 72 71 71 71 68 69 68 61 61 54 50 47 49 49 50 46 42 46 53 71 74 78 54 34 24 18
98 98 48 29 45 50 52 48 42 52 62 66 58 63 67 61 58 59 61 61 65 69 69 60 49 45 47 43 41 41 42 47 53 56 58 66 67 69 70 60 38 25 20 21
98 88 40 39 45 56 50 43 46 51 58 51 41 48 50 49 47 50 50 49 49 47 45 46 47 46 46 44 41 45 47 53 59 64 67 72 79 75 56 39 29 24 26 30
96 49 48 44 55 51 45 47 51 50 29 12 11 34 46 41 43 48 45 48 48 47 45 49 46 45 46 44 47 54 58 59 60 69 76 73 58 49 46 32 28 28 30 33
83 47 49 56 49 54 48 58 49 19 6 5 8 19 23 28 30 35 38 37 41 40 38 36 45 36 33 45 50 53 60 63 65 68 63 58 58 54 38 31 30 42 48 38
53 52 48 51 59 58 50 40 20 7 4 5 8 8 8 18 18 18 21 20 21 22 31 37 38 29 32 36 39 48 55 65 73 68 63 59 47 42 49 53 40 19 11 10
49 44 47 51 50 38 22 15 8 5 4 4 5 6 9 11 14 16 16 18 20 26 31 33 28 25 21 25 29 36 47 58 61 59 56 58 58 45 32 14 9 10 10 16
46 61 58 53 38 31 16 9 5 5 4 4 5 7 11 14 17 20 21 22 21 26 30 28 23 19 19 20 23 29 40 48 55 53 46 43 29 11 9 10 11 11 18 32
66 50 46 32 16 12 5 4 3 4 4 4 6 10 15 17 20 23 22 24 25 23 23 21 20 20 22 25 27 30 36 40 42 43 26 11 9 11 13 16 17 17 17 18
57 41 30 10 6 5 4 3 3 6 6 7 10 15 18 21 20 21 21 24 24 24 22 20 20 22 24 26 29 33 38 39 30 14 9 11 13 14 13 11 9 8 10 15
32 19 15 7 8 5 5 5 7 7 8 12 15 19 18 16 17 20 19 19 19 19 19 20 21 24 26 29 33 34 29 19 13 10 12 15 16 11 7 8 8 9 10 11
16 9 7 13 9 11 14 10 10 11 14 16 17 17 17 18 18 18 18 20 21 22 22 23 24 25 28 28 27 20 14 12 12 14 17 18 17 9 10 10 11 13 14 13

GFSNW_700_rhum_069.txt.gz
RH
60 99 86 96 98 99 99 99 94 62 41 36 71 81 86 61 51 62 68 81 83 82 83 88 78 77 87 92 81 74 65 72 91 81 75 71 67 59 56 47 66 58 53 59
63 94 98 97 97 100 99 99 92 52 40 54 72 78 97 58 51 63 73 76 78 83 88 83 77 67 71 79 68 66 68 69 81 75 69 69 70 67 59 52 52 59 59 63
65 91 97 94 97 98 98 98 94 77 44 49 63 94 94 72 75 69 76 78 77 78 75 83 78 70 73 72 59 57 60 67 60 68 70 69 65 64 70 64 55 59 60 59
50 90 97 97 97 98 98 96 53 40 30 54 67 97 87 80 90 78 80 82 79 77 80 86 93 82 68 68 59 56 58 68 65 65 70 71 67 63 58 60 62 61 61 61
30 100 89 85 98 98 97 98 40 19 23 52 79 99 97 92 85 77 82 77 79 75 69 79 92 96 81 74 67 71 68 80 84 85 81 76 72 69 70 75 76 69 70 73
56 95 92 95 97 97 97 97 42 31 35 56 83 96 91 93 89 71 64 67 68 81 82 77 84 96 94 84 85 78 72 76 82 81 77 72 68 70 71 74 74 75 80 76
91 95 94 98 97 98 96 96 60 31 41 62 81 90 84 89 81 59 78 84 87 83 83 81 99 97 93 90 86 83 76 72 77 74 75 74 62 60 64 72 78 76 73 74
100 82 96 97 97 98 98 69 66 42 51 76 97 96 88 93 90 82 74 84 84 88 78 84 92 92 92 92 83 84 79 73 66 70 69 66 65 59 58 63 70 71 76 82
94 94 96 96 98 97 80 78 70 49 62 98 87 98 94 93 94 90 84 85 83 82 83 76 76 71 77 85 89 100 87 84 76 83 76 80 62 62 60 58 57 52 56 68
96 96 95 98 99 98 88 75 61 64 72 85 100 98 92 92 92 87 84 79 81 81 83 77 76 76 77 71 78 92 96 88 84 77 77 63 58 67 72 73 57 61 64 66
94 96 96 97 98 97 67 58 59 67 70 84 100 99 100 94 85 78 81 85 88 87 84 80 76 84 78 76 72 71 68 75 80 85 84 74 61 71 74 66 72 68 62 56
77 96 97 97 96 68 49 46 56 65 74 82 99 97 98 93 84 78 71 71 72 80 82 72 75 78 79 77 73 70 72 67 66 63 66 63 64 69 71 72 68 66 54 47
67 95 97 97 88 37 42 43 58 66 81 95 99 100 97 99 88 77 76 67 69 69 67 76 76 73 71 71 70 74 74 77 72 70 62 60 64 69 72 73 65 53 48 55
63 97 96 89 46 31 34 46 60 79 76 87 98 99 98 98 89 81 79 83 75 76 75 78 78 72 63 69 66 64 70 71 68 66 59 59 54 58 62 67 53 56 62 58
85 97 93 54 36 26 33 47 53 67 76 64 81 84 93 94 86 83 80 77 81 80 78 78 76 71 67 61 61 60 57 60 65 64 60 55 53 52 49 47 58 72 72 67
83 93 86 36 29 34 41 51 53 56 67 66 88 82 92 88 85 79 79 77 73 70 68 68 72 68 66 61 57 50 52 53 55 61 59 50 43 45 51 66 72 71 62 45
95 93 37 30 35 42 49 53 42 50 60 74 81 78 83 79 79 77 74 73 72 67 66 67 67 64 62 59 54 41 38 40 42 44 49 53 56 64 70 70 70 62 42 33
95 73 43 38 46 48 51 52 47 52 67 73 54 57 68 67 71 74 67 63 60 59 63 59 54 46 45 42 36 37 40 41 42 47 55 62 67 74 78 72 56 43 39 34
95 56 47 52 51 52 50 47 52 56 55 45 24 47 53 57 63 56 52 50 48 44 44 44 43 43 41 35 35 40 44 47 50 56 61 66 71 67 55 50 49 44 37 36
87 58 56 58 54 55 49 54 58 56 29 16 6 28 39 41 46 48 46 44 45 41 37 38 38 29 24 25 34 39 41 48 53 60 66 69 64 60 57 49 42 46 50 43
71 65 63 55 58 57 63 61 37 15 7 8 6 27 26 35 41 40 33 24 26 22 24 29 29 20 21 22 23 27 34 38 41 48 55 61 62 56 53 56 48 30 14 8
72 60 60 60 59 48 38 43 22 9 5 4 10 20 22 27 33 28 19 17 18 22 26 26 23 20 17 16 17 19 21 24 30 38 48 52 51 44 39 27 11 8 8 9
65 65 65 55 49 42 24 23 13 5 4 4 9 10 16 18 14 14 18 19 20 25 25 24 22 19 16 17 19 20 22 25 29 33 36 38 36 26 12 9 9 8 9 10
89 65 52 45 34 31 15 16 9 3 3 4 5 7 10 11 14 18 21 22 22 22 22 20 20 17 17 18 20 21 25 28 32 35 33 23 14 10 10 10 11 10 8 8
62 44 40 34 14 17 7 10 7 3 4 4 6 9 12 13 20 19 19 19 21 21 21 20 17 18 19 20 21 24 27 29 31 26 16 12 9 10 13 16 15 9 10 12
56 37 29 20 8 7 5 5 4 5 4 6 8 13 14 18 17 16 16 18 17 18 18 19 20 21 22 22 24 26 25 22 17 14 11 10 10 13 17 20 19 12 14 17
45 26 19 8 8 6 4 4 4 6 6 10 13 15 17 18 17 16 16 17 18 20 23 24 24 23 23 24 24 21 17 14 12 11 10 11 16 20 22 24 23 17 16 18

GFSNW_700_rhum_075.txt.gz
RH
67 61 64 95 98 97 98 98 96 97 96 97 100 95 96 60 66 58 59 71 66 72 77 85 93 96 100 98 90 83 82 79 92 95 89 76 64 60 52 47 59 52 57 65
69 71 62 96 98 97 99 98 96 97 97 97 99 85 97 66 68 55 62 73 68 73 86 86 83 98 96 90 79 76 78 79 84 80 78 73 66 58 51 49 49 49 57 68
77 72 82 95 93 97 96 96 96 98 97 99 88 96 99 70 69 57 58 68 66 72 79 79 87 95 85 78 74 68 71 72 60 70 63 62 63 64 58 50 45 50 51 57
47 35 98 98 98 96 97 96 96 92 94 99 97 100 82 57 63 61 65 70 69 72 74 76 73 74 68 72 74 72 62 60 60 62 58 58 55 54 58 56 54 49 48 47
27 78 98 98 98 97 98 97 96 96 92 99 98 100 81 58 58 60 62 61 67 67 74 74 66 74 63 57 62 63 61 72 69 76 74 71 67 63 61 61 60 60 57 54
29 87 95 90 92 93 97 98 96 96 92 99 98 96 78 63 53 64 60 64 65 66 69 76 74 70 66 62 57 63 60 70 74 77 75 70 71 78 77 74 71 69 67 62
92 94 84 95 98 83 97 96 93 86 91 100 96 94 79 73 61 52 63 71 70 74 78 83 77 81 74 74 73 72 66 67 64 74 71 77 62 66 70 70 72 74 72 73
98 98 78 96 93 94 98 93 93 97 78 99 98 96 90 82 62 58 56 59 71 79 81 79 80 85 77 83 80 76 69 58 58 64 69 57 53 50 54 55 57 63 71 77
89 75 65 60 86 95 94 95 73 99 92 99 97 98 99 92 65 56 57 71 82 80 74 69 70 65 70 66 70 72 67 70 64 65 60 61 57 56 57 57 53 53 54 61
86 68 52 58 89 89 85 92 78 89 96 99 94 92 99 87 77 82 90 83 82 77 72 66 64 63 65 64 67 64 65 74 75 72 65 58 52 53 61 58 54 53 56 58
95 72 86 83 86 94 86 63 80 91 93 100 98 96 97 92 87 81 86 82 78 69 72 72 66 66 64 66 65 69 76 74 71 79 71 57 48 50 53 54 56 56 59 65
83 81 81 81 81 84 69 68 82 97 92 97 98 92 98 95 86 87 77 76 72 74 71 62 70 66 64 66 65 62 60 61 56 52 53 52 49 44 42 42 43 51 53 49
86 84 76 75 77 71 70 68 85 88 100 91 100 100 100 96 86 88 82 75 68 68 67 70 65 62 60 63 62 61 57 58 57 55 48 48 48 46 44 45 46 47 48 45
75 77 79 73 74 84 76 55 71 71 92 93 97 98 100 88 84 75 74 76 72 65 61 61 61 64 67 62 62 57 54 55 50 45 46 48 46 48 48 49 48 47 44 43
78 80 79 83 85 81 60 50 59 74 75 89 96 100 99 97 90 85 73 68 64 57 55 57 58 56 63 65 60 46 44 44 44 43 43 47 46 47 48 47 43 40 41 44
76 76 76 69 68 44 37 47 50 56 60 68 99 86 99 96 90 82 73 65 64 60 56 58 55 56 66 64 55 36 36 36 36 36 41 40 40 41 39 40 43 45 49 54
69 71 77 51 30 33 36 32 43 51 59 53 81 90 89 87 69 81 70 66 65 61 66 60 57 56 60 57 42 34 36 38 37 37 35 33 33 35 38 43 44 46 55 61
72 79 83 50 31 27 27 26 37 41 56 55 70 69 70 69 66 75 71 76 73 66 64 57 54 56 54 43 26 23 20 19 20 22 26 30 33 37 41 46 49 53 58 57
94 81 73 57 31 24 26 32 41 42 48 58 61 54 55 64 65 66 78 70 66 59 56 53 50 46 37 24 23 22 21 21 21 24 29 33 34 37 42 45 46 45 51 54
84 81 69 32 25 30 36 48 47 49 53 51 51 23 38 49 61 68 75 66 62 48 40 38 34 17 15 15 17 19 21 22 23 24 24 26 26 27 29 34 36 38 37 36
92 53 35 38 35 47 54 49 51 52 56 49 41 32 16 46 65 66 61 46 43 36 25 24 19 13 15 17 17 14 13 14 16 16 18 20 22 24 28 31 34 34 31 26
92 58 53 46 49 56 51 56 53 48 44 25 20 28 14 47 63 65 50 32 24 18 17 18 17 17 18 16 14 14 15 16 17 18 20 22 24 26 27 23 21 16 14 13
75 66 62 54 50 52 48 51 41 32 24 22 12 18 27 47 50 43 33 17 15 17 21 20 18 19 18 16 15 16 18 19 20 21 22 23 22 20 15 13 12 12 13 16
92 80 67 56 48 40 36 27 31 25 14 9 7 15 37 43 35 16 15 15 19 20 19 17 16 17 17 16 18 19 20 20 21 21 21 19 16 13 12 12 13 17 20 24
98 91 69 59 44 34 32 32 30 32 21 5 6 29 31 36 18 13 16 17 18 18 15 14 14 15 16 20 21 21 20 21 21 19 18 15 13 10 10 14 20 25 31 38
95 89 67 56 50 36 26 30 23 28 20 8 26 32 17 18 13 15 16 17 15 14 14 15 16 19 21 21 20 21 21 21 19 17 14 10 7 7 10 14 18 24 32 30
95 86 70 49 47 35 24 22 21 18 12 12 21 15 13 14 13 15 15 14 13 15 16 17 20 20 20 20 21 22 21 19 17 12 8 6 6 8 10 11 15 21 25 29

GFSNW_700_rhum_078.txt.gz
RH
73 78 92 97 96 96 96 87 95 97 98 96 97 97 99 59 81 74 74 72 62 63 65 82 86 96 99 97 93 93 83 86 97 93 81 72 61 56 49 52 58 60 50 61
86 81 96 87 94 98 97 96 97 98 96 96 99 92 94 64 76 78 80 75 60 57 68 82 88 97 93 86 84 85 76 79 86 76 70 64 60 52 50 47 44 59 48 62
88 90 98 96 97 96 97 94 97 97 96 95 89 94 88 72 80 81 76 67 64 59 68 76 89 88 81 76 77 72 70 65 65 65 76 66 67 60 54 46 56 50 54 60
40 96 100 99 100 98 97 95 94 90 97 79 91 95 86 74 84 84 77 74 69 58 66 83 89 76 79 73 66 65 67 58 58 66 68 66 61 61 59 53 51 56 51 57
53 88 87 79 88 84 93 92 94 94 85 78 98 91 90 75 71 78 68 67 63 61 64 72 81 72 64 61 63 63 58 68 59 57 60 60 61 58 60 59 58 60 55 56
75 78 73 66 82 87 90 82 91 88 78 88 92 89 76 68 61 72 68 59 51 56 60 64 67 66 60 56 53 52 55 60 61 72 64 58 58 62 67 69 65 63 66 61
65 70 71 81 74 78 95 88 96 86 76 92 94 88 70 63 65 71 66 62 53 64 72 69 62 64 63 63 56 55 58 59 59 70 65 63 56 57 57 57 60 65 68 70
53 56 60 72 79 85 100 86 52 53 74 95 95 90 72 71 74 64 60 54 64 66 64 63 75 72 66 67 64 64 60 52 54 68 66 55 53 49 52 56 53 51 56 61
49 42 44 58 72 77 80 82 49 60 80 90 84 94 88 78 80 68 60 67 68 61 60 54 62 74 66 67 66 69 64 61 56 53 56 41 53 51 53 56 62 50 52 55
40 66 68 72 74 74 73 50 44 73 80 92 88 86 92 79 74 59 71 78 76 67 62 55 59 59 56 62 53 53 54 55 62 65 64 57 49 43 52 60 49 45 47 49
40 58 67 68 70 64 49 55 64 70 80 92 92 92 89 84 75 67 77 78 75 67 60 59 59 59 56 55 52 50 55 64 63 66 72 53 41 44 46 45 42 45 50 54
48 60 61 57 51 45 34 54 63 68 67 85 91 96 92 92 88 78 72 66 62 60 55 48 55 52 49 52 66 51 53 49 53 42 48 45 43 42 42 40 36 38 40 42
60 62 65 62 62 50 34 54 71 86 79 80 88 91 93 91 83 78 66 56 55 56 54 55 52 50 49 51 49 51 48 50 49 46 43 43 45 45 43 42 44 44 45 43
49 62 66 67 68 69 50 48 71 70 76 76 85 99 91 86 79 73 69 59 54 49 45 48 51 51 54 52 51 50 48 48 44 39 39 40 39 42 44 45 46 46 44 44
37 59 64 72 73 73 54 40 60 60 61 68 86 99 100 94 86 80 67 61 58 54 50 48 50 48 49 46 45 35 39 39 42 40 36 38 37 40 43 45 45 42 41 42
51 58 59 69 73 58 45 42 47 53 43 74 79 71 88 94 83 85 80 68 59 55 55 52 50 48 52 49 38 28 31 34 34 35 33 31 31 31 34 36 37 39 44 45
60 60 60 60 40 28 31 32 42 49 50 49 72 75 78 72 60 73 78 72 65 58 58 53 49 49 55 46 27 25 29 29 31 30 30 30 30 29 31 33 35 40 42 42
58 62 59 41 26 21 25 23 29 41 51 50 52 54 56 60 60 62 64 65 65 61 56 48 46 46 46 29 19 18 15 14 16 18 20 22 25 28 30 33 33 32 34 34
74 75 71 44 38 28 25 26 30 40 46 50 40 45 46 57 59 68 71 63 63 54 54 53 50 47 32 22 20 20 20 20 20 21 22 23 23 23 23 21 21 23 25 26
79 89 73 52 45 28 22 34 34 45 45 44 35 38 35 40 56 63 67 68 63 57 41 39 39 20 17 14 14 17 19 20 19 16 16 18 17 17 18 19 20 20 21 24
91 77 67 52 34 27 37 44 45 44 40 36 29 30 37 21 50 69 65 56 51 43 34 32 20 11 11 15 16 15 12 13 14 14 15 17 17 18 20 20 20 19 18 16
92 78 66 48 42 46 48 49 40 34 36 32 29 34 37 24 50 73 66 50 36 28 21 18 14 11 16 17 15 13 14 15 16 17 18 18 19 19 19 18 16 14 12 11
91 82 61 58 57 58 47 40 36 30 27 25 25 21 32 22 56 59 48 40 23 18 20 16 12 15 16 16 15 14 17 18 18 19 19 20 19 18 16 13 10 9 9 11
94 83 79 74 60 51 40 34 30 28 24 19 17 15 25 35 52 40 28 24 16 19 19 13 13 14 14 15 14 18 19 20 19 20 20 19 18 14 10 8 7 8 8 11
99 82 74 70 63 44 35 35 36 31 29 19 11 19 31 42 39 20 15 18 18 17 14 13 14 14 14 16 19 19 19 20 20 19 18 17 12 8 7 6 7 8 10 14
98 84 70 72 66 56 44 38 37 34 34 32 16 30 37 39 31 15 12 17 14 13 13 14 16 16 18 19 18 19 20 20 20 19 17 12 8 6 5 6 8 13 16 17
95 82 71 64 64 58 51 44 37 33 27 24 19 32 22 17 20 15 15 13 10 12 13 18 18 19 20 20 21 21 21 20 19 18 12 8 6 5 6 8 13 16 17 20

GFSNW_700_rhum_081.txt.gz
RH
96 97 98 94 86 76 83 62 85 99 99 98 96 97 90 60 83 82 69 75 84 82 90 95 98 99 100 90 85 98 78 92 90 84 68 65 84 69 60 52 54 53 49 68
86 91 98 100 91 93 87 71 96 97 97 96 95 93 77 96 80 72 76 91 88 93 96 94 100 100 89 82 78 78 74 80 86 75 67 74 75 69 62 56 55 53 47 65
75 70 81 86 82 97 92 70 97 98 96 94 98 98 90 71 70 77 76 72 76 91 92 88 99 82 74 72 67 67 63 75 86 72 89 83 76 58 52 50 54 40 54 71
70 64 83 87 92 93 88 73 87 94 98 97 83 92 88 79 92 80 76 80 87 84 91 89 94 85 75 66 64 66 67 65 62 75 74 65 66 69 66 53 56 51 58 64
61 58 68 75 83 86 96 78 85 91 74 81 77 85 88 72 80 94 80 79 80 80 82 82 80 74 70 59 64 61 52 59 57 57 57 76 68 61 74 57 65 58 55 64
58 65 62 65 76 74 75 84 84 85 92 92 94 92 83 71 80 73 86 93 76 58 63 66 59 55 51 45 45 41 44 49 60 70 56 59 58 57 61 66 58 63 60 55
55 64 61 64 67 68 74 72 62 96 98 87 62 76 62 72 70 61 58 51 55 62 62 59 57 54 50 48 46 45 56 53 53 68 62 60 47 54 57 61 60 60 63 62
54 59 56 62 62 44 45 42 54 73 68 72 65 66 64 72 66 59 53 57 53 60 54 89 79 67 74 59 53 53 47 48 56 63 50 45 42 40 44 49 55 47 51 60
56 52 61 68 62 53 30 28 48 60 59 60 53 73 93 91 69 59 56 58 54 51 52 74 68 65 66 68 55 53 51 49 66 56 50 34 47 38 39 40 57 44 44 46
54 58 63 60 46 27 28 33 47 45 56 61 69 83 67 74 75 59 65 62 58 52 65 71 68 71 44 63 66 59 63 57 68 59 56 57 44 36 36 51 50 37 39 42
50 41 37 28 21 24 36 41 46 45 46 54 62 58 52 56 54 76 68 67 64 54 62 75 54 68 51 54 43 48 67 70 63 63 65 54 39 38 49 48 39 38 39 39
49 44 29 20 19 26 36 45 40 49 48 44 54 56 59 59 66 62 65 61 58 48 44 40 42 46 37 42 51 41 62 42 64 42 59 41 40 39 40 41 39 34 35 38
49 51 55 50 32 22 30 38 44 44 49 55 57 55 61 62 63 60 54 44 47 44 42 43 42 40 36 62 65 38 35 37 39 37 38 37 40 41 42 43 41 42 42 42
49 52 56 57 57 30 29 39 41 51 45 52 60 72 70 64 64 62 54 52 47 42 41 39 41 42 39 47 43 43 47 39 37 34 36 37 37 40 40 42 43 42 40 36
49 54 56 60 58 48 22 31 39 47 49 51 51 43 59 73 73 70 66 63 57 51 47 44 43 40 44 38 40 27 26 30 36 54 35 38 34 35 37 35 36 35 34 33
53 60 60 64 61 37 21 26 34 48 41 54 57 52 58 49 56 63 69 64 60 58 54 52 49 44 51 44 38 23 25 26 27 28 30 31 31 30 29 29 28 28 30 31
68 67 67 68 54 30 24 21 32 41 44 51 61 54 46 50 48 51 59 62 62 63 61 54 53 51 56 46 30 19 22 22 23 22 23 22 22 20 22 23 25 27 28 27
61 67 68 67 51 28 27 20 21 31 49 47 43 43 42 44 46 54 55 58 61 57 58 53 48 48 48 29 15 13 12 12 12 13 15 16 17 19 20 22 21 19 19 20
71 63 60 57 52 41 29 22 24 30 42 48 38 35 37 41 45 57 62 64 63 53 50 51 50 46 32 18 15 14 14 15 16 15 18 18 17 16 15 16 16 17 18 19
63 59 72 58 49 47 36 41 28 28 34 35 28 35 38 35 42 54 67 62 65 62 45 41 39 17 14 15 14 13 15 16 17 15 13 13 14 14 15 16 16 17 18 18
55 68 81 64 57 54 46 42 36 36 35 30 24 30 37 31 27 57 58 65 55 56 41 35 26 7 6 8 12 15 15 15 12 13 13 14 15 16 17 17 17 17 16 14
60 72 82 67 60 37 33 43 40 38 37 35 28 29 31 41 31 54 67 53 46 38 34 23 13 5 8 13 15 14 13 12 14 15 16 16 16 17 18 18 17 14 10 7
80 80 89 75 58 44 47 47 43 39 34 27 30 30 36 38 38 49 58 56 45 31 21 14 6 7 11 14 13 14 13 15 17 17 17 17 18 18 18 16 12 8 6 5
82 89 86 64 54 55 50 43 40 39 31 26 21 26 31 39 30 49 42 43 30 18 18 8 6 9 13 13 14 14 16 18 18 18 18 18 18 18 14 10 8 6 5 7
86 85 77 76 62 55 48 46 47 42 40 32 13 19 25 34 49 45 31 17 18 15 10 6 9 12 12 15 15 17 18 18 18 19 19 19 18 14 10 7 6 5 7 8
90 82 74 68 61 58 55 42 43 45 39 37 34 24 30 39 40 35 18 19 13 9 8 12 11 12 16 17 18 19 19 20 20 20 20 19 14 10 7 6 5 7 7 8
83 91 76 72 60 62 66 62 51 44 42 33 29 26 19 27 36 32 19 13 9 10 11 10 13 18 19 20 20 21 21 21 22 21 21 16 12 8 6 5 6 7 7 9

GFSNW_700_rhum_084.txt.gz
RH
75 76 74 64 85 72 52 35 59 70 63 77 88 97 94 90 97 78 72 84 88 94 86 89 95 90 87 88 87 96 87 88 83 64 71 72 69 63 56 57 54 55 64 86
76 73 76 80 77 77 48 30 58 66 71 96 97 88 100 98 90 70 85 72 77 94 97 95 90 90 78 76 71 72 74 73 88 78 77 71 71 57 50 57 49 57 70 86
77 82 77 79 89 75 56 51 84 96 98 94 100 88 86 78 75 70 63 73 93 91 91 92 92 75 73 68 66 62 62 71 83 86 81 83 75 59 42 48 52 66 67 87
67 78 80 90 91 70 59 64 78 93 88 84 80 90 90 82 82 72 74 85 88 88 85 92 91 81 68 65 64 52 59 63 69 68 70 63 61 58 51 51 52 58 72 61
65 64 76 84 89 81 64 62 83 76 74 65 84 82 95 69 78 89 86 86 82 87 86 83 80 76 71 66 61 48 48 52 66 59 65 54 48 47 49 56 59 55 67 77
62 64 69 68 66 71 68 62 59 61 72 82 74 64 66 65 79 79 86 98 69 69 65 62 55 49 44 44 38 37 44 45 54 56 53 66 66 50 49 53 53 61 68 60
63 66 62 66 70 74 68 55 57 58 52 42 40 48 57 62 54 53 56 55 60 59 57 54 53 47 43 41 39 40 46 47 48 46 63 74 42 50 53 53 55 59 61 61
54 62 60 43 44 56 52 55 50 55 46 42 43 50 60 55 55 50 47 51 46 49 45 48 62 53 53 46 45 44 43 48 51 61 48 42 44 37 39 40 50 46 48 56
56 60 55 40 27 26 36 42 37 32 22 28 30 46 59 58 45 39 38 42 41 43 41 62 66 67 55 59 50 42 44 42 60 58 53 45 48 37 33 32 47 38 38 42
53 45 22 20 19 17 21 33 41 25 21 24 28 33 47 47 46 40 41 40 41 39 53 62 64 65 40 60 51 34 35 38 59 60 57 52 46 41 33 42 50 40 37 36
24 20 16 20 22 23 24 34 37 37 21 23 27 30 41 44 38 43 48 50 48 44 62 61 45 64 46 44 39 36 40 58 62 55 59 61 41 33 29 43 34 31 29 27
34 26 19 24 29 31 33 33 37 41 30 27 33 33 37 37 37 38 45 50 47 43 42 40 42 51 36 39 54 46 34 31 57 43 56 50 34 32 34 34 33 32 29 31
48 43 36 23 24 30 31 31 36 47 44 30 29 26 29 31 33 39 42 38 39 42 39 43 41 38 37 51 60 48 29 30 34 33 34 32 34 35 35 35 33 34 33 31
58 57 52 46 22 29 33 36 39 48 47 52 38 38 41 42 46 48 46 41 36 34 36 36 38 37 41 38 33 33 32 32 30 28 32 31 30 30 30 32 33 33 31 29
59 60 62 57 41 20 33 40 39 41 45 45 51 42 42 44 46 51 52 51 48 48 46 43 40 35 36 31 30 18 20 19 24 29 29 32 29 28 25 23 23 22 22 24
42 61 63 66 58 27 28 30 32 39 37 40 41 43 51 49 52 56 56 56 56 55 52 49 42 36 42 39 30 14 18 18 21 21 27 25 23 24 22 19 21 20 21 22
43 57 62 65 62 46 23 27 32 31 35 43 45 37 35 47 48 52 56 56 57 58 56 46 43 39 48 43 21 12 16 20 21 20 21 18 17 16 15 17 19 21 22 20
48 53 64 68 64 37 33 21 28 32 36 36 39 33 29 32 36 48 47 49 60 60 59 50 42 41 42 25 10 7 8 8 9 10 11 12 13 15 16 16 15 15 15 15
46 62 60 64 68 57 36 26 20 23 35 46 30 28 30 31 33 45 57 62 52 50 48 47 48 47 30 11 11 10 9 9 10 12 13 15 16 14 14 13 14 15 15 16
47 56 57 56 64 61 52 40 27 24 21 29 28 30 30 31 39 49 59 57 56 67 49 44 37 15 10 14 14 12 13 14 14 16 17 14 13 13 13 14 15 16 16 17
51 56 53 64 63 58 58 43 34 29 28 29 28 28 32 38 38 46 63 67 56 58 53 44 34 14 6 5 6 8 10 13 16 17 13 13 14 15 15 16 16 17 17 16
57 61 62 60 72 59 53 33 30 27 34 34 31 33 36 39 40 34 65 59 51 43 44 36 20 6 7 6 7 13 14 13 13 12 14 16 16 16 16 17 17 18 15 11
69 74 69 70 67 58 46 34 38 39 34 34 31 34 39 44 42 42 45 66 57 48 35 17 9 6 6 7 12 10 11 13 13 14 17 17 17 17 18 18 18 14 10 8
62 84 80 65 62 60 48 42 40 42 42 34 26 22 33 44 47 42 50 56 47 33 18 10 7 5 6 11 12 11 14 14 16 18 17 17 18 19 19 18 14 10 7 6
78 73 70 72 61 56 50 49 48 46 44 39 38 19 30 42 44 45 42 35 26 21 10 8 9 8 11 11 10 15 16 17 18 18 19 19 20 20 18 14 10 7 6 6
88 64 54 55 55 62 63 55 48 42 43 45 40 32 26 29 36 46 39 24 12 9 9 10 11 13 10 11 16 17 19 19 20 20 21 21 21 19 14 10 8 7 6 5
90 42 42 48 40 50 58 60 60 60 50 42 39 35 31 35 36 39 30 19 16 16 15 13 13 11 11 17 19 20 20 21 21 23 23 23 21 16 11 8 7 6 5 4

GFSNW_700_rhum_087.txt.gz
RH
96 97 85 82 52 35 33 24 32 48 61 74 83 92 97 97 98 98 96 89 91 89 78 92 90 85 82 84 89 94 93 88 83 77 76 70 65 61 59 59 59 67 76 98
87 85 90 89 68 64 31 28 48 67 82 85 94 79 98 84 65 70 74 78 75 79 86 83 90 81 78 75 73 81 77 76 83 75 70 52 59 48 49 48 56 72 82 98
75 82 80 72 49 46 34 43 63 76 81 91 90 85 77 73 75 72 75 86 77 82 87 85 77 72 68 68 68 70 69 77 78 81 82 77 67 48 45 41 53 67 65 72
65 80 70 56 56 48 39 48 70 77 88 91 96 89 78 81 82 68 71 81 82 87 89 74 72 71 67 64 60 59 55 60 66 72 69 57 55 53 50 46 54 49 64 58
64 72 65 57 51 48 44 47 66 67 70 92 91 85 74 64 70 67 81 83 83 70 66 64 59 59 61 56 47 50 52 56 56 63 59 51 47 48 52 56 56 59 68 68
60 60 55 52 64 66 55 57 63 72 79 80 71 69 69 63 58 71 58 73 66 66 52 50 46 45 44 41 40 40 43 44 58 48 54 63 48 49 50 59 68 72 71 62
62 59 58 52 41 49 46 44 44 50 60 52 46 57 52 54 51 52 55 57 62 57 54 49 47 49 46 44 40 40 39 42 46 55 62 68 38 45 50 55 56 60 62 67
57 37 48 48 39 34 43 36 33 33 33 34 39 42 38 44 46 46 47 53 50 53 50 53 58 60 57 45 43 45 42 39 40 52 50 46 49 37 37 37 43 43 54 62
53 48 46 35 38 34 37 30 23 22 25 26 30 32 34 32 36 39 41 45 45 45 46 49 56 50 45 44 36 35 43 42 42 52 53 50 49 38 34 32 43 40 39 44
31 22 24 22 24 31 32 34 27 26 20 22 27 26 27 26 24 27 34 36 35 35 36 42 47 42 36 45 33 28 31 34 42 54 46 48 50 42 36 34 42 39 32 31
24 17 18 18 17 22 31 34 31 26 23 22 26 28 27 29 25 21 26 29 32 32 32 36 35 43 43 35 41 33 28 35 55 54 57 45 41 34 30 29 28 28 28 29
24 22 22 22 23 26 27 34 36 32 27 26 24 26 29 31 30 27 33 40 39 35 35 33 33 36 36 36 30 39 33 25 40 41 38 44 36 29 30 28 29 28 30 32
46 35 19 26 30 33 32 29 35 38 34 31 29 28 31 33 31 33 39 40 39 41 38 37 36 32 37 33 32 33 29 24 25 22 20 24 26 25 28 28 31 33 33 33
46 51 47 20 25 29 27 33 37 39 33 39 35 32 34 36 36 40 43 42 42 38 40 38 34 31 32 32 30 27 24 24 23 19 22 24 24 24 27 29 29 28 26 25
46 53 55 52 22 25 31 31 32 37 40 40 33 35 33 38 41 44 49 48 47 45 44 42 42 38 38 31 26 12 13 13 16 16 18 21 22 24 23 24 24 25 24 23
39 47 54 57 54 21 20 30 30 35 38 44 36 34 36 43 44 49 52 56 57 56 53 50 46 40 46 38 26 10 12 12 13 14 18 17 18 20 20 21 20 17 18 18
30 37 44 54 57 54 22 21 20 24 29 31 34 33 29 32 31 36 38 44 49 54 57 50 47 43 51 43 16 10 15 18 18 18 20 18 20 19 16 15 16 17 17 16
20 27 33 48 57 61 53 23 19 19 27 29 26 23 22 28 32 44 51 51 47 42 43 41 38 41 40 22 10 8 6 8 10 12 11 10 12 14 15 17 16 14 15 15
14 26 33 49 57 58 59 52 38 29 22 28 22 24 23 28 31 38 44 54 58 55 52 47 45 40 26 14 10 10 11 9 8 9 11 14 16 17 16 13 14 15 16 16
14 33 49 48 44 49 56 59 52 41 30 23 25 27 28 26 25 30 39 54 58 63 53 48 42 13 9 11 14 16 14 11 12 14 18 20 19 15 14 15 15 16 17 17
20 49 62 56 51 46 55 52 44 35 31 28 27 26 28 33 34 33 36 50 47 54 50 43 31 10 9 8 6 6 9 12 15 17 20 18 14 14 16 17 17 17 18 18
31 52 74 69 64 59 55 52 43 38 31 29 28 29 30 37 42 44 50 56 50 50 49 39 21 9 8 5 6 5 7 12 14 14 14 13 15 17 17 17 18 18 19 16
47 68 77 67 57 64 60 49 36 32 29 28 32 31 33 37 42 47 41 55 65 52 45 28 14 11 8 6 7 9 12 10 12 14 14 16 18 17 18 19 19 19 16 12
52 67 64 62 55 51 48 46 39 36 37 38 38 28 27 38 41 45 42 51 46 44 31 17 11 9 9 8 8 13 11 12 14 15 17 18 18 19 19 20 20 17 14 10
50 47 40 41 46 51 51 49 48 45 44 44 42 39 30 32 42 43 41 43 35 31 19 12 13 13 11 11 13 10 12 15 17 19 19 19 20 20 21 22 20 15 11 9
48 51 26 26 29 40 50 53 52 51 48 43 48 42 31 28 30 40 37 39 25 12 12 13 13 13 14 14 12 14 16 18 20 20 20 21 23 23 23 22 18 14 10 9
97 47 26 23 30 32 46 60 67 63 60 54 45 42 36 38 34 32 25 23 21 20 19 14 13 13 13 14 14 16 18 20 21 21 22 26 28 26 24 20 16 12 10 8

GFSNW_700_rhum_090.txt.gz
RH
75 70 28 25 25 33 38 38 41 38 47 68 96 99 92 98 100 92 95 83 92 91 94 97 91 84 83 85 92 92 85 80 74 66 62 66 68 63 66 60 65 68 74 94
73 58 27 18 27 40 55 48 60 64 60 75 80 74 79 86 92 89 94 86 86 90 84 83 82 76 73 71 77 79 76 78 80 67 58 54 60 52 49 54 59 75 76 76
69 55 24 22 37 42 48 49 62 68 70 76 76 77 88 87 81 86 82 88 91 81 76 73 72 69 69 64 65 66 65 72 77 74 77 74 59 47 43 48 52 66 60 69
61 50 40 30 42 48 45 53 66 69 76 65 73 71 73 81 83 87 90 87 72 68 75 65 69 69 63 54 50 49 52 57 61 58 62 59 57 50 44 42 52 48 55 52
51 48 49 43 41 40 44 48 70 64 66 65 74 74 64 57 67 67 72 64 72 68 58 60 59 58 57 48 47 52 51 54 54 58 56 65 55 57 51 51 59 60 62 60
49 44 40 42 42 42 43 45 59 60 56 59 56 55 58 52 58 64 67 77 77 66 49 46 45 45 44 42 42 41 44 43 53 46 52 60 48 46 52 62 63 58 60 55
45 42 43 41 39 44 49 41 44 50 50 53 47 54 51 49 51 57 59 58 57 50 47 45 42 40 41 40 41 43 41 43 43 54 55 52 34 42 44 47 48 51 49 50
22 41 42 35 33 39 44 43 43 38 38 41 39 41 40 39 40 46 48 51 50 49 48 45 42 40 44 40 41 43 41 41 40 50 49 38 36 32 35 35 35 37 43 48
16 16 27 39 33 27 30 34 35 36 34 33 31 31 34 33 33 34 37 42 44 42 40 40 42 40 37 39 35 36 41 42 46 48 50 49 46 35 36 33 33 38 38 43
10 13 13 19 25 32 32 28 29 30 28 28 30 30 28 29 29 30 33 32 33 32 34 36 36 36 34 34 26 26 27 34 40 47 43 34 41 40 38 37 32 37 33 32
26 10 11 12 16 22 28 37 26 24 23 23 28 30 33 32 30 29 30 31 32 32 32 33 34 34 37 33 27 31 28 28 36 48 48 39 34 35 32 28 27 28 28 29
41 28 11 10 13 16 20 28 30 30 27 24 24 28 30 34 36 31 36 44 48 43 39 39 37 36 36 36 28 28 33 24 25 31 23 28 32 33 28 28 27 27 27 28
37 43 35 12 11 15 19 20 26 26 29 29 26 26 28 27 31 30 30 43 43 44 47 46 45 36 37 36 28 28 26 27 27 21 16 17 20 22 24 24 26 27 29 30
36 42 45 43 15 13 15 18 19 21 28 31 27 33 31 32 35 34 32 36 38 37 39 40 44 40 36 35 35 30 25 24 23 18 18 20 21 22 25 26 27 28 27 27
33 42 47 51 48 21 10 14 15 17 22 26 27 28 26 32 29 36 41 46 48 47 45 42 44 39 40 34 29 16 16 12 14 12 15 17 17 20 23 24 25 26 29 27
28 32 45 53 57 57 33 11 19 21 20 20 20 19 21 25 32 37 36 39 44 51 61 62 57 44 51 43 28 8 12 14 14 13 14 15 16 18 21 24 26 24 21 20
20 30 30 36 52 56 59 42 18 16 19 22 18 13 15 20 22 25 29 32 37 44 49 43 40 39 50 39 17 9 15 13 16 19 17 16 19 19 18 16 17 18 20 19
11 18 23 29 32 48 54 60 60 30 18 17 13 12 14 15 19 26 29 35 40 41 37 31 29 27 27 18 10 11 11 8 8 11 15 16 17 15 14 16 18 18 16 17
5 11 22 23 33 44 53 61 64 64 46 34 19 17 17 20 23 28 32 43 48 47 48 51 39 29 20 12 15 17 15 11 9 7 8 11 14 17 19 20 16 15 16 17
14 6 11 26 37 53 57 63 68 76 65 53 38 30 28 30 33 36 34 48 51 57 44 37 23 9 12 11 12 16 22 20 17 13 13 16 20 21 18 15 15 17 18 18
19 12 9 26 51 54 59 57 63 58 43 34 28 28 28 30 29 32 34 42 48 56 48 38 27 12 11 10 9 8 8 12 23 23 21 23 24 20 15 16 18 18 18 19
22 17 17 26 55 63 58 59 49 43 36 32 29 28 28 29 30 30 36 38 38 41 39 35 23 16 14 10 8 7 6 6 9 15 17 17 15 14 17 18 18 19 19 20
29 28 28 25 38 58 62 53 48 40 36 31 31 32 32 34 35 36 31 34 45 44 42 30 18 13 9 8 8 7 10 13 11 12 14 14 16 18 19 19 19 20 21 20
49 47 46 30 30 25 26 33 39 38 35 34 35 34 31 34 36 40 37 44 41 45 38 21 15 11 11 10 9 9 14 13 13 15 16 18 19 19 20 20 21 23 23 19
58 47 37 22 18 16 23 31 37 42 41 41 43 44 41 35 36 36 37 38 37 34 25 18 13 12 12 11 12 14 12 12 14 16 19 20 20 21 22 24 24 24 22 17
59 47 32 17 18 18 22 39 40 43 46 47 49 49 43 38 34 39 34 37 27 25 23 14 12 16 12 10 10 14 14 14 16 18 21 21 22 23 26 29 30 24 21 15
96 67 49 31 26 18 23 42 49 51 50 50 50 46 42 38 36 31 31 24 24 28 26 20 17 13 13 15 18 12 13 15 17 20 22 22 23 27 37 32 40 45 20 13

GFSNW_700_rhum_093.txt.gz
RH
15 21 33 39 35 37 34 38 51 76 74 70 83 94 97 99 100 96 88 78 79 86 92 99 100 91 93 93 96 93 83 76 68 58 70 67 69 77 74 75 67 74 76 92
20 31 41 46 56 57 54 48 62 72 66 72 84 89 89 89 81 86 84 84 84 86 87 88 85 80 76 77 76 78 77 78 78 57 56 54 62 71 60 69 65 71 77 78
28 25 36 42 45 42 51 58 64 60 53 57 66 71 78 84 84 78 80 94 89 85 86 78 71 75 69 68 73 71 70 69 72 69 71 70 59 53 54 55 56 65 65 74
40 24 33 45 32 32 44 54 55 54 56 58 56 58 69 72 80 81 90 93 79 75 74 71 71 70 64 60 56 53 51 56 60 61 58 56 57 52 53 45 52 53 57 61
35 41 34 37 39 36 39 52 59 51 52 56 61 65 68 72 79 77 76 71 66 64 57 58 61 58 52 45 47 50 47 51 51 51 51 56 48 49 53 50 51 52 56 57
27 34 34 28 31 37 42 49 50 53 56 58 57 55 58 60 67 65 63 60 62 55 46 47 48 44 40 41 41 43 44 44 45 42 50 57 50 40 41 44 48 50 51 57
17 27 30 25 25 28 33 46 47 48 47 51 49 51 52 49 52 54 54 56 57 53 48 45 43 40 38 39 38 39 38 40 40 45 40 60 30 34 36 36 38 37 40 45
9 12 17 22 20 19 27 36 38 40 43 44 40 40 42 44 48 50 51 52 52 52 50 46 43 41 39 38 34 36 39 39 41 44 48 33 25 27 28 28 28 27 29 34
8 8 10 12 14 17 19 25 34 34 35 34 34 34 35 35 38 42 45 46 47 44 40 38 39 34 33 32 32 35 34 40 43 43 45 41 32 30 29 32 26 23 30 28
21 8 8 10 12 13 17 19 19 25 29 30 31 30 29 30 27 30 33 32 32 30 34 37 36 36 37 33 30 28 27 28 35 47 47 27 27 37 36 34 25 25 28 25
37 20 8 8 10 11 14 17 16 17 18 21 25 30 33 35 33 26 27 26 28 25 27 33 37 35 33 33 28 27 32 28 29 44 49 34 26 33 32 23 23 24 27 30
37 40 21 9 9 10 10 13 19 17 17 17 16 19 23 28 33 36 30 32 37 38 39 36 36 35 35 36 33 25 28 27 24 30 22 19 23 25 26 25 26 26 27 28
34 40 42 25 10 10 11 11 14 19 20 18 18 18 17 19 21 23 30 32 28 37 41 45 48 37 37 36 25 23 21 23 25 22 14 14 16 18 18 22 23 24 24 24
21 35 44 45 35 11 12 14 14 16 18 19 19 20 19 20 20 21 23 27 27 33 38 40 39 39 35 34 34 28 25 28 23 17 12 14 14 16 20 21 24 25 25 22
12 26 37 48 50 46 26 10 14 17 20 25 18 15 16 19 22 24 27 24 28 33 36 39 44 37 41 34 27 14 16 11 13 11 12 13 15 18 19 20 22 23 22 24
7 17 25 34 48 52 52 46 17 11 20 23 22 11 10 13 16 19 25 32 37 45 47 47 45 36 52 48 30 9 11 15 19 19 18 14 13 15 17 20 22 22 21 19
5 11 25 33 34 40 49 52 47 32 16 15 16 13 10 12 13 17 24 29 37 46 49 38 43 43 54 44 21 16 23 23 24 20 21 19 18 19 19 19 18 18 18 20
11 6 14 24 34 33 30 40 51 59 59 43 26 19 20 21 20 21 22 25 29 27 28 26 30 45 55 33 21 16 14 13 13 10 10 15 18 18 16 14 16 20 21 19
13 12 7 16 21 26 33 45 47 59 68 65 39 26 21 26 26 24 29 32 36 37 30 26 27 31 27 19 18 19 22 25 22 16 10 12 14 13 17 20 21 19 16 16
14 20 15 8 13 27 39 46 56 63 62 71 52 46 42 40 33 35 36 38 41 45 34 29 25 17 13 13 9 11 9 10 16 24 17 13 17 21 24 24 17 16 17 18
28 23 23 16 20 43 60 58 60 60 56 42 37 40 48 51 45 40 36 35 37 36 36 33 24 18 17 14 13 11 8 7 8 15 28 25 27 28 25 18 16 18 19 19
45 35 36 28 22 46 57 60 55 47 45 34 28 30 32 32 35 34 38 40 39 41 39 32 24 21 19 15 8 6 7 7 7 10 19 24 24 21 17 17 19 19 19 20
64 42 55 32 35 46 58 54 48 36 32 25 28 30 33 32 33 37 34 38 42 45 42 31 24 22 16 9 7 6 6 8 12 10 11 13 14 16 19 20 19 20 22 25
90 49 40 30 46 29 22 28 31 34 32 34 32 30 30 33 37 40 40 43 40 45 43 26 24 20 12 10 12 12 9 12 12 9 12 14 16 20 21 20 20 24 26 28
95 70 46 37 26 21 28 21 33 38 40 39 35 35 36 37 36 36 38 39 38 36 26 24 23 19 12 12 13 12 12 13 11 11 13 16 18 21 21 21 24 30 37 39
96 88 63 40 25 22 25 29 30 41 46 42 43 44 44 42 41 40 35 36 29 24 25 26 26 20 14 16 14 16 19 22 15 14 15 17 20 22 22 23 27 32 40 61
91 84 82 60 44 23 23 31 38 46 49 49 48 48 46 43 41 38 36 23 21 24 28 29 26 23 22 24 36 39 37 33 21 16 17 18 21 23 24 25 29 32 60 80

GFSNW_700_rhum_096.txt.gz
RH
36 42 40 42 38 38 47 58 63 63 59 40 49 86 96 96 90 80 77 75 76 84 84 96 96 88 90 92 97 95 94 87 68 59 68 76 70 80 82 88 71 80 82 89
30 38 40 44 39 45 52 57 66 71 62 65 76 84 86 87 82 80 84 89 89 88 88 83 80 78 77 78 82 84 81 78 70 58 60 56 60 72 69 71 82 76 80 84
29 33 32 31 40 46 49 46 53 57 66 76 75 73 74 78 81 82 83 84 76 73 74 71 73 74 70 72 70 71 67 67 71 66 63 62 54 65 62 64 64 63 71 94
21 26 33 31 32 38 40 44 54 56 59 56 60 63 72 68 75 82 79 77 71 70 73 73 72 67 61 58 57 57 57 54 54 54 52 55 57 52 60 54 53 51 56 62
16 18 22 27 31 33 40 43 51 52 56 57 63 67 73 75 77 76 72 67 66 65 68 62 61 57 49 44 47 48 52 48 48 40 43 48 47 44 44 52 55 51 50 53
13 14 16 19 24 30 34 39 44 46 48 49 53 58 62 66 70 69 71 70 63 54 51 50 49 44 43 44 44 46 47 46 44 38 39 39 41 31 35 39 42 45 50 48
10 11 12 14 19 26 34 33 36 39 42 45 47 49 48 49 52 55 51 50 48 46 45 44 42 42 43 43 43 44 46 46 46 40 38 50 25 26 27 27 27 30 34 37
7 8 9 11 14 19 24 28 29 32 34 36 38 39 42 44 48 49 49 46 43 42 42 37 31 37 39 40 41 40 42 45 45 43 40 24 22 24 25 25 21 24 26 31
8 7 7 8 9 11 15 19 22 23 25 26 28 30 31 31 34 38 41 42 40 38 32 32 32 28 28 30 30 28 36 36 41 44 44 36 22 28 27 28 20 19 25 31
31 10 8 7 8 9 10 11 13 15 16 18 19 20 20 22 21 19 20 23 24 25 29 34 37 34 35 35 29 26 27 29 33 38 44 21 22 25 32 29 19 16 14 15
38 37 14 8 7 8 9 9 10 12 12 12 14 15 17 18 19 20 21 19 20 18 25 28 30 31 28 27 25 26 27 27 26 39 48 34 18 21 25 21 18 18 18 18
34 40 42 16 9 9 9 10 10 10 12 13 12 12 14 14 17 19 17 21 25 24 23 28 32 33 33 33 31 22 24 20 23 22 14 14 14 18 19 19 21 23 22 22
19 36 41 44 24 11 11 12 13 12 12 13 14 14 14 16 16 17 18 18 22 25 25 29 34 30 31 34 26 25 22 24 25 22 14 13 14 15 17 18 19 20 22 23
7 21 40 43 46 42 17 13 15 15 14 13 13 14 15 19 20 20 21 24 26 26 27 32 35 35 36 38 36 32 32 32 28 20 13 16 14 12 15 16 17 21 22 22
7 10 29 45 45 46 47 47 29 14 17 14 13 14 15 16 19 23 24 26 28 34 36 34 39 39 40 32 29 12 18 15 18 20 20 17 15 15 15 14 14 15 16 18
12 7 12 38 48 49 49 49 48 48 35 21 12 10 10 11 11 15 23 28 32 40 43 44 38 34 52 50 28 8 11 18 24 25 26 23 22 20 17 17 19 20 21 22
35 14 8 15 37 45 47 50 48 52 51 46 32 25 18 12 9 13 17 22 33 43 47 37 43 49 67 51 19 16 16 13 13 14 14 13 20 25 23 21 21 20 18 16
58 30 16 8 13 29 39 43 44 51 62 68 62 40 29 25 22 23 25 25 26 32 41 38 35 41 51 33 18 14 14 13 14 16 16 13 10 18 24 23 21 18 19 21
68 61 23 18 10 9 16 36 46 53 60 76 63 47 34 30 27 26 27 29 31 36 36 43 44 36 27 20 18 15 10 9 9 10 15 18 11 11 18 18 18 20 19 16
81 71 60 24 18 15 12 14 29 50 55 72 44 44 52 41 36 35 38 38 37 42 38 37 34 19 18 16 14 11 11 11 9 7 9 17 16 10 12 17 19 18 16 16
88 83 76 46 28 26 23 33 31 56 64 44 34 42 67 58 60 54 50 39 35 36 37 41 33 20 19 19 19 16 8 5 7 7 7 8 22 17 19 21 16 16 18 20
99 97 88 60 40 33 25 52 38 31 48 49 39 39 57 72 73 73 54 41 36 38 44 39 28 19 20 21 18 8 7 8 6 7 9 11 21 26 24 16 16 19 20 20
98 99 96 84 57 35 46 37 22 26 29 28 32 39 42 46 50 52 40 40 41 46 43 34 24 23 24 22 12 10 12 14 9 11 10 10 14 18 18 18 20 21 20 21
98 97 94 82 54 38 30 22 18 21 24 31 32 34 40 43 43 44 40 44 42 43 43 26 22 23 23 20 12 11 12 12 12 11 9 11 14 15 17 19 21 21 22 24
97 96 87 78 66 43 25 21 22 24 28 30 36 38 39 38 41 40 41 42 41 38 27 25 24 25 24 20 14 14 14 17 20 24 22 16 14 16 18 20 22 22 23 26
96 95 82 74 66 56 51 37 30 34 34 40 43 40 40 39 37 38 37 39 32 27 25 25 25 26 23 20 18 18 20 24 29 38 40 28 18 17 18 20 23 24 24 26
95 78 73 80 77 59 39 31 36 40 41 44 45 42 39 44 43 39 36 29 24 27 28 27 30 26 22 24 25 29 37 35 42 39 35 33 28 20 19 20 23 24 26 26

GFSNW_700_rhum_099.txt.gz
RH
29 35 39 46 49 50 54 47 50 51 37 27 58 77 84 82 77 76 75 72 72 78 77 88 88 87 89 92 91 89 92 93 78 66 72 76 66 74 83 90 77 83 84 80
18 26 34 43 45 46 51 44 49 42 34 40 51 64 72 79 71 71 76 82 80 78 78 76 75 73 73 74 79 82 80 79 72 57 65 62 57 64 76 75 84 82 78 78
16 19 25 31 37 40 40 40 51 45 41 49 54 59 64 76 80 80 76 81 76 70 68 64 64 62 67 72 77 76 74 66 63 59 53 51 49 56 64 71 74 62 68 78
15 18 23 27 31 35 38 38 51 58 60 51 54 59 72 73 78 76 67 67 62 58 60 57 54 55 57 55 55 62 68 55 48 43 45 47 45 50 53 59 58 57 53 54
13 15 17 22 27 31 36 40 44 47 57 60 63 59 66 69 65 63 59 57 54 53 52 50 48 49 43 42 48 49 51 52 47 33 35 40 37 41 53 51 53 48 49 47
11 12 14 18 22 26 30 34 38 40 43 47 49 48 50 51 52 53 56 56 50 48 48 48 46 44 41 41 42 41 45 49 51 40 37 44 38 22 33 35 38 38 40 38
11 10 11 15 19 22 23 25 29 32 34 36 38 40 42 43 44 42 41 40 39 40 42 42 41 40 41 41 44 47 43 49 51 40 32 42 21 23 24 26 25 25 26 30
8 9 10 10 11 15 18 21 22 24 26 28 30 31 32 36 37 39 41 43 42 39 34 24 24 30 34 35 37 44 44 48 50 45 46 22 18 20 24 24 20 22 23 27
13 7 8 9 10 10 12 15 17 19 19 18 23 25 26 25 25 24 26 25 24 24 23 22 24 25 27 29 30 29 34 43 49 49 44 34 18 22 25 28 19 19 19 26
37 22 8 8 8 9 10 10 12 13 13 12 14 15 17 18 20 18 18 18 18 21 21 23 28 29 29 29 27 26 27 30 38 42 45 18 15 19 24 26 17 18 16 17
24 37 34 12 8 8 10 11 10 11 10 11 10 12 12 13 14 17 20 20 20 19 22 24 24 27 25 24 21 24 27 25 25 38 49 30 14 15 16 15 15 16 17 17
6 20 37 40 19 9 10 10 12 11 12 11 12 12 12 12 12 13 14 18 23 26 27 26 27 30 29 28 26 18 22 16 18 18 11 10 12 15 17 14 14 14 15 16
14 6 16 39 43 30 10 10 12 12 13 12 11 13 14 14 14 16 16 16 20 23 30 37 39 31 30 33 25 25 22 23 23 20 15 16 18 20 21 20 22 21 21 22
50 17 7 13 39 44 43 25 14 14 12 12 10 11 12 13 14 17 19 21 21 22 27 34 39 43 38 35 32 27 26 24 21 18 12 18 12 11 12 13 17 17 18 20
58 53 20 8 10 36 46 48 48 44 38 26 20 16 12 11 12 14 16 18 22 30 29 27 37 40 46 40 34 12 13 12 16 18 18 18 16 17 15 14 14 16 15 16
79 61 55 23 10 8 28 54 45 47 52 52 43 30 28 27 20 13 12 13 15 22 28 31 30 26 44 46 27 10 16 21 22 21 20 18 19 20 22 22 19 16 17 18
80 80 65 57 27 12 8 26 46 51 49 58 51 38 30 24 18 10 11 13 18 24 27 25 27 35 58 38 22 17 20 15 13 14 14 11 15 13 17 17 22 19 20 20
89 86 80 68 60 34 12 11 24 46 57 60 68 44 30 28 29 30 27 26 29 30 36 30 31 34 46 31 17 16 16 14 13 11 10 11 15 18 16 13 22 24 24 19
100 100 96 82 72 60 34 16 11 19 39 66 53 40 37 29 30 32 32 32 31 37 34 37 51 42 26 18 19 19 19 15 11 11 10 8 10 17 16 12 24 26 20 21
100 100 100 96 80 70 55 36 25 17 18 23 12 21 41 30 38 42 42 42 42 47 44 45 47 23 17 20 19 20 18 14 14 6 7 8 7 15 17 16 16 19 22 22
99 100 99 100 97 84 65 41 33 33 22 20 13 18 32 42 58 64 57 53 49 43 46 47 43 26 22 20 20 20 20 11 6 8 6 8 9 12 19 17 20 23 19 17
98 98 99 99 97 90 73 44 44 30 22 20 16 19 40 67 71 82 74 65 59 46 50 47 34 24 22 23 24 19 10 12 14 12 8 9 10 12 22 25 27 22 18 20
98 98 97 96 95 85 54 45 41 33 26 24 23 32 37 58 77 88 72 51 41 42 42 36 28 24 26 26 22 13 11 11 13 13 12 10 9 10 15 18 17 17 19 21
98 98 96 95 86 81 69 64 53 35 26 31 31 35 38 44 60 61 42 43 41 38 42 27 25 25 23 24 22 20 14 13 15 16 18 24 26 17 14 15 16 18 21 22
98 96 91 77 74 71 57 40 36 34 32 41 44 44 43 44 43 42 43 43 42 36 26 24 23 22 23 25 26 24 21 19 18 21 22 22 27 38 26 19 18 18 21 23
98 95 85 66 74 71 72 69 58 48 42 46 55 48 51 49 39 39 37 40 29 24 22 22 22 23 24 26 26 27 24 26 29 31 27 29 37 36 31 28 27 22 20 21
96 78 70 66 73 76 76 71 65 62 67 76 67 57 43 42 41 40 35 25 23 26 25 26 26 24 25 25 26 28 26 24 26 27 25 26 28 32 34 36 37 37 39 27

GFSNW_700_rhum_102.txt.gz
RH
24 27 30 36 39 43 36 31 37 43 30 26 42 50 60 63 65 68 76 76 76 76 83 85 83 86 87 86 76 74 67 66 65 67 73 80 79 82 76 84 79 81 76 65
21 25 28 29 29 33 29 26 37 43 37 57 57 66 71 77 68 67 72 77 72 69 68 70 69 66 66 65 65 64 62 63 78 60 63 67 56 57 62 72 78 82 67 56
18 23 28 29 26 26 24 24 40 42 46 49 58 66 72 77 73 69 63 66 61 58 58 59 59 55 53 56 60 56 52 53 54 54 52 49 50 50 54 67 85 66 62 64
16 18 22 26 29 28 28 27 38 48 53 52 50 51 62 57 60 61 57 59 56 53 52 48 49 49 46 45 46 49 57 56 50 41 42 44 40 40 49 49 58 66 50 45
14 15 19 22 25 27 29 30 36 38 44 48 50 47 53 51 51 50 50 47 44 42 43 42 43 46 43 43 45 47 50 53 45 28 30 33 35 35 39 43 43 44 45 38
13 14 16 18 19 22 23 23 27 30 30 32 35 38 38 39 38 39 40 39 40 40 40 39 37 38 39 40 44 48 50 53 53 48 35 36 34 19 20 23 30 30 36 28
11 12 14 16 16 17 18 18 18 19 22 22 22 22 23 26 28 29 28 30 32 35 34 34 31 32 36 38 44 47 51 54 54 46 37 46 19 18 19 22 25 25 24 27
11 8 11 12 12 14 15 17 18 18 17 20 21 22 23 25 25 27 28 30 29 28 25 22 20 25 26 27 31 36 45 55 51 52 54 22 14 15 19 24 19 21 20 25
34 21 8 9 11 11 12 14 15 16 17 15 17 19 19 16 14 13 13 14 15 17 19 22 26 28 25 27 28 25 34 47 59 63 50 22 13 17 19 23 20 15 14 13
11 33 34 12 8 10 10 11 10 11 12 12 12 13 13 14 17 17 18 17 18 19 19 24 26 27 26 26 27 25 29 37 52 74 61 21 11 13 18 25 14 14 14 15
10 8 28 37 33 13 8 9 10 11 11 13 13 12 12 12 14 16 18 22 20 20 21 22 24 26 26 25 21 21 24 25 25 43 65 40 11 14 14 15 16 16 19 20
50 19 5 19 32 38 33 11 8 9 10 12 14 15 15 14 15 15 14 17 19 21 23 24 24 24 26 26 35 20 23 18 20 18 11 10 11 13 17 17 15 15 16 17
70 55 34 6 9 26 36 41 31 17 10 8 9 11 13 15 16 17 17 15 18 19 22 26 31 29 29 34 26 24 21 21 24 20 13 15 17 20 20 22 22 24 24 23
78 73 58 45 11 6 20 33 39 40 37 31 21 12 11 14 14 15 16 18 20 22 23 28 31 31 27 29 27 21 19 18 17 17 11 17 16 16 15 14 15 16 20 25
88 85 76 62 51 22 7 9 23 36 40 35 30 28 31 30 23 15 14 18 23 25 27 28 32 28 37 28 23 10 12 14 16 16 20 20 20 21 22 23 22 20 17 20
66 87 96 81 66 55 34 12 16 17 29 32 30 21 19 19 19 26 32 24 18 26 32 30 29 28 42 35 26 16 19 23 25 22 18 14 16 22 25 25 31 30 28 23
51 74 92 96 88 71 57 33 28 15 18 33 25 14 11 16 21 23 20 19 17 19 22 24 30 33 49 32 21 16 22 21 16 14 13 12 16 14 18 18 19 24 26 24
66 83 92 100 98 92 79 55 30 18 18 26 21 17 15 13 14 21 24 31 34 31 36 31 29 34 37 31 14 21 20 20 20 19 13 11 11 10 12 19 22 20 25 27
80 100 100 99 98 99 94 83 65 40 31 38 21 18 21 16 18 22 27 33 36 39 35 32 39 32 25 12 22 24 27 25 24 23 14 12 7 8 8 12 18 15 25 27
99 96 99 98 99 92 92 84 76 58 46 40 42 37 34 36 30 33 41 41 42 46 40 41 40 20 12 16 20 20 21 20 19 18 14 7 8 8 8 10 14 12 14 18
98 98 98 98 99 100 97 95 82 66 50 44 41 38 34 39 39 51 52 57 52 52 49 51 44 16 15 18 20 20 21 21 20 11 13 16 10 7 8 9 14 14 19 21
98 98 97 97 97 98 95 90 76 63 51 44 40 34 35 35 47 62 68 64 59 50 58 54 36 17 19 23 24 24 22 15 11 12 13 17 11 8 8 12 18 20 22 19
97 99 98 96 92 94 98 80 67 54 45 42 36 38 41 52 61 81 74 72 66 61 52 35 18 17 20 22 25 22 16 13 11 12 16 16 12 10 10 10 11 14 16 16
80 98 98 93 84 90 72 68 70 59 55 51 42 42 44 49 61 78 74 67 53 47 44 22 19 22 25 24 23 18 18 16 16 16 17 19 21 23 26 31 26 18 17 17
97 94 95 72 65 71 74 66 58 63 58 49 51 46 49 51 57 52 56 49 46 40 26 22 21 19 20 24 24 24 23 22 23 24 27 27 23 24 32 36 32 26 22 20
100 96 87 81 77 70 71 75 77 80 93 91 76 64 57 57 49 46 41 49 37 28 25 23 23 23 23 24 25 26 26 26 28 25 22 31 36 32 26 24 33 36 37 38
97 90 36 52 75 81 73 80 80 95 96 96 97 96 89 79 56 44 40 33 26 24 28 27 27 28 27 28 32 38 37 33 34 34 29 41 60 60 58 56 38 27 25 27

GFSNW_700_rhum_105.txt.gz
RH
25 24 23 22 24 25 24 19 25 35 30 27 39 51 61 63 60 57 62 62 74 89 91 94 91 91 97 77 71 98 64 71 84 77 71 71 94 86 75 71 68 70 66 60
25 26 23 21 19 21 19 22 26 34 30 58 59 56 55 61 61 61 66 71 67 65 74 82 79 65 62 60 62 85 59 79 79 67 65 64 75 82 80 75 84 76 59 49
20 23 25 26 25 24 26 26 37 43 46 53 59 70 65 68 63 60 57 60 58 59 70 59 64 63 52 51 50 49 46 69 70 61 59 62 66 72 63 75 81 57 54 44
17 21 24 26 26 29 29 31 38 38 42 44 44 47 52 52 55 55 52 53 48 45 64 45 46 44 41 42 43 41 46 62 61 33 32 38 42 43 68 75 44 64 43 53
13 17 18 19 23 23 24 25 29 35 31 30 34 31 37 36 37 36 38 40 40 37 38 38 43 43 42 45 38 41 39 53 41 22 27 27 28 27 31 48 62 61 46 24
11 13 16 16 16 18 20 18 21 22 26 25 22 25 23 24 25 26 26 26 24 26 27 29 29 30 31 32 34 37 40 42 55 65 39 36 35 17 15 17 19 22 46 36
9 10 11 14 16 16 16 18 16 17 18 19 20 20 19 21 22 24 24 24 26 23 19 18 17 17 20 24 32 40 52 61 72 51 47 51 27 14 13 14 15 18 19 20
28 14 8 10 10 13 15 16 18 19 18 19 20 21 22 22 21 21 18 18 17 16 17 16 18 34 23 22 24 29 41 69 80 73 48 26 16 11 12 14 12 14 15 18
7 23 28 10 8 10 10 12 14 15 17 15 14 18 20 20 16 15 14 15 16 18 19 20 45 30 31 39 25 22 30 46 74 63 52 24 19 14 15 15 22 12 13 13
30 7 11 30 31 14 8 9 10 10 11 11 11 11 13 13 16 18 17 18 18 19 21 42 44 43 24 33 42 29 29 43 63 74 65 46 21 12 14 21 21 13 14 15
56 39 11 6 17 33 37 19 9 8 9 9 10 11 11 11 12 13 15 19 19 23 24 27 45 30 42 22 21 20 26 40 60 62 58 54 11 12 11 14 13 16 18 18
67 64 51 26 7 7 18 33 37 24 12 9 8 8 8 9 10 11 11 16 20 20 22 26 27 30 40 29 33 27 22 16 31 22 19 12 11 13 15 16 19 21 20 19
54 63 67 60 45 16 6 9 21 32 36 30 23 21 21 11 9 9 11 10 14 18 21 26 32 30 31 50 45 31 21 20 21 18 11 13 15 16 18 22 24 26 23 24
47 47 56 66 68 57 38 10 7 12 20 26 26 22 30 24 28 33 33 21 13 13 16 24 27 31 28 27 27 24 26 22 21 20 18 19 20 18 18 17 18 17 18 18
43 40 48 52 63 69 66 53 28 13 11 11 13 18 21 24 28 31 27 24 22 20 21 20 20 21 23 20 24 17 20 19 23 24 25 27 27 20 19 19 20 20 22 20
43 37 37 48 66 86 83 71 56 44 31 26 21 22 14 15 21 23 21 25 34 34 32 26 21 19 31 29 22 17 19 21 23 23 21 19 16 14 13 13 17 17 18 20
37 36 36 38 44 61 90 91 79 74 62 36 26 26 22 14 17 24 26 25 23 25 26 25 26 22 35 32 19 15 15 20 21 20 18 16 15 12 12 11 10 11 16 17
26 29 30 42 42 59 80 95 98 94 83 65 45 36 38 32 27 25 26 28 33 33 37 34 31 32 36 25 6 10 18 21 21 24 24 23 20 14 14 8 8 8 12 16
19 27 32 51 49 45 68 88 97 96 88 68 67 56 47 41 33 30 31 31 36 37 33 33 39 32 24 8 11 16 22 24 23 27 31 28 21 14 8 8 8 8 12 14
22 62 99 99 84 86 85 87 91 97 89 84 66 57 57 58 56 54 51 46 40 45 37 36 33 18 15 15 16 18 20 25 25 22 23 30 17 9 9 9 10 11 14 15
33 80 97 99 99 100 94 98 99 88 80 71 56 55 54 61 62 65 61 52 49 55 49 44 41 18 16 15 17 19 20 22 22 21 20 11 13 14 11 10 11 13 15 17
28 36 60 88 97 99 91 98 96 86 73 64 56 54 55 52 56 67 68 62 54 51 61 56 31 19 19 18 19 23 24 23 18 12 12 12 14 12 10 9 10 13 18 20
77 96 99 97 85 79 100 98 87 65 61 57 53 51 51 53 66 78 72 78 73 70 65 50 28 24 20 20 22 24 22 16 13 13 14 16 17 20 22 24 24 22 19 20
81 98 97 87 78 88 62 67 75 73 72 73 76 79 84 73 73 78 78 78 74 62 52 32 26 24 24 25 24 23 18 17 16 17 20 23 25 24 23 23 28 33 32 28
97 99 84 70 55 41 66 77 74 69 69 72 83 90 81 71 71 76 73 65 51 46 25 25 26 25 24 24 25 21 22 21 22 24 25 23 19 18 27 32 28 23 30 32
99 94 79 60 65 57 52 62 61 78 83 94 97 96 96 94 86 76 52 55 40 31 30 30 32 32 30 26 25 23 23 26 32 36 34 36 34 28 32 47 68 67 58 36
97 79 48 46 45 40 44 48 60 85 96 97 97 96 90 95 95 83 70 61 53 46 42 39 40 47 43 30 26 30 46 54 47 42 41 45 49 46 44 43 44 82 90 82

GFSNW_700_rhum_108.txt.gz
RH
24 19 18 16 23 24 19 19 21 27 27 28 50 50 52 58 54 54 72 80 88 88 87 84 87 89 91 73 66 99 66 86 84 82 79 72 83 87 83 70 83 77 69 65
23 26 22 21 22 24 29 30 37 41 33 44 52 63 63 63 63 62 68 68 65 67 74 79 80 65 59 55 52 55 52 85 77 72 71 64 53 53 56 77 73 74 76 57
18 22 25 23 24 27 29 32 40 42 45 45 52 56 55 54 53 52 50 53 54 67 58 54 45 43 41 38 36 35 33 41 49 68 61 64 64 64 65 76 83 65 66 50
14 17 18 22 22 22 28 28 34 38 39 41 44 42 44 46 47 47 41 38 32 30 46 42 37 33 30 30 31 32 32 30 49 36 27 28 30 38 57 70 45 59 32 47
11 13 14 15 18 19 20 22 26 29 33 36 32 34 36 34 35 31 38 38 35 35 43 38 46 38 40 45 34 34 33 35 33 13 20 30 28 24 28 34 51 48 31 18
9 10 12 13 14 15 16 17 18 20 24 22 22 27 24 25 26 26 27 26 28 29 30 31 32 31 31 32 34 34 38 38 40 29 45 35 21 11 12 12 15 17 37 12
25 15 8 10 12 13 14 13 14 15 14 16 18 20 22 22 23 24 24 22 19 20 17 16 14 15 16 19 22 38 50 52 54 45 39 73 26 21 13 11 11 17 16 15
8 19 26 9 8 10 11 14 15 16 15 17 17 17 18 18 16 16 14 13 14 15 16 16 17 33 29 26 23 25 32 54 75 76 67 25 15 12 12 15 8 10 10 14
39 10 9 30 28 11 8 9 10 12 13 14 14 14 13 15 14 12 11 14 14 16 16 18 30 34 34 34 27 25 31 44 74 71 63 51 22 20 13 12 10 12 10 10
63 51 20 7 18 32 31 23 11 8 9 9 10 11 12 13 14 14 12 13 14 14 19 26 44 43 34 24 38 31 28 34 46 60 76 30 15 20 17 13 16 15 11 10
56 65 62 46 16 8 20 30 32 29 19 10 8 8 10 12 14 17 18 20 17 17 18 25 41 34 32 22 17 18 21 25 48 68 72 58 15 12 12 9 10 12 13 14
46 44 50 63 63 49 17 8 17 24 29 31 28 24 18 11 11 14 15 22 24 20 19 22 24 19 24 26 31 23 28 15 30 23 11 8 10 11 13 15 16 17 17 18
44 43 43 41 46 60 60 53 31 12 9 14 23 26 27 30 26 16 16 18 20 20 25 30 31 27 24 27 23 22 26 21 21 18 11 13 16 17 18 18 18 19 16 17
48 47 49 43 40 40 44 56 57 55 50 38 20 21 26 25 28 24 31 34 39 39 33 25 30 31 29 29 23 21 22 20 21 18 16 21 21 22 21 22 20 15 15 15
55 53 50 47 40 36 37 41 50 57 50 46 45 41 35 24 19 17 20 29 37 34 34 33 29 33 41 31 29 15 16 17 22 20 21 22 19 22 23 24 19 19 17 17
53 49 45 41 38 36 35 38 47 55 58 60 53 42 43 40 17 17 15 17 28 26 32 35 37 38 44 37 25 10 12 18 23 22 25 27 24 22 19 16 15 14 14 14
49 45 40 35 34 34 46 54 57 58 62 74 66 55 45 36 34 36 31 28 26 28 27 23 25 23 42 40 16 11 15 22 27 32 32 26 24 22 21 17 14 13 10 10
37 32 28 23 24 24 38 65 59 60 70 77 69 53 48 45 45 47 41 33 30 31 35 34 33 34 37 27 17 19 20 23 21 21 34 32 29 28 29 26 16 11 9 9
17 13 13 15 18 20 42 65 87 85 81 91 75 42 52 53 52 49 50 53 55 54 47 42 46 34 27 20 22 17 15 18 25 28 26 33 34 33 32 25 13 9 10 9
10 18 24 20 30 48 70 76 78 86 80 80 65 49 58 60 68 72 72 67 57 55 53 47 42 28 24 24 18 17 16 18 19 20 23 28 28 33 32 12 12 12 10 10
4 6 16 21 29 43 70 83 91 86 80 70 57 55 63 72 71 76 78 69 57 56 66 58 55 32 25 21 23 22 20 21 23 22 21 19 17 13 13 12 10 10 11 12
7 14 14 13 17 30 41 93 98 88 79 69 65 63 61 61 64 67 77 73 66 55 67 64 49 31 30 30 26 23 23 24 20 13 12 12 12 14 16 15 13 13 16 20
14 19 77 46 38 37 98 98 87 70 68 68 70 69 74 67 69 78 73 76 70 68 66 52 37 37 34 30 29 28 24 17 13 13 14 15 18 21 24 25 25 26 27 28
59 67 54 33 38 69 47 51 61 69 78 86 89 77 93 92 95 92 94 90 82 74 59 41 39 32 30 29 29 26 19 15 16 16 18 22 26 24 21 22 28 28 26 26
62 95 63 48 43 24 30 61 85 89 90 87 87 84 84 94 96 96 97 87 67 60 34 32 35 47 45 39 34 26 20 18 19 22 26 29 31 33 36 40 57 62 39 50
93 68 37 38 40 38 35 47 71 77 89 96 96 99 98 95 95 92 77 76 59 50 48 43 47 50 56 61 58 48 28 22 22 30 36 36 37 38 40 52 61 71 90 91
75 20 9 14 21 32 46 66 72 76 80 71 87 98 86 94 96 92 81 61 52 48 56 61 60 69 68 69 75 82 88 42 25 36 41 39 44 54 63 67 66 63 92 96

GFSNW_700_rhum_111.txt.gz
RH
22 22 24 20 27 32 33 27 27 26 28 30 37 42 46 59 65 67 81 77 83 82 79 80 86 79 76 63 67 80 74 90 85 73 76 86 87 72 76 76 86 79 79 63
19 21 23 27 25 27 34 39 43 42 39 46 49 56 57 56 58 59 64 71 73 80 79 72 69 66 62 60 58 57 57 64 72 85 77 72 79 66 71 80 76 75 81 49
16 16 18 22 25 26 27 32 39 43 47 50 54 54 55 59 58 56 56 62 59 58 64 52 39 40 40 40 40 38 37 46 42 62 55 56 61 46 50 64 72 56 44 21
13 12 12 15 17 19 21 20 26 34 37 41 44 48 47 46 46 46 43 42 47 58 58 57 47 43 39 37 36 34 32 27 32 29 28 35 36 39 53 66 48 59 25 27
10 12 11 10 12 13 13 13 15 17 18 24 23 24 31 33 33 29 30 29 31 30 29 33 34 36 34 34 37 36 37 36 35 19 25 37 36 28 30 36 49 53 37 15
21 10 10 11 11 11 11 11 11 12 12 14 14 16 18 19 21 20 21 22 24 23 22 21 22 23 26 31 34 35 39 40 39 26 30 23 18 16 15 13 11 11 24 4
12 22 14 9 9 10 12 11 11 11 11 11 13 16 17 19 19 18 18 17 15 16 15 15 14 15 16 18 20 30 41 48 49 39 30 56 15 20 16 14 9 9 6 6
57 24 16 27 10 8 8 10 11 12 13 13 14 14 13 15 17 16 14 14 13 13 15 15 15 23 28 30 25 25 31 45 47 52 67 20 10 11 9 8 6 6 6 6
58 58 44 9 27 29 17 9 9 9 9 10 12 11 10 11 11 11 12 14 13 15 15 16 18 22 34 27 28 25 32 44 54 75 70 57 10 13 15 16 9 8 8 8
48 49 57 59 33 10 21 31 32 24 14 9 8 9 10 10 11 12 11 13 15 14 17 19 25 31 33 27 24 26 28 40 53 68 74 22 8 12 19 19 9 9 11 11
46 47 42 43 53 58 47 14 10 20 28 32 26 12 8 9 10 12 13 15 17 19 19 23 26 37 24 23 19 17 20 20 28 64 84 43 11 10 12 10 12 13 15 17
48 45 44 41 39 39 47 55 53 42 17 11 14 23 30 30 22 19 16 13 13 16 18 24 23 25 26 25 27 20 24 16 21 17 8 10 13 15 16 17 18 19 20 23
53 46 43 44 47 41 37 37 42 49 49 46 29 28 23 20 22 29 22 21 22 21 25 30 32 29 25 26 21 24 25 24 24 23 11 16 19 22 23 24 25 26 26 25
60 56 51 50 49 46 43 36 33 32 34 42 33 43 46 43 28 23 25 22 23 27 31 39 45 39 31 25 24 25 25 26 26 27 16 20 22 28 27 28 32 32 31 28
66 67 59 52 47 43 40 37 34 32 36 34 35 33 39 40 42 39 33 34 28 33 42 43 45 35 35 31 29 14 15 16 22 21 21 26 23 26 29 31 34 28 25 22
69 68 63 57 52 44 40 36 39 43 38 34 30 28 28 35 42 22 35 37 26 22 28 36 36 31 37 36 28 24 27 26 28 24 25 26 24 23 26 32 30 29 24 18
63 64 62 55 50 44 33 38 37 32 35 43 38 32 36 38 37 38 39 41 43 42 36 34 36 36 46 45 34 28 26 27 27 27 28 24 26 32 34 29 26 26 28 20
66 63 58 54 47 39 26 25 28 33 47 65 58 43 42 45 47 48 46 45 42 44 48 46 44 45 54 38 29 29 27 21 19 21 25 29 31 31 34 34 34 33 31 20
60 53 37 30 30 28 25 27 28 36 53 73 66 50 52 53 54 60 60 62 65 64 59 57 58 45 35 31 33 28 22 23 25 19 19 21 27 37 39 37 36 35 28 13
24 23 23 15 20 30 27 25 20 19 32 47 48 46 64 64 66 74 76 80 71 64 63 59 54 40 36 35 31 28 28 26 24 21 22 22 24 27 29 32 33 29 14 12
8 8 9 13 9 11 12 16 39 59 64 60 57 64 62 68 62 68 78 76 67 66 74 66 64 42 33 35 36 34 31 28 25 22 17 14 14 14 14 14 13 12 12 13
5 6 8 5 4 8 15 61 74 63 72 70 72 67 67 68 70 67 70 71 72 67 73 70 55 44 46 40 33 31 32 28 20 15 14 14 16 17 19 22 24 25 26 26
6 8 10 9 24 23 69 86 66 72 74 76 73 81 84 72 79 79 80 70 70 70 68 57 49 47 37 45 47 44 26 18 15 16 18 18 19 24 26 22 20 21 23 29
10 27 32 23 30 36 28 39 52 72 83 88 94 95 86 77 82 84 87 86 81 81 66 49 45 39 47 52 58 61 63 46 20 19 20 23 26 29 30 32 36 40 53 73
33 17 22 21 27 27 24 38 66 95 94 95 93 87 83 84 93 94 85 81 84 77 49 45 48 50 60 62 73 75 72 69 70 46 41 28 29 34 37 39 39 40 45 60
19 15 12 22 18 18 28 36 51 70 76 78 93 97 93 96 96 80 75 81 68 45 36 49 62 66 66 73 62 69 60 64 69 68 70 80 42 33 41 45 46 53 61 63
19 8 6 7 8 9 20 38 44 55 74 92 94 96 90 90 89 89 79 61 30 41 54 59 46 55 70 72 68 55 47 33 38 61 80 83 71 47 48 70 83 91 94 81

GFSNW_700_rhum_114.txt.gz
RH
21 26 27 27 33 36 32 30 35 32 36 40 47 50 55 67 65 64 72 68 74 80 80 86 79 66 70 64 68 72 77 81 72 61 76 83 82 83 72 73 74 78 83 45
20 19 24 27 28 32 34 34 36 40 42 45 49 55 60 63 66 65 69 76 78 75 78 72 73 71 67 66 66 69 58 70 73 79 77 82 95 82 83 77 79 78 84 36
15 18 17 21 22 22 27 29 32 36 39 43 46 49 51 54 55 56 55 58 64 64 62 53 47 47 49 49 53 53 54 57 53 55 60 64 72 58 63 78 84 73 52 19
10 13 15 14 14 16 15 15 17 16 20 25 30 33 38 38 37 39 38 43 44 44 46 43 39 38 37 37 38 39 41 35 33 27 27 40 37 38 45 54 40 67 17 17
17 10 12 14 13 11 11 12 10 10 11 12 15 14 18 19 20 22 24 26 27 30 32 31 34 33 32 37 38 35 33 32 28 16 17 24 24 19 20 26 30 35 19 11
13 18 13 10 12 13 10 10 10 12 10 12 13 14 14 15 15 17 17 18 19 19 21 19 19 20 22 25 32 38 43 40 41 26 27 25 16 8 8 9 11 11 21 4
56 23 14 20 10 10 12 13 12 12 13 13 14 15 15 16 16 15 14 13 12 13 14 15 14 16 18 20 22 29 42 49 52 38 27 44 10 14 15 18 13 13 8 4
59 58 50 16 18 22 10 9 10 12 13 14 15 15 14 12 14 15 14 13 13 13 14 14 13 20 28 30 28 25 30 45 47 47 58 16 10 10 13 11 7 8 7 7
49 51 56 58 42 13 19 27 21 11 9 9 11 14 12 11 11 12 13 12 12 13 14 14 14 13 17 22 24 23 29 40 55 69 65 48 11 12 12 12 9 10 8 10
46 47 46 46 55 56 48 22 13 20 28 27 18 15 10 11 12 11 11 12 13 12 14 16 20 25 29 28 20 19 27 36 47 67 76 19 8 10 13 17 10 12 14 17
50 47 47 44 42 43 45 51 52 43 22 12 14 24 24 26 23 19 14 17 15 15 16 16 18 24 23 20 18 17 19 21 26 61 76 40 12 14 17 18 19 21 24 26
56 52 46 44 43 45 43 38 37 41 48 47 44 36 16 15 22 26 23 23 18 16 17 20 20 19 22 20 21 19 23 17 16 17 12 12 15 17 19 21 23 26 27 28
63 55 52 48 49 49 46 44 40 34 32 33 35 39 32 29 25 38 26 24 24 27 26 27 29 31 35 33 27 24 21 23 25 24 15 19 21 24 24 26 28 27 29 29
71 63 58 56 55 53 48 43 40 37 34 33 32 35 35 33 39 45 41 25 27 29 31 32 31 31 33 39 40 36 32 31 31 32 25 28 25 26 31 33 35 37 35 33
70 71 67 64 62 58 52 47 43 38 36 35 33 29 30 30 28 35 42 48 42 36 33 32 32 31 37 39 38 28 30 36 38 34 32 33 24 24 23 24 32 38 37 34
74 68 65 60 62 60 55 48 43 41 37 34 30 30 29 27 34 40 30 34 42 41 36 33 38 40 45 44 38 34 35 40 36 33 32 29 24 26 29 31 34 36 37 34
68 67 62 57 56 55 52 45 41 40 34 32 35 31 31 37 36 35 36 37 41 45 47 46 47 44 57 53 37 37 38 34 29 26 29 26 26 23 24 30 36 39 38 33
70 67 68 58 55 55 50 36 35 34 33 36 40 39 36 38 42 48 47 46 45 45 48 48 49 52 57 50 42 40 38 32 28 28 28 25 22 20 24 31 35 36 35 37
71 67 69 62 55 46 35 31 28 29 35 39 37 34 34 39 49 62 63 65 68 67 61 61 61 48 41 40 43 40 36 37 36 32 28 24 21 20 22 28 34 35 36 38
73 63 42 31 33 31 30 31 26 18 20 23 26 28 48 49 55 70 72 78 74 70 67 64 58 43 39 41 43 42 40 33 32 29 25 20 16 15 14 16 18 22 27 21
38 22 17 17 15 15 14 15 23 39 44 50 54 63 63 64 59 63 70 71 66 70 74 71 66 46 46 46 42 38 34 23 18 18 18 17 18 18 20 21 22 23 23 23
15 11 14 12 10 8 13 28 36 36 49 61 73 70 70 73 71 69 68 68 68 71 75 68 54 51 46 49 53 58 62 60 37 24 26 27 26 26 27 27 25 23 24 28
7 7 9 9 22 20 19 32 56 68 77 78 76 81 85 80 80 76 67 77 75 73 70 57 49 48 50 57 60 68 68 69 69 67 56 35 29 34 33 33 34 35 39 42
8 11 17 12 30 26 28 31 41 63 78 83 86 92 90 86 76 70 76 85 82 82 74 40 51 51 58 67 76 77 68 57 54 58 52 56 66 74 71 40 40 40 40 41
14 15 14 15 20 23 29 47 54 78 85 93 97 90 74 67 77 71 69 69 78 84 42 57 54 60 64 63 75 79 66 59 49 46 41 32 44 66 74 77 73 49 48 44
14 13 10 11 11 20 32 40 62 73 65 65 72 73 73 79 85 80 68 72 58 35 35 43 37 39 52 72 79 79 63 47 42 36 34 32 33 47 66 79 79 75 71 74
19 10 7 7 7 8 16 28 51 64 86 87 92 100 80 79 88 89 83 48 26 42 49 42 34 61 82 72 52 52 49 42 39 40 48 53 55 57 59 57 57 71 84 93

GFSNW_700_rhum_117.txt.gz
RH
18 24 28 30 37 39 34 33 38 42 43 43 49 49 51 58 56 52 64 75 75 80 81 84 81 66 69 58 70 82 80 82 67 62 74 75 72 81 71 72 70 81 85 41
11 16 22 24 28 36 39 38 39 36 37 42 45 54 59 63 64 65 67 69 69 73 73 71 69 69 63 66 73 75 68 75 74 72 71 73 78 64 77 73 78 76 80 26
10 10 13 18 18 21 27 32 33 35 33 31 32 36 42 48 51 52 54 60 62 59 52 46 48 50 52 53 54 56 57 52 53 40 47 55 58 40 56 81 82 70 42 14
11 10 10 11 14 14 15 18 18 18 22 22 24 21 24 25 27 30 31 33 34 32 33 31 31 31 30 32 34 34 36 31 28 24 25 33 31 36 48 54 45 64 17 14
16 16 10 11 10 12 12 13 14 13 15 18 16 17 16 17 17 17 19 17 18 18 17 18 18 21 24 26 31 33 32 32 28 18 18 20 21 19 24 36 50 45 32 9
50 16 18 14 10 10 11 12 13 12 12 14 17 19 19 20 21 20 20 21 21 20 19 17 17 18 20 20 26 33 38 36 37 26 21 22 20 15 16 14 12 12 20 6
54 55 31 15 21 13 9 10 12 13 13 15 15 17 18 19 20 20 18 17 17 16 16 16 17 18 19 21 25 29 34 40 45 35 26 36 11 11 10 12 13 14 11 8
48 51 54 50 17 20 25 19 11 9 9 10 12 14 16 15 13 13 16 16 15 14 15 16 15 18 25 31 34 35 36 46 47 46 48 14 11 9 9 11 9 10 10 10
47 48 46 46 55 39 14 16 21 27 27 18 16 10 10 10 10 11 11 11 12 12 14 14 15 16 27 27 28 29 31 39 54 60 56 35 11 11 12 12 11 11 12 16
41 48 48 46 41 45 55 44 28 15 14 18 24 26 26 20 13 12 14 11 14 14 14 15 16 17 20 24 21 19 29 38 42 58 62 15 10 12 15 18 14 17 18 19
48 48 52 49 45 42 41 40 48 52 52 45 20 18 22 20 21 25 23 20 19 16 16 16 16 20 21 19 17 17 18 19 24 55 71 34 11 15 20 23 24 25 26 25
55 56 55 54 48 44 44 46 42 38 35 36 39 44 40 27 17 19 26 28 25 20 18 20 21 22 23 23 25 23 24 19 20 19 14 15 19 23 26 26 30 29 28 30
54 63 64 58 55 53 50 49 46 41 37 34 33 34 36 39 43 40 38 42 33 26 24 29 33 30 27 28 26 29 29 27 27 30 26 32 34 34 33 29 27 28 33 32
56 63 68 64 59 60 58 54 48 44 40 36 34 34 35 33 32 37 40 45 42 30 29 31 35 40 36 32 31 32 32 34 36 39 38 38 32 32 33 32 30 29 32 37
62 63 68 68 65 61 61 60 56 51 44 41 38 33 31 30 30 30 34 41 46 46 38 38 41 41 40 40 44 36 34 40 47 48 44 40 28 26 28 27 26 26 27 27
66 65 67 68 63 58 55 55 50 49 44 40 37 36 34 32 30 32 36 34 40 40 42 43 45 46 48 47 47 41 45 52 49 42 36 30 30 28 26 23 21 21 24 30
67 66 64 61 60 58 55 52 50 51 47 36 36 34 32 33 40 35 34 35 37 43 45 44 45 47 58 53 40 46 58 49 43 39 36 35 32 30 27 22 20 22 28 34
78 75 71 67 64 60 56 51 49 48 44 36 36 35 34 36 36 38 39 44 48 47 47 44 45 49 54 52 49 48 47 42 39 38 35 32 29 24 20 17 16 17 28 38
89 87 82 73 67 63 51 43 39 36 35 35 35 35 37 34 38 47 53 58 59 58 58 58 58 49 45 48 43 44 41 33 26 24 23 21 22 23 22 20 20 19 18 19
90 90 89 76 60 53 43 33 30 31 29 27 24 26 38 38 43 51 61 72 67 71 64 61 55 45 45 44 46 44 42 29 24 21 20 19 20 23 24 25 27 26 25 26
95 91 83 61 40 26 21 19 19 25 26 30 29 29 31 43 49 64 70 72 68 68 69 64 62 44 46 48 54 62 65 64 65 63 60 53 40 29 26 27 31 33 35 38
87 72 52 35 21 18 17 17 20 25 37 49 61 63 67 71 68 70 71 67 65 70 74 67 52 46 48 58 75 77 68 61 64 62 62 62 57 52 50 56 61 48 39 38
31 21 13 14 24 20 13 24 35 57 63 79 81 78 81 83 78 81 70 68 73 74 74 59 43 51 58 76 73 69 70 67 63 61 56 52 47 41 35 33 34 52 60 69
14 8 6 10 22 22 24 18 35 77 88 87 86 91 91 92 84 74 67 79 78 82 77 47 49 57 62 69 73 69 45 39 45 35 42 60 54 38 30 34 38 36 37 64
8 8 11 10 13 15 18 35 64 92 98 97 95 94 92 87 74 65 66 73 76 74 46 52 62 66 72 70 55 41 31 44 69 59 48 44 38 33 30 30 40 52 55 62
9 8 9 9 8 17 40 76 90 100 100 100 97 81 69 60 53 54 47 58 41 22 27 61 66 63 56 45 34 34 24 32 77 74 54 46 42 38 33 33 48 49 54 62
9 7 5 6 6 7 18 28 49 60 59 73 91 98 82 59 62 80 59 24 16 25 39 42 42 37 24 16 19 34 40 49 71 63 64 59 51 37 30 33 54 49 40 37

GFSNW_700_rhum_120.txt.gz
RH
14 16 20 26 31 34 36 42 47 48 46 44 43 43 48 56 58 60 66 69 69 67 66 72 62 52 54 48 64 63 62 66 60 62 64 65 65 77 73 68 68 81 85 38
11 12 12 14 20 25 29 36 43 45 43 49 46 52 56 60 61 57 57 60 62 66 63 64 64 61 55 59 63 67 70 69 67 71 65 64 69 57 65 72 71 72 74 21
11 10 11 11 10 13 16 20 26 32 36 38 40 40 41 45 50 54 56 59 65 59 50 51 52 54 56 59 62 66 58 52 52 37 41 50 55 45 54 70 81 65 41 13
17 15 10 10 11 10 11 12 13 15 18 20 25 30 31 31 31 33 33 33 34 34 32 32 32 33 34 35 35 37 36 30 26 23 23 25 21 23 32 44 42 59 16 14
54 22 18 12 11 12 12 10 11 12 12 14 15 17 19 20 20 20 20 21 21 20 22 23 25 25 24 28 30 31 32 31 25 14 15 17 16 14 17 25 32 32 28 9
52 55 43 17 18 12 11 12 12 12 13 13 14 14 15 17 18 18 18 18 18 18 19 20 20 21 23 23 26 32 35 30 31 24 21 23 22 13 14 14 17 18 19 11
47 49 54 54 23 19 19 11 10 11 11 12 14 15 15 14 13 15 17 16 16 15 16 17 18 20 21 24 27 31 37 41 43 34 30 30 11 10 13 13 13 14 12 12
44 47 47 48 55 36 16 22 24 17 11 10 10 10 11 14 14 11 12 13 14 15 15 18 15 18 27 30 31 33 34 40 45 48 37 14 15 12 12 12 13 11 12 16
39 44 48 47 44 51 56 38 18 17 25 22 25 20 13 12 12 10 11 11 11 12 14 15 16 15 23 26 30 36 43 49 56 53 51 25 11 12 13 15 16 13 19 22
32 38 48 50 48 42 41 45 50 51 47 22 18 24 25 25 23 15 17 17 15 19 15 15 16 17 20 23 22 21 27 32 46 66 56 18 16 16 19 21 21 25 25 25
22 35 48 52 52 48 43 44 41 38 37 37 43 42 36 26 25 21 24 26 22 17 17 16 15 17 18 19 20 21 20 20 24 44 65 32 17 23 28 29 31 31 29 28
13 37 43 51 54 52 48 46 47 45 41 37 35 34 37 38 34 21 18 27 30 26 19 19 21 21 24 23 23 23 27 22 21 22 18 23 28 34 40 39 36 33 31 31
17 39 45 52 59 58 55 53 51 48 44 40 36 35 34 35 36 37 37 38 43 44 36 26 26 30 34 35 29 28 27 28 30 31 30 34 40 40 40 39 37 34 30 28
20 36 47 54 58 60 60 57 56 54 53 47 40 34 35 37 34 33 35 40 43 46 47 36 30 29 34 38 39 37 34 36 37 40 42 44 42 42 33 27 28 28 26 25
20 42 53 53 56 58 59 58 54 53 51 49 46 42 36 35 33 32 34 38 40 43 48 45 41 40 41 43 44 36 37 36 40 43 52 49 37 34 33 32 31 30 28 26
30 59 59 55 57 58 60 53 48 48 47 47 46 41 38 37 35 36 34 37 40 49 52 52 45 44 50 48 48 44 49 53 55 50 46 40 37 37 35 33 31 26 20 18
59 67 68 64 61 62 60 58 52 52 49 44 43 40 37 36 36 38 37 35 38 40 41 46 50 52 62 58 44 54 56 54 52 48 38 33 30 29 27 22 19 17 18 18
81 74 70 71 68 67 68 65 61 57 51 44 39 36 37 39 38 42 41 41 42 45 49 45 49 51 56 54 53 56 51 44 36 31 27 26 28 29 28 26 24 24 24 24
100 92 82 85 77 72 72 67 63 58 46 37 34 32 34 31 37 40 46 52 50 48 52 56 55 51 46 50 53 49 38 30 30 26 25 30 32 29 28 26 25 26 27 28
85 91 98 97 76 70 67 61 53 47 42 38 34 30 34 34 39 45 53 58 65 70 61 58 59 40 48 53 52 36 34 39 41 37 46 46 51 51 54 54 54 52 50 42
94 98 100 98 85 76 63 49 39 32 30 33 32 27 30 41 45 50 51 68 69 68 66 59 59 45 48 51 40 50 59 64 64 64 61 59 57 52 49 46 45 43 38 36
99 100 100 93 73 51 44 22 24 27 30 37 40 47 55 62 65 75 76 72 67 68 72 66 57 47 54 50 64 77 76 76 72 69 61 50 44 39 29 26 41 48 38 30
99 97 96 78 57 36 26 22 24 27 35 44 60 67 77 82 80 81 76 72 72 74 69 54 36 50 54 66 82 81 79 76 72 62 43 36 27 23 28 29 38 38 34 31
96 78 46 44 33 28 26 22 23 36 51 73 87 86 91 93 87 79 67 72 69 75 72 41 52 66 78 86 87 84 79 74 69 58 49 39 23 12 14 45 48 42 39 35
73 63 31 16 23 22 22 29 32 45 81 93 98 99 97 97 94 77 67 65 70 72 57 72 70 70 72 78 79 77 73 67 60 43 26 12 9 9 11 35 49 48 48 48
45 22 14 12 12 16 24 36 57 77 100 99 99 98 95 81 68 64 54 63 53 35 35 52 70 66 78 80 77 70 55 39 24 12 7 7 13 21 19 20 24 32 33 30
18 11 10 10 10 13 31 62 62 85 95 98 99 94 50 40 46 59 38 25 14 22 24 27 32 29 25 19 17 15 12 10 10 9 9 9 10 8 8 8 8 13 22 30